[[{"header":{"parameterUnit":"m.s-1","parameterCategory":1,"la1":31.0,"la2":29.5877,"lo1":-88.7671,"lo2":-86.6584,"dx":0.0162,"dy":0.0185,"nx":115,"ny":88,"refTime":"2023-02-07T06:00:00:Z","depth":0,"parameterNumber":2,"parameterNumberName":"U-component_of_WINDS"},"data":[0.0,0.0,0.0,0.0,0.0,0.0,0.0,0.0,0.0,0.0,0.0,0.0,0.0,0.0,0.0,0.0,0.0,0.0,0.0,0.0,0.0,0.0,0.0,0.0,0.0,0.0,0.0,0.0,0.0,0.0,0.0,0.0,0.0,0.0,0.0,0.0,0.0,0.0,0.0,0.0,0.0,0.0,0.0,0.0,0.0,0.0,0.0,0.0,0.0,0.0,0.0,0.0,0.0,0.0,0.0,0.0,0.0,0.0,0.0,0.0,0.0,0.0,0.0,0.0,0.0,0.0,0.0,0.0,0.0,0.0,0.0,0.0,0.0,0.0,0.0,0.0,0.0,0.0,0.0,0.0,0.0,0.0,0.0,0.0,0.0,0.0,0.0,0.0,0.0,0.0,0.0,0.0,0.0,0.0,0.0,0.0,0.0,0.0,0.0,0.0,0.0,0.0,0.0,0.0,0.0,0.0,0.0,0.0,0.0,0.0,0.0,0.0,0.0,0.0,0.0,0.0,0.0,0.0,0.0,0.0,0.0,0.0,0.0,0.0,0.0,0.0,0.0,0.0,0.0,0.0,0.0,0.0,0.0,0.0,0.0,0.0,0.0,0.0,0.0,0.0,0.0,0.0,0.0,0.0,0.0,0.0,0.0,0.0,0.0,0.0,0.0,0.0,0.0,0.0,0.0,0.0,0.0,0.0,0.0,0.0,0.0,0.0,0.0,0.0,0.0,0.0,0.0,0.0,0.0,0.0,0.0,0.0,0.0,0.0,0.0,0.0,0.0,0.0,0.0,0.0,0.0,0.0,0.0,0.0,0.0,0.0,0.0,0.0,0.0,0.0,0.0,0.0,0.0,0.0,0.0,0.0,0.0,0.0,0.0,0.0,0.0,0.0,0.0,0.0,0.0,0.0,0.0,0.0,0.0,0.0,0.0,0.0,0.0,0.0,0.0,0.0,0.0,0.0,0.0,0.0,0.0,0.0,0.0,0.0,0.0,0.0,0.0,0.0,0.0,0.0,0.0,0.0,0.0,0.0,0.0,0.0,0.0,0.0,0.0,0.0,0.0,0.0,0.0,0.0,0.0,0.0,0.0,0.0,0.0,0.0,0.0,0.0,0.0,0.0,0.0,0.0,0.0,0.0,0.0,0.0,0.0,0.0,0.0,0.0,0.0,0.0,0.0,0.0,0.0,0.0,0.0,0.0,0.0,0.0,0.0,0.0,0.0,0.0,0.0,0.0,0.0,0.0,0.0,0.0,0.0,0.0,0.0,0.0,0.0,0.0,0.0,0.0,0.0,0.0,0.0,0.0,0.0,0.0,0.0,0.0,0.0,0.0,0.0,0.0,0.0,0.0,0.0,0.0,0.0,0.0,0.0,0.0,0.0,0.0,0.0,0.0,0.0,0.0,0.0,0.0,0.0,0.0,0.0,0.0,0.0,0.0,0.0,0.0,0.0,0.0,0.0,0.0,0.0,0.0,0.0,0.0,0.0,0.0,0.0,0.0,0.0,0.0,0.0,0.0,0.0,0.0,0.0,0.0,0.0,0.0,0.0,0.0,0.0,0.0,0.0,0.0,0.0,0.0,0.0,0.0,0.0,0.0,0.0,0.0,0.0,0.0,0.0,0.0,0.0,0.0,0.0,0.0,0.0,0.0,0.0,0.0,0.0,0.0,0.0,0.0,0.0,0.0,0.0,0.0,0.0,0.0,0.0,0.0,0.0,0.0,0.0,0.0,0.0,0.0,0.0,0.0,0.0,0.0,0.0,0.0,0.0,0.0,0.0,0.0,0.0,0.0,0.0,0.0,0.0,0.0,0.0,0.0,0.0,0.0,0.0,0.0,0.0,0.0,0.0,0.0,0.0,0.0,0.0,0.0,0.0,0.0,0.0,0.0,0.0,0.0,0.0,0.0,0.0,0.0,0.0,0.0,0.0,0.0,0.0,0.0,0.0,0.0,0.0,0.0,0.0,0.0,0.0,0.0,0.0,0.0,0.0,0.0,0.0,0.0,0.0,0.0,0.0,0.0,0.0,0.0,0.0,0.0,0.0,0.0,0.0,0.0,0.0,0.0,0.0,0.0,0.0,0.0,0.0,0.0,0.0,0.0,0.0,0.0,0.0,0.0,0.0,0.0,0.0,0.0,0.0,0.0,0.0,0.0,0.0,0.0,0.0,0.0,0.0,0.0,0.0,0.0,0.0,0.0,0.0,0.0,0.0,0.0,0.0,0.0,0.0,0.0,0.0,0.0,0.0,0.0,0.0,0.0,0.0,0.0,0.0,0.0,0.0,0.0,0.0,0.0,0.0,0.0,0.0,0.0,0.0,0.0,0.0,0.0,0.0,0.0,0.0,0.0,0.0,0.0,0.0,0.0,0.0,0.0,0.0,0.0,0.0,0.0,0.0,0.0,0.0,0.0,0.0,0.0,0.0,0.0,0.0,0.0,0.0,0.0,0.0,0.0,0.0,0.0,0.0,0.0,0.0,0.0,0.0,0.0,0.0,0.0,0.0,0.0,0.0,0.0,0.0,0.0,0.0,0.0,0.0,0.0,0.0,0.0,0.0,0.0,0.0,0.0,0.0,0.0,0.0,0.0,0.0,0.0,0.0,0.0,0.0,0.0,0.0,0.0,0.0,0.0,0.0,0.0,0.0,0.0,0.0,0.0,0.0,0.0,0.0,0.0,0.0,0.0,0.0,0.0,0.0,0.0,0.0,0.0,0.0,0.0,0.0,0.0,0.0,0.0,0.0,0.0,0.0,0.0,0.0,0.0,0.0,0.0,0.0,0.0,0.0,0.0,0.0,0.0,0.0,0.0,0.0,0.0,0.0,0.0,0.0,0.0,0.0,0.0,0.0,0.0,0.0,0.0,0.0,0.0,0.0,0.0,0.0,0.0,0.0,0.0,0.0,0.0,0.0,0.0,0.0,0.0,0.0,0.0,0.0,0.0,0.0,0.0,0.0,0.0,0.0,0.0,0.0,0.0,0.0,0.0,0.0,0.0,0.0,0.0,0.0,0.0,0.0,0.0,0.0,0.0,0.0,0.0,0.0,0.0,0.0,0.0,0.0,0.0,0.0,0.0,0.0,0.0,0.0,0.0,0.0,0.0,0.0,0.0,0.0,0.0,0.0,0.0,0.0,0.0,0.0,0.0,0.0,0.0,0.0,0.0,0.0,0.0,0.0,0.0,0.0,0.0,0.0,0.0,0.0,0.0,0.0,0.0,0.0,0.0,0.0,0.0,0.0,0.0,0.0,0.0,0.0,0.0,0.0,0.0,0.0,0.0,0.0,0.0,0.0,0.0,0.0,0.0,0.0,0.0,0.0,0.0,0.0,0.0,0.0,0.0,0.0,0.0,0.0,0.0,0.0,0.0,0.0,0.0,0.0,0.0,0.0,0.0,0.0,0.0,0.0,0.0,0.0,0.0,0.0,0.0,0.0,0.0,0.0,0.0,0.0,0.0,0.0,0.0,0.0,0.0,0.0,0.0,0.0,0.0,0.0,0.0,0.0,0.0,0.0,0.0,0.0,0.0,0.0,0.0,0.0,0.0,0.0,0.0,0.0,0.0,0.0,0.0,0.0,0.0,0.0,0.0,0.0,0.0,0.0,0.0,0.0,0.0,0.0,0.0,0.0,0.0,0.0,0.0,0.0,0.0,0.0,0.0,0.0,0.0,0.0,0.0,0.0,0.0,0.0,0.0,0.0,0.0,0.0,0.0,0.0,0.0,0.0,0.0,0.0,0.0,0.0,0.0,0.0,0.0,0.0,0.0,0.0,0.0,0.0,0.0,0.0,0.0,0.0,0.0,0.0,0.0,0.0,0.0,0.0,0.0,0.0,0.0,0.0,0.0,0.0,0.0,0.0,0.0,0.0,0.0,0.0,0.0,0.0,0.0,0.0,0.0,0.0,0.0,0.0,0.0,0.0,0.0,0.0,0.0,0.0,0.0,0.0,0.0,0.0,0.0,0.0,0.0,0.0,0.0,0.0,0.0,0.0,0.0,0.0,0.0,0.0,0.0,0.0,0.0,0.0,0.0,0.0,0.0,0.0,0.0,0.0,0.0,0.0,0.0,0.0,0.0,0.0,0.0,0.0,0.0,0.0,0.0,0.0,0.0,0.0,0.0,0.0,0.0,0.0,0.0,0.0,0.0,0.0,0.0,0.0,0.0,0.0,0.0,0.0,0.0,0.0,0.0,0.0,0.0,0.0,0.0,0.0,0.0,0.0,0.0,0.0,0.0,0.0,0.0,0.0,0.0,0.0,0.0,0.0,0.0,5.1199,0.0,0.0,0.0,0.0,0.0,0.0,0.0,0.0,0.0,0.0,0.0,0.0,0.0,0.0,0.0,0.0,0.0,0.0,0.0,0.0,0.0,0.0,0.0,0.0,0.0,0.0,0.0,0.0,0.0,0.0,0.0,0.0,0.0,0.0,0.0,0.0,0.0,0.0,0.0,0.0,0.0,0.0,0.0,0.0,0.0,0.0,0.0,0.0,0.0,0.0,0.0,0.0,0.0,0.0,0.0,0.0,0.0,0.0,0.0,0.0,0.0,0.0,0.0,0.0,0.0,0.0,0.0,0.0,0.0,0.0,0.0,0.0,0.0,0.0,0.0,0.0,0.0,0.0,0.0,0.0,0.0,0.0,0.0,0.0,0.0,0.0,0.0,0.0,0.0,0.0,0.0,0.0,0.0,0.0,0.0,0.0,0.0,0.0,0.0,0.0,0.0,0.0,0.0,0.0,0.0,0.0,0.0,0.0,0.0,0.0,5.1647,5.1794,5.1721,5.1721,5.1647,0.0,0.0,0.0,0.0,0.0,0.0,0.0,0.0,0.0,0.0,0.0,0.0,0.0,0.0,0.0,0.0,0.0,0.0,0.0,0.0,0.0,0.0,0.0,0.0,0.0,0.0,0.0,0.0,0.0,0.0,0.0,0.0,0.0,0.0,0.0,0.0,0.0,0.0,0.0,0.0,0.0,0.0,0.0,0.0,0.0,0.0,0.0,0.0,0.0,0.0,0.0,0.0,0.0,0.0,0.0,0.0,0.0,0.0,0.0,0.0,0.0,0.0,0.0,0.0,0.0,0.0,0.0,0.0,0.0,0.0,0.0,0.0,0.0,0.0,0.0,0.0,0.0,0.0,0.0,0.0,0.0,0.0,0.0,0.0,0.0,0.0,0.0,0.0,0.0,0.0,0.0,0.0,0.0,0.0,0.0,0.0,0.0,0.0,0.0,0.0,0.0,0.0,0.0,0.0,0.0,0.0,0.0,0.0,0.0,0.0,0.0,0.0,5.2119,5.2086,5.2013,0.0,0.0,0.0,0.0,0.0,0.0,0.0,0.0,0.0,0.0,0.0,0.0,0.0,0.0,0.0,0.0,0.0,0.0,0.0,0.0,0.0,0.0,0.0,0.0,0.0,0.0,0.0,0.0,0.0,0.0,0.0,0.0,0.0,0.0,0.0,0.0,0.0,0.0,0.0,0.0,0.0,0.0,0.0,0.0,0.0,0.0,0.0,0.0,0.0,0.0,0.0,0.0,0.0,0.0,0.0,0.0,0.0,0.0,0.0,0.0,0.0,0.0,0.0,0.0,0.0,0.0,0.0,0.0,0.0,0.0,0.0,0.0,0.0,0.0,0.0,0.0,0.0,0.0,0.0,0.0,0.0,0.0,0.0,0.0,0.0,0.0,0.0,0.0,0.0,0.0,0.0,0.0,0.0,0.0,0.0,0.0,0.0,0.0,0.0,0.0,0.0,0.0,0.0,0.0,0.0,0.0,0.0,0.0,0.0,0.0,5.2013,5.2373,5.2191,0.0,5.1868,0.0,0.0,0.0,0.0,0.0,0.0,0.0,0.0,0.0,0.0,0.0,0.0,0.0,0.0,0.0,0.0,0.0,0.0,0.0,0.0,0.0,0.0,0.0,0.0,0.0,0.0,0.0,0.0,0.0,0.0,0.0,0.0,0.0,0.0,0.0,0.0,0.0,0.0,0.0,0.0,0.0,0.0,0.0,0.0,0.0,0.0,0.0,0.0,0.0,0.0,0.0,0.0,0.0,0.0,0.0,0.0,0.0,0.0,0.0,0.0,0.0,0.0,0.0,0.0,0.0,0.0,0.0,0.0,0.0,0.0,0.0,0.0,0.0,0.0,0.0,0.0,0.0,0.0,0.0,0.0,0.0,0.0,0.0,0.0,0.0,0.0,0.0,0.0,0.0,0.0,0.0,0.0,0.0,0.0,0.0,0.0,0.0,0.0,0.0,0.0,0.0,0.0,0.0,0.0,0.0,0.0,0.0,0.0,0.0,0.0,5.2013,5.2373,5.2302,5.223,0.0,0.0,0.0,0.0,0.0,0.0,0.0,0.0,0.0,0.0,0.0,0.0,0.0,0.0,0.0,0.0,0.0,0.0,0.0,0.0,0.0,0.0,0.0,0.0,0.0,0.0,0.0,0.0,0.0,0.0,0.0,0.0,0.0,0.0,0.0,0.0,0.0,0.0,0.0,0.0,0.0,0.0,0.0,0.0,0.0,0.0,0.0,0.0,0.0,0.0,0.0,0.0,0.0,0.0,0.0,0.0,0.0,0.0,0.0,0.0,0.0,0.0,0.0,0.0,0.0,0.0,0.0,0.0,0.0,0.0,0.0,0.0,0.0,0.0,0.0,0.0,0.0,0.0,0.0,0.0,0.0,0.0,0.0,0.0,0.0,0.0,0.0,0.0,0.0,0.0,0.0,0.0,0.0,0.0,0.0,0.0,0.0,0.0,0.0,0.0,0.0,0.0,0.0,0.0,0.0,0.0,0.0,0.0,0.0,0.0,5.1794,5.2185,5.2638,5.2672,5.2771,5.297,0.0,0.0,0.0,0.0,0.0,0.0,0.0,0.0,0.0,0.0,0.0,0.0,0.0,0.0,0.0,0.0,0.0,0.0,0.0,0.0,0.0,0.0,0.0,0.0,0.0,0.0,0.0,0.0,0.0,0.0,0.0,0.0,0.0,0.0,0.0,0.0,0.0,0.0,0.0,0.0,0.0,0.0,0.0,0.0,0.0,0.0,0.0,0.0,0.0,0.0,0.0,0.0,0.0,0.0,0.0,0.0,0.0,0.0,0.0,0.0,0.0,0.0,0.0,0.0,0.0,0.0,0.0,0.0,0.0,0.0,0.0,0.0,0.0,0.0,0.0,0.0,0.0,0.0,0.0,0.0,0.0,0.0,0.0,0.0,0.0,0.0,0.0,0.0,0.0,0.0,0.0,0.0,0.0,0.0,0.0,0.0,0.0,0.0,0.0,0.0,0.0,0.0,0.0,0.0,0.0,0.0,0.0,0.0,5.1794,5.1973,5.2488,5.3334,5.3367,5.3699,0.0,0.0,0.0,0.0,0.0,0.0,0.0,0.0,0.0,0.0,0.0,0.0,0.0,0.0,0.0,0.0,0.0,0.0,0.0,0.0,0.0,0.0,0.0,0.0,0.0,0.0,0.0,0.0,0.0,0.0,0.0,0.0,0.0,0.0,0.0,0.0,0.0,0.0,0.0,0.0,0.0,0.0,0.0,0.0,0.0,0.0,0.0,0.0,0.0,0.0,0.0,0.0,0.0,0.0,0.0,0.0,0.0,0.0,0.0,0.0,0.0,0.0,0.0,0.0,0.0,0.0,0.0,0.0,0.0,0.0,0.0,0.0,0.0,0.0,0.0,0.0,0.0,0.0,0.0,0.0,0.0,0.0,0.0,0.0,0.0,0.0,0.0,0.0,0.0,0.0,0.0,0.0,0.0,0.0,0.0,0.0,0.0,0.0,0.0,0.0,0.0,0.0,0.0,0.0,0.0,0.0,0.0,0.0,0.0,5.2515,5.3239,5.3791,5.4096,5.4129,5.4262,0.0,0.0,0.0,0.0,0.0,0.0,0.0,0.0,0.0,0.0,0.0,0.0,0.0,0.0,0.0,0.0,0.0,0.0,0.0,0.0,0.0,0.0,0.0,0.0,0.0,0.0,0.0,0.0,0.0,0.0,0.0,0.0,0.0,0.0,0.0,0.0,0.0,0.0,0.0,0.0,0.0,0.0,0.0,0.0,0.0,0.0,0.0,0.0,0.0,0.0,0.0,0.0,0.0,0.0,0.0,0.0,0.0,0.0,0.0,0.0,0.0,0.0,0.0,0.0,0.0,0.0,0.0,0.0,0.0,0.0,0.0,0.0,0.0,0.0,0.0,0.0,0.0,0.0,0.0,0.0,0.0,0.0,0.0,0.0,0.0,0.0,0.0,0.0,0.0,0.0,0.0,0.0,0.0,0.0,0.0,0.0,0.0,0.0,0.0,0.0,0.0,0.0,0.0,0.0,0.0,0.0,0.0,0.0,0.0,5.3461,0.0,5.4626,5.4858,5.4891,5.499,0.0,0.0,0.0,0.0,0.0,0.0,0.0,0.0,0.0,0.0,0.0,0.0,0.0,0.0,0.0,0.0,0.0,0.0,0.0,0.0,0.0,0.0,0.0,0.0,0.0,0.0,0.0,0.0,0.0,0.0,0.0,0.0,0.0,0.0,0.0,0.0,0.0,0.0,0.0,0.0,0.0,0.0,0.0,0.0,0.0,0.0,0.0,0.0,0.0,0.0,0.0,0.0,0.0,0.0,0.0,0.0,0.0,0.0,0.0,0.0,0.0,0.0,0.0,0.0,0.0,0.0,0.0,0.0,0.0,0.0,0.0,0.0,0.0,0.0,0.0,0.0,0.0,0.0,0.0,0.0,0.0,0.0,0.0,0.0,0.0,0.0,0.0,0.0,0.0,0.0,0.0,0.0,0.0,0.0,0.0,0.0,0.0,0.0,0.0,0.0,0.0,0.0,0.0,0.0,0.0,0.0,0.0,0.0,5.3957,5.4485,5.4593,5.4957,5.5587,5.562,5.5951,0.0,0.0,0.0,0.0,0.0,0.0,0.0,0.0,0.0,0.0,0.0,0.0,0.0,0.0,0.0,0.0,0.0,0.0,0.0,0.0,0.0,0.0,0.0,0.0,0.0,0.0,0.0,0.0,0.0,0.0,0.0,0.0,0.0,0.0,0.0,0.0,0.0,0.0,0.0,0.0,0.0,0.0,0.0,0.0,0.0,0.0,0.0,0.0,0.0,0.0,0.0,0.0,0.0,0.0,0.0,0.0,0.0,0.0,0.0,0.0,0.0,0.0,0.0,0.0,0.0,0.0,0.0,0.0,0.0,0.0,0.0,0.0,0.0,0.0,0.0,0.0,0.0,0.0,0.0,0.0,0.0,0.0,0.0,0.0,0.0,0.0,0.0,0.0,0.0,0.0,0.0,0.0,0.0,0.0,0.0,0.0,0.0,0.0,0.0,0.0,0.0,0.0,0.0,0.0,0.0,0.0,0.0,0.0,0.0,5.6017,5.6017,5.6117,5.6349,5.6349,5.6481,0.0,0.0,0.0,0.0,0.0,0.0,0.0,0.0,0.0,0.0,0.0,0.0,0.0,0.0,0.0,0.0,0.0,0.0,0.0,0.0,0.0,0.0,0.0,0.0,0.0,0.0,0.0,0.0,0.0,0.0,0.0,0.0,0.0,0.0,0.0,0.0,0.0,0.0,0.0,0.0,0.0,0.0,0.0,0.0,0.0,0.0,0.0,0.0,0.0,0.0,0.0,0.0,0.0,0.0,0.0,0.0,0.0,0.0,0.0,0.0,0.0,0.0,0.0,0.0,0.0,0.0,0.0,0.0,0.0,0.0,0.0,0.0,0.0,0.0,0.0,0.0,0.0,0.0,0.0,0.0,0.0,0.0,0.0,0.0,0.0,0.0,0.0,0.0,0.0,0.0,0.0,0.0,0.0,0.0,0.0,0.0,0.0,0.0,0.0,0.0,0.0,0.0,0.0,0.0,0.0,0.0,0.0,0.0,0.0,5.7475,5.7243,5.7243,5.7508,5.7243,5.7077,5.7111,0.0,0.0,0.0,0.0,0.0,0.0,0.0,0.0,0.0,0.0,0.0,0.0,0.0,0.0,0.0,0.0,0.0,0.0,0.0,0.0,0.0,0.0,0.0,0.0,0.0,0.0,0.0,0.0,0.0,0.0,0.0,0.0,0.0,0.0,0.0,0.0,0.0,0.0,0.0,0.0,0.0,0.0,0.0,0.0,0.0,0.0,0.0,0.0,0.0,0.0,0.0,0.0,0.0,0.0,0.0,0.0,0.0,0.0,0.0,0.0,0.0,0.0,0.0,0.0,0.0,0.0,0.0,0.0,0.0,0.0,0.0,0.0,0.0,0.0,0.0,0.0,0.0,0.0,0.0,0.0,0.0,0.0,0.0,0.0,0.0,0.0,0.0,0.0,0.0,0.0,0.0,0.0,0.0,0.0,0.0,0.0,0.0,0.0,0.0,0.0,0.0,0.0,0.0,0.0,0.0,0.0,0.0,0.0,5.8933,5.827,5.8237,5.8833,5.8204,5.7839,0.0,0.0,0.0,0.0,0.0,0.0,0.0,0.0,0.0,0.0,0.0,0.0,0.0,0.0,0.0,0.0,0.0,0.0,0.0,0.0,0.0,0.0,0.0,0.0,0.0,0.0,0.0,0.0,0.0,0.0,0.0,0.0,0.0,0.0,0.0,0.0,0.0,0.0,0.0,0.0,0.0,0.0,0.0,0.0,0.0,0.0,0.0,0.0,0.0,0.0,0.0,0.0,0.0,0.0,0.0,0.0,0.0,0.0,0.0,0.0,0.0,0.0,0.0,0.0,0.0,0.0,0.0,0.0,0.0,0.0,0.0,0.0,0.0,0.0,0.0,0.0,0.0,0.0,0.0,0.0,0.0,0.0,0.0,0.0,0.0,0.0,0.0,0.0,0.0,0.0,0.0,0.0,0.0,0.0,0.0,0.0,0.0,0.0,0.0,0.0,0.0,0.0,0.0,0.0,0.0,0.0,0.0,0.0,0.0,5.9661,5.9529,5.9264,5.8899,5.8701,5.8336,0.0,0.0,0.0,0.0,0.0,0.0,0.0,0.0,0.0,0.0,0.0,0.0,0.0,0.0,0.0,0.0,0.0,0.0,0.0,0.0,0.0,0.0,0.0,0.0,0.0,0.0,0.0,0.0,0.0,0.0,0.0,0.0,0.0,0.0,0.0,0.0,0.0,0.0,0.0,0.0,0.0,0.0,0.0,0.0,0.0,0.0,0.0,0.0,0.0,0.0,0.0,0.0,0.0,0.0,0.0,0.0,0.0,0.0,0.0,0.0,0.0,0.0,0.0,0.0,0.0,0.0,0.0,0.0,0.0,0.0,0.0,0.0,0.0,0.0,0.0,0.0,0.0,0.0,0.0,0.0,0.0,0.0,0.0,0.0,0.0,0.0,0.0,0.0,0.0,0.0,0.0,0.0,0.0,0.0,0.0,0.0,0.0,0.0,0.0,0.0,0.0,0.0,0.0,0.0,0.0,0.0,0.0,0.0,5.986,6.0887,6.092,6.0721,6.0291,5.9694,5.9164,0.0,0.0,0.0,0.0,0.0,0.0,0.0,0.0,0.0,0.0,0.0,0.0,0.0,0.0,0.0,0.0,0.0,0.0,0.0,0.0,0.0,0.0,0.0,0.0,0.0,0.0,0.0,0.0,0.0,0.0,0.0,0.0,0.0,0.0,0.0,0.0,0.0,0.0,0.0,0.0,0.0,0.0,0.0,0.0,0.0,0.0,0.0,0.0,0.0,0.0,0.0,0.0,0.0,0.0,0.0,0.0,0.0,0.0,0.0,0.0,0.0,0.0,0.0,0.0,0.0,0.0,0.0,0.0,0.0,0.0,0.0,0.0,0.0,0.0,0.0,0.0,0.0,0.0,0.0,0.0,0.0,0.0,0.0,0.0,0.0,0.0,0.0,0.0,0.0,0.0,0.0,0.0,0.0,0.0,0.0,0.0,0.0,0.0,0.0,0.0,0.0,0.0,0.0,0.0,0.0,0.0,0.0,0.0,6.0887,6.2245,6.2278,6.2278,6.2245,6.0953,6.0158,0.0,0.0,0.0,0.0,0.0,0.0,0.0,0.0,0.0,0.0,0.0,0.0,0.0,0.0,0.0,0.0,0.0,0.0,0.0,0.0,0.0,0.0,0.0,0.0,0.0,0.0,0.0,0.0,0.0,0.0,0.0,0.0,0.0,0.0,0.0,0.0,0.0,0.0,0.0,0.0,0.0,0.0,0.0,0.0,0.0,0.0,0.0,0.0,0.0,0.0,0.0,0.0,0.0,0.0,0.0,0.0,0.0,0.0,0.0,0.0,0.0,0.0,0.0,0.0,0.0,0.0,0.0,0.0,0.0,0.0,0.0,0.0,0.0,0.0,0.0,0.0,0.0,0.0,0.0,0.0,0.0,0.0,0.0,0.0,0.0,0.0,0.0,0.0,0.0,0.0,0.0,0.0,0.0,0.0,0.0,0.0,0.0,0.0,0.0,0.0,0.0,0.0,0.0,0.0,0.0,0.0,0.0,0.0,6.2146,6.3007,6.304,6.304,6.304,6.2179,6.1185,0.0,0.0,0.0,0.0,0.0,0.0,0.0,0.0,0.0,0.0,0.0,0.0,0.0,0.0,0.0,0.0,0.0,0.0,0.0,0.0,0.0,0.0,0.0,0.0,0.0,0.0,0.0,0.0,0.0,0.0,0.0,0.0,0.0,0.0,0.0,0.0,0.0,0.0,0.0,0.0,0.0,0.0,0.0,0.0,0.0,0.0,0.0,0.0,5.4142,0.0,0.0,0.0,0.0,0.0,0.0,0.0,0.0,0.0,0.0,0.0,0.0,0.0,0.0,0.0,0.0,0.0,0.0,0.0,0.0,0.0,0.0,0.0,0.0,0.0,0.0,0.0,0.0,0.0,0.0,0.0,0.0,0.0,0.0,0.0,0.0,0.0,0.0,0.0,0.0,0.0,0.0,0.0,0.0,0.0,0.0,0.0,0.0,0.0,0.0,0.0,0.0,0.0,0.0,0.0,0.0,0.0,0.0,0.0,6.3073,6.3769,6.3802,6.3802,6.3769,6.3405,6.2543,0.0,0.0,0.0,0.0,0.0,0.0,0.0,0.0,0.0,0.0,0.0,0.0,0.0,0.0,0.0,0.0,0.0,0.0,0.0,0.0,0.0,0.0,0.0,0.0,0.0,0.0,0.0,0.0,0.0,0.0,0.0,0.0,0.0,0.0,0.0,0.0,0.0,0.0,0.0,0.0,0.0,0.0,0.0,0.0,0.0,0.0,0.0,0.0,0.0,0.0,0.0,0.0,0.0,0.0,0.0,0.0,0.0,0.0,0.0,0.0,0.0,0.0,0.0,0.0,0.0,0.0,0.0,0.0,0.0,0.0,0.0,0.0,0.0,0.0,0.0,0.0,0.0,0.0,0.0,0.0,0.0,0.0,0.0,0.0,0.0,0.0,0.0,0.0,0.0,0.0,0.0,0.0,0.0,0.0,0.0,0.0,0.0,0.0,0.0,0.0,0.0,0.0,0.0,0.0,0.0,0.0,0.0,6.3239,6.3968,6.4664,6.4829,6.4829,6.4697,6.4697,6.4034,6.2577,0.0,0.0,0.0,0.0,0.0,0.0,0.0,0.0,0.0,0.0,0.0,0.0,0.0,0.0,0.0,0.0,0.0,0.0,0.0,0.0,0.0,0.0,0.0,0.0,0.0,0.0,0.0,0.0,0.0,0.0,0.0,0.0,0.0,0.0,0.0,0.0,0.0,0.0,5.6229,5.6001,0.0,0.0,0.0,0.0,0.0,0.0,0.0,0.0,5.5861,0.0,0.0,0.0,0.0,0.0,0.0,0.0,0.0,0.0,0.0,0.0,0.0,0.0,0.0,0.0,0.0,0.0,0.0,0.0,0.0,0.0,0.0,0.0,0.0,0.0,0.0,0.0,0.0,0.0,0.0,0.0,0.0,0.0,0.0,0.0,0.0,0.0,0.0,0.0,0.0,0.0,0.0,0.0,0.0,0.0,0.0,0.0,0.0,0.0,0.0,0.0,0.0,0.0,0.0,0.0,0.0,6.4001,6.4697,6.5425,6.6154,6.6784,6.6817,6.6187,6.6154,6.5492,6.4067,0.0,0.0,0.0,0.0,0.0,0.0,0.0,0.0,0.0,0.0,0.0,0.0,0.0,0.0,0.0,0.0,0.0,0.0,0.0,0.0,0.0,0.0,0.0,0.0,0.0,0.0,0.0,0.0,0.0,0.0,0.0,0.0,0.0,0.0,0.0,0.0,0.0,0.0,0.0,5.7098,5.7228,0.0,0.0,0.0,0.0,0.0,0.0,0.0,0.0,5.895,0.0,0.0,0.0,0.0,0.0,0.0,0.0,0.0,0.0,0.0,0.0,0.0,0.0,0.0,0.0,0.0,0.0,0.0,0.0,0.0,0.0,0.0,0.0,0.0,0.0,0.0,0.0,0.0,0.0,0.0,0.0,0.0,0.0,0.0,0.0,0.0,0.0,0.0,0.0,0.0,0.0,0.0,0.0,0.0,0.0,0.0,0.0,0.0,0.0,0.0,0.0,0.0,0.0,0.0,0.0,6.4895,6.5624,6.6353,6.7082,6.7446,6.7479,6.7115,6.6717,6.6187,0.0,0.0,0.0,0.0,0.0,0.0,0.0,0.0,0.0,0.0,0.0,0.0,0.0,0.0,0.0,0.0,0.0,0.0,0.0,0.0,0.0,0.0,0.0,0.0,0.0,0.0,0.0,0.0,0.0,0.0,0.0,0.0,0.0,0.0,0.0,0.0,0.0,0.0,0.0,0.0,5.9092,5.9315,5.9887,0.0,0.0,0.0,0.0,0.0,0.0,6.1433,6.1058,0.0,0.0,0.0,0.0,0.0,0.0,0.0,0.0,0.0,0.0,0.0,0.0,0.0,0.0,0.0,0.0,0.0,0.0,0.0,0.0,0.0,0.0,0.0,0.0,0.0,0.0,0.0,0.0,0.0,0.0,0.0,0.0,0.0,0.0,0.0,0.0,0.0,0.0,0.0,0.0,0.0,0.0,0.0,0.0,0.0,0.0,0.0,0.0,0.0,0.0,0.0,0.0,0.0,0.0,0.0,6.5657,6.6519,6.7247,6.7811,6.7976,6.8009,6.7844,6.7281,6.6817,0.0,0.0,0.0,0.0,0.0,0.0,0.0,0.0,0.0,0.0,0.0,0.0,0.0,0.0,0.0,0.0,0.0,0.0,0.0,0.0,0.0,0.0,0.0,0.0,0.0,0.0,0.0,0.0,0.0,0.0,0.0,0.0,0.0,0.0,0.0,0.0,0.0,0.0,0.0,0.0,0.0,6.1002,6.209,6.209,0.0,0.0,0.0,0.0,6.2998,6.3094,0.0,0.0,0.0,0.0,0.0,0.0,0.0,0.0,0.0,0.0,0.0,0.0,0.0,0.0,0.0,0.0,0.0,0.0,0.0,0.0,0.0,0.0,0.0,0.0,0.0,0.0,0.0,0.0,0.0,0.0,0.0,0.0,0.0,0.0,0.0,0.0,0.0,0.0,0.0,0.0,0.0,0.0,0.0,0.0,0.0,0.0,0.0,0.0,0.0,0.0,0.0,0.0,0.0,0.0,0.0,0.0,6.6419,6.7744,6.8473,6.8606,6.9202,6.9235,6.8606,6.8473,6.7844,0.0,0.0,0.0,0.0,0.0,0.0,0.0,0.0,0.0,0.0,0.0,0.0,0.0,0.0,0.0,0.0,0.0,0.0,0.0,0.0,0.0,0.0,0.0,0.0,0.0,0.0,0.0,0.0,0.0,0.0,0.0,0.0,0.0,0.0,0.0,0.0,0.0,0.0,0.0,0.0,0.0,6.1428,6.2875,6.2524,6.2523,0.0,0.0,6.4674,6.477,6.5287,0.0,0.0,0.0,0.0,0.0,0.0,0.0,0.0,0.0,0.0,0.0,0.0,0.0,0.0,0.0,0.0,0.0,0.0,0.0,0.0,0.0,0.0,0.0,0.0,0.0,0.0,0.0,0.0,0.0,0.0,0.0,0.0,0.0,0.0,0.0,0.0,0.0,0.0,0.0,0.0,0.0,0.0,0.0,0.0,0.0,0.0,0.0,0.0,0.0,0.0,0.0,0.0,0.0,0.0,0.0,6.6419,6.7148,6.8175,6.8904,6.9301,6.9633,6.9633,6.9334,6.8904,6.8208,0.0,0.0,0.0,0.0,0.0,0.0,0.0,0.0,0.0,0.0,0.0,0.0,0.0,0.0,0.0,0.0,0.0,0.0,0.0,0.0,0.0,0.0,0.0,0.0,0.0,0.0,0.0,0.0,0.0,0.0,0.0,0.0,0.0,0.0,0.0,0.0,0.0,0.0,0.0,0.0,0.0,0.0,6.461,6.4351,0.0,0.0,0.0,6.684,6.7231,0.0,0.0,0.0,0.0,0.0,0.0,0.0,0.0,0.0,0.0,0.0,0.0,0.0,0.0,0.0,0.0,0.0,0.0,0.0,0.0,0.0,0.0,0.0,0.0,0.0,0.0,0.0,0.0,0.0,0.0,0.0,0.0,0.0,0.0,0.0,0.0,0.0,0.0,0.0,0.0,0.0,0.0,0.0,0.0,0.0,0.0,0.0,0.0,0.0,0.0,0.0,0.0,0.0,0.0,0.0,0.0,0.0,6.7877,6.8606,6.9235,6.9765,6.9798,6.9798,6.9798,6.9268,0.0,0.0,0.0,0.0,0.0,0.0,0.0,0.0,0.0,0.0,0.0,0.0,0.0,0.0,0.0,0.0,0.0,0.0,0.0,0.0,0.0,0.0,0.0,0.0,0.0,0.0,0.0,6.2385,0.0,0.0,0.0,0.0,0.0,0.0,0.0,0.0,0.0,0.0,0.0,0.0,0.0,0.0,6.4641,6.6419,6.622,6.6409,0.0,0.0,6.8334,6.886,6.863,6.8137,0.0,0.0,0.0,0.0,0.0,0.0,0.0,0.0,0.0,0.0,0.0,0.0,0.0,0.0,0.0,0.0,0.0,0.0,0.0,0.0,0.0,0.0,0.0,0.0,0.0,0.0,0.0,0.0,0.0,0.0,0.0,0.0,0.0,0.0,0.0,0.0,0.0,0.0,0.0,0.0,0.0,0.0,0.0,0.0,0.0,0.0,0.0,0.0,0.0,0.0,0.0,0.0,0.0,0.0,0.0,6.8606,6.9334,6.9732,6.9798,6.9798,6.9798,6.9798,6.9732,6.9368,0.0,0.0,0.0,0.0,0.0,0.0,0.0,0.0,0.0,0.0,0.0,0.0,0.0,0.0,0.0,0.0,0.0,0.0,0.0,0.0,0.0,0.0,0.0,0.0,0.0,0.0,0.0,0.0,0.0,0.0,0.0,0.0,0.0,0.0,0.0,0.0,0.0,0.0,0.0,0.0,0.0,6.5959,6.7937,6.7636,6.7565,0.0,0.0,6.8705,6.8771,6.9301,6.9467,6.8738,0.0,0.0,0.0,0.0,0.0,0.0,0.0,0.0,0.0,0.0,0.0,0.0,0.0,0.0,0.0,0.0,0.0,0.0,0.0,0.0,0.0,0.0,0.0,0.0,0.0,0.0,0.0,0.0,0.0,0.0,0.0,0.0,0.0,0.0,0.0,0.0,0.0,0.0,0.0,0.0,0.0,0.0,0.0,0.0,0.0,0.0,0.0,0.0,0.0,0.0,0.0,0.0,0.0,6.7976,6.8672,6.9864,7.0461,7.0494,7.0924,7.0958,7.0494,7.0494,6.9898,0.0,0.0,0.0,0.0,0.0,0.0,0.0,0.0,0.0,0.0,0.0,0.0,0.0,0.0,0.0,0.0,0.0,0.0,0.0,0.0,0.0,0.0,0.0,0.0,0.0,0.0,0.0,0.0,6.4862,6.5028,6.5028,0.0,0.0,0.0,0.0,0.0,0.0,0.0,0.0,0.0,0.0,6.7184,6.8756,6.855,0.0,0.0,6.9368,6.9368,6.9368,6.9235,6.9003,6.8738,6.8076,0.0,0.0,0.0,0.0,0.0,0.0,0.0,0.0,0.0,0.0,0.0,0.0,0.0,0.0,0.0,0.0,0.0,0.0,0.0,0.0,0.0,0.0,0.0,0.0,0.0,0.0,0.0,0.0,0.0,0.0,0.0,0.0,0.0,0.0,0.0,0.0,0.0,0.0,0.0,0.0,0.0,0.0,0.0,0.0,0.0,0.0,0.0,0.0,0.0,0.0,0.0,0.0,6.8407,6.9334,7.0394,7.0991,7.1223,7.172,7.1753,7.1256,7.1223,7.0626,0.0,0.0,0.0,0.0,0.0,0.0,0.0,0.0,0.0,0.0,0.0,0.0,0.0,0.0,0.0,0.0,0.0,0.0,0.0,0.0,0.0,0.0,0.0,0.0,0.0,0.0,0.0,0.0,6.5425,6.5425,6.5425,0.0,0.0,0.0,0.0,0.0,0.0,0.0,0.0,0.0,0.0,6.8126,6.9313,6.924,6.9202,6.9732,6.9798,6.9798,6.9798,6.9368,6.9003,6.9036,0.0,0.0,0.0,0.0,0.0,0.0,0.0,0.0,0.0,0.0,0.0,0.0,0.0,0.0,0.0,0.0,0.0,0.0,0.0,0.0,0.0,0.0,0.0,0.0,0.0,0.0,0.0,0.0,0.0,0.0,0.0,0.0,0.0,0.0,0.0,0.0,0.0,0.0,0.0,0.0,0.0,0.0,0.0,0.0,0.0,0.0,0.0,0.0,0.0,0.0,0.0,0.0,0.0,6.9368,7.0792,7.0891,7.1256,7.1951,7.2018,7.2051,7.1985,7.1985,7.162,7.0858,0.0,0.0,0.0,0.0,0.0,0.0,0.0,0.0,0.0,0.0,0.0,0.0,0.0,0.0,0.0,0.0,0.0,0.0,0.0,0.0,0.0,0.0,0.0,0.0,0.0,0.0,6.5459,6.5425,6.5425,0.0,0.0,0.0,0.0,0.0,0.0,0.0,0.0,0.0,0.0,6.8208,6.8937,6.9666,6.9765,6.9765,6.9798,6.9798,6.9798,6.9831,6.9798,6.9765,0.0,0.0,0.0,0.0,0.0,0.0,0.0,0.0,0.0,0.0,0.0,0.0,0.0,0.0,0.0,0.0,0.0,0.0,0.0,0.0,0.0,0.0,0.0,0.0,0.0,0.0,0.0,6.304,6.3272,0.0,0.0,0.0,0.0,0.0,0.0,0.0,0.0,0.0,0.0,0.0,6.7612,6.7612,0.0,0.0,0.0,0.0,0.0,0.0,0.0,0.0,0.0,0.0,0.0,0.0,6.9434,7.0858,7.1388,7.1985,7.2713,7.321,7.321,7.2746,7.2746,7.2382,7.1653,0.0,0.0,0.0,0.0,0.0,0.0,0.0,0.0,0.0,0.0,0.0,0.0,0.0,0.0,0.0,0.0,0.0,0.0,0.0,0.0,0.0,0.0,0.0,0.0,0.0,6.6684,0.0,0.0,0.0,0.0,0.0,0.0,0.0,0.0,0.0,0.0,0.0,6.7247,6.8208,6.897,6.95,6.9765,6.9798,6.9798,0.0,0.0,0.0,0.0,0.0,0.0,0.0,0.0,0.0,0.0,0.0,0.0,0.0,0.0,6.8666,6.7003,6.6081,6.5702,6.6147,0.0,0.0,0.0,0.0,0.0,0.0,0.0,0.0,0.0,0.0,0.0,0.0,0.0,0.0,0.0,0.0,6.4796,0.0,0.0,0.0,0.0,0.0,0.0,0.0,0.0,6.8374,6.8639,6.9136,6.9136,6.9136,0.0,6.9136,6.9169,0.0,0.0,0.0,0.0,0.0,0.0,0.0,0.0,7.0196,7.162,7.2382,7.3111,7.3873,7.4535,7.4701,7.4237,7.374,7.3243,7.278,7.1355,7.056,0.0,0.0,0.0,0.0,0.0,0.0,0.0,0.0,0.0,0.0,0.0,0.0,0.0,0.0,0.0,0.0,0.0,0.0,0.0,0.0,0.0,0.0,0.0,6.7413,0.0,0.0,0.0,0.0,0.0,0.0,0.0,0.0,0.0,6.6916,6.7546,6.8175,6.8639,6.9334,6.9898,7.0129,0.0,0.0,0.0,0.0,0.0,0.0,0.0,7.1521,7.2283,7.2382,7.2481,7.2713,7.2746,7.2746,7.2547,0.0,0.0,6.9875,6.9242,6.9156,6.9471,6.885,6.8191,6.79,6.7465,6.7166,0.0,0.0,0.0,0.0,0.0,0.0,0.0,0.0,6.7281,6.7546,0.0,6.7512,0.0,0.0,0.0,0.0,0.0,0.0,0.0,0.0,6.9864,7.0593,7.1918,7.1918,7.1985,7.2018,7.1918,7.1918,7.1819,6.9136,0.0,0.0,0.0,0.0,0.0,0.0,7.1653,7.3078,7.3807,7.4535,7.5264,7.596,7.6291,7.6225,7.4966,7.427,7.4204,7.2879,7.2117,7.2051,7.0693,0.0,0.0,0.0,0.0,0.0,0.0,0.0,0.0,0.0,0.0,0.0,0.0,0.0,0.0,0.0,0.0,0.0,0.0,0.0,0.0,6.7678,0.0,0.0,0.0,0.0,0.0,0.0,0.0,0.0,0.0,0.0,6.7844,6.8341,6.8738,6.8771,0.0,0.0,0.0,0.0,7.1189,7.1918,7.2051,7.2051,7.2117,7.215,7.2382,7.3111,0.0,0.0,7.4204,7.4303,7.437,7.4337,7.4933,7.4599,7.1945,7.1836,7.1988,7.1707,7.1907,7.1894,7.1187,7.0964,7.074,6.9202,0.0,0.0,0.0,0.0,6.7214,6.7314,6.7314,6.7546,6.7612,6.7612,6.7612,0.0,0.0,0.0,0.0,0.0,0.0,6.9964,7.1355,7.1388,7.1587,7.2018,7.2018,7.2018,7.2018,7.2018,7.2018,7.1951,7.1156,7.0759,7.0759,0.0,0.0,0.0,0.0,7.2415,7.3773,7.4072,7.4767,7.5993,7.6192,7.6291,7.6291,7.5894,7.5695,7.5695,7.4833,7.4105,7.3575,7.268,0.0,0.0,0.0,0.0,0.0,0.0,0.0,0.0,0.0,0.0,0.0,0.0,0.0,0.0,0.0,0.0,0.0,0.0,0.0,6.9136,6.8705,6.8374,0.0,0.0,0.0,0.0,0.0,0.0,0.0,0.0,0.0,7.0593,6.9997,6.9666,0.0,0.0,7.1455,7.1653,7.1686,7.1951,7.268,0.0,0.0,0.0,7.4337,7.4568,7.5297,7.5827,7.6424,7.7152,7.7285,7.7285,7.7285,7.745,7.7279,7.6611,7.5938,7.5456,7.5135,7.5254,7.5265,7.4847,7.4619,7.4391,7.0958,6.9368,6.9368,6.9368,6.9368,6.9368,6.9368,6.9368,6.9368,6.9368,6.9368,6.9368,6.9368,6.9368,6.9368,0.0,0.0,0.0,7.1322,7.2448,7.2448,7.2746,7.3276,7.331,7.3442,7.3707,7.3707,7.3707,7.3707,7.3707,7.3707,7.3641,0.0,0.0,7.2448,7.2713,7.3442,7.4568,7.5165,7.5894,7.6722,7.7053,7.7318,7.7616,7.7053,7.6755,7.6755,7.6059,7.5496,7.5032,7.4072,7.3111,0.0,0.0,0.0,0.0,0.0,0.0,0.0,0.0,0.0,0.0,0.0,6.6485,0.0,0.0,0.0,0.0,6.897,6.9864,7.0593,7.0262,0.0,0.0,0.0,0.0,0.0,0.0,0.0,7.056,7.0659,7.0991,7.1885,7.172,7.1488,7.1355,7.1951,7.2548,7.2813,0.0,7.3674,7.4668,7.48,7.5231,7.6357,7.6556,7.6788,7.7517,7.8246,7.8974,7.967,7.9802,7.9935,8.0167,8.0233,8.0233,8.0233,7.9991,7.9243,7.7894,7.7781,7.7788,7.7478,7.7133,7.6901,7.225,7.2183,7.2216,7.215,7.2018,7.2018,7.1985,7.2018,7.1985,7.2018,7.2018,7.2018,7.2018,7.2018,7.2051,0.0,0.0,7.225,7.268,7.3376,7.3343,7.4072,7.533,7.5363,7.5695,7.6291,7.6291,7.6291,7.6258,7.6357,7.639,7.6324,7.3807,7.2813,7.3376,7.4005,7.4701,7.543,7.6788,7.755,7.7682,7.8345,7.9007,7.967,7.8378,7.7649,7.7583,7.6954,7.6523,7.6357,7.5132,7.437,7.4204,0.0,0.0,0.0,0.0,0.0,0.0,0.0,0.0,0.0,0.0,0.0,0.0,0.0,0.0,0.0,7.0196,0.0,7.1951,7.2018,0.0,0.0,0.0,7.2084,7.2084,7.215,7.2183,7.225,0.0,0.0,7.2349,0.0,7.3939,7.2614,7.2978,7.3608,7.4303,7.4999,7.596,7.7285,7.7616,7.7914,7.8643,7.8842,7.9173,7.9935,8.0531,8.1194,8.1889,8.2055,8.2353,8.285,8.3049,8.3016,8.3049,8.3446,8.3134,8.0299,7.9964,7.9937,7.9574,7.9107,7.8903,7.4171,7.3707,7.427,7.3541,7.2018,7.2018,7.2018,7.2018,7.2018,7.2018,7.2018,7.2018,7.2018,7.2018,7.2614,7.3144,7.3674,7.4237,7.4867,7.5529,7.5562,7.5728,7.6059,7.6059,7.6159,7.6291,7.6291,7.6291,7.6324,7.6887,7.7152,7.7152,7.702,7.649,7.5595,7.5728,7.6159,7.692,7.7815,7.8776,7.9869,8.0067,8.0266,8.0432,8.0101,7.9637,7.9107,7.8941,7.8312,7.7219,7.6821,7.6159,7.5065,7.3972,0.0,0.0,0.0,0.0,0.0,0.0,0.0,0.0,0.0,6.8672,6.9235,0.0,7.0626,0.0,7.1521,7.1819,7.1985,7.2018,0.0,0.0,7.2515,7.2846,7.2846,7.331,7.3873,7.4436,7.4502,7.4701,7.5231,7.6059,7.6523,7.6159,7.5794,7.5827,7.6523,7.6788,7.7417,7.8842,7.9604,8.0167,8.0896,8.1525,8.2088,8.285,8.3115,8.348,8.4175,8.4341,8.4374,8.454,8.4573,8.4573,8.4606,8.4738,8.4672,8.3862,8.3333,8.2963,8.2639,8.2247,8.2005,7.5496,7.5165,7.5562,7.5032,7.3873,7.3243,7.2978,7.2978,7.2978,7.3144,7.3475,7.3773,7.3939,7.3939,7.4337,7.4767,7.5132,7.5562,7.5927,7.6291,7.6291,7.6655,7.7285,7.7285,7.7649,7.8246,7.8246,7.8279,7.8279,7.8676,7.8875,7.8875,7.9272,7.9074,7.8279,7.7947,7.8014,7.8411,7.9107,8.0034,8.1094,8.0863,8.0829,8.1161,8.0863,8.0498,8.0101,8.0101,7.9703,7.8908,7.8279,7.755,7.6755,7.5397,7.4469,0.0,0.0,0.0,0.0,0.0,0.0,0.0,0.0,0.0,0.0,0.0,7.2316,7.3376,7.3442,7.3575,7.3873,7.3906,7.3939,7.3939,7.4303,7.4535,7.4535,7.5198,7.5794,7.6192,7.6523,7.6854,7.7252,7.7947,7.8511,7.8842,7.8809,7.8776,7.8875,7.914,7.9902,8.1326,8.1923,8.2419,8.3148,8.3612,8.4142,8.4805,8.497,8.5302,8.6328,8.6527,8.6627,8.6958,8.7024,8.7024,8.7024,8.7024,8.7024,8.6905,8.6633,8.5659,8.4271,8.3649,8.3407,7.6689,7.6589,7.6689,7.6689,7.649,7.5231,7.4635,7.4436,7.4436,7.48,7.543,7.6059,7.6291,7.6291,7.6424,7.6457,7.6457,7.6655,7.6722,7.6755,7.6821,7.755,7.8776,7.8809,7.9471,8.0664,8.0796,8.0829,8.0829,8.1028,8.1094,8.1128,8.1194,8.126,8.1227,8.0631,8.0233,8.0067,8.073,8.1459,8.2188,8.1591,8.1558,8.2154,8.1591,8.1194,8.1128,8.1028,8.0929,8.0796,7.9537,7.8809,7.8742,7.692,7.5827,0.0,7.5132,0.0,0.0,0.0,0.0,0.0,0.0,0.0,0.0,7.3177,7.4204,7.543,7.5628,7.5927,7.6523,7.6589,7.6589,7.6589,7.6689,7.6722,7.6755,7.7384,7.7815,7.7848,7.8378,7.8809,7.8974,7.9571,8.0299,8.1028,8.1691,8.1956,8.1591,8.1757,8.2486,8.4076,8.444,8.4904,8.5533,8.5699,8.5931,8.6494,8.6627,8.7024,8.815,8.8382,8.8614,8.9177,8.921,8.9277,8.9409,8.9343,8.9343,8.921,8.89,8.793,8.5626,8.4674,8.4081,7.8643,7.8179,7.8742,7.8643,7.808,7.7815,7.702,7.5927,7.5894,7.5993,7.6125,7.6258,7.6291,7.6357,7.692,7.7185,7.7285,7.8444,7.9007,7.9007,7.9604,8.0001,8.0266,8.0266,8.0432,8.0697,8.1293,8.1591,8.1624,8.2784,8.338,8.3413,8.3976,8.4275,8.4275,0.0,0.0,0.0,8.3016,8.3745,8.444,8.4341,8.4341,8.4473,8.4341,0.0,8.3413,8.2784,8.2188,8.1591,8.073,0.0,0.0,0.0,0.0,0.0,0.0,0.0,0.0,0.0,0.0,0.0,7.745,7.6556,7.4867,7.586,7.6722,7.6987,7.755,7.7947,7.808,7.8113,7.8113,7.8113,7.8643,7.9007,7.9007,7.9637,8.0067,8.0067,8.02,8.0498,8.1128,8.1823,8.2552,8.3248,8.401,8.4639,8.5037,8.4208,8.4175,8.55,8.666,8.7687,8.8482,8.8482,8.8382,8.878,8.8813,8.8879,8.9177,8.9244,8.921,8.9475,8.9409,8.9442,8.9442,8.9409,8.9509,8.9442,8.932,8.8999,8.7824,8.732,8.6976,8.0697,0.0,8.0697,8.0498,0.0,7.9736,7.9173,7.8411,7.7715,7.7616,7.798,7.8312,7.8477,7.8477,7.8875,7.9041,7.9074,7.9802,8.0134,8.0167,8.0531,8.1094,8.179,8.179,8.2154,8.2883,8.3248,8.3413,8.348,8.4175,8.454,8.454,8.4904,8.5103,8.5136,8.5798,8.5633,8.454,8.4871,8.5434,8.613,8.5832,8.5633,8.5633,0.0,0.0,0.0,0.0,0.0,0.0,0.0,0.0,0.0,0.0,0.0,8.1227,8.0896,8.0697,8.0697,8.0697,8.0664,8.0697,8.0664,7.9769,7.7583,7.8113,7.8643,7.9007,7.9372,7.9736,8.0101,8.0134,8.0299,8.0664,8.1028,8.1227,8.1293,8.1889,8.232,8.2386,8.2651,8.3049,8.338,8.3745,8.4275,8.497,8.5699,8.6428,8.6991,8.6328,8.6163,8.7521,8.8316,8.8945,8.931,8.9409,8.9575,8.984,8.9972,9.0105,9.0436,9.0502,9.0502,9.0502,9.0469,9.0469,9.0469,9.0502,9.0469,9.0469,9.0502,9.0222,8.9563,8.8786,8.8043,8.2751,8.3248,8.2618,8.2386,8.232,8.1724,8.1459,8.1359,0.0,0.0,0.0,8.0432,8.0664,8.0664,8.0664,8.0664,8.0697,8.0962,8.1094,8.1094,8.1359,8.2121,8.3248,8.3281,8.3943,8.507,8.5235,8.5302,8.5302,8.5434,8.5567,8.5666,8.5666,8.5732,8.5931,8.7057,8.7422,8.6958,8.6825,8.7057,8.762,8.7057,8.6759,8.6726,8.6196,8.5865,8.5865,8.5633,8.55,8.5467,8.4672,8.4208,8.4175,8.3612,8.3314,8.3281,8.3281,8.3281,8.3314,8.3281,8.3281,8.3281,8.3281,8.2419,8.0366,8.0332,8.0631,8.1227,8.1393,8.1724,8.232,8.2386,8.2618,8.3215,8.3281,8.3281,8.3314,8.3811,8.4142,8.4275,8.4639,8.5202,8.5401,8.5467,8.5832,8.6627,8.7289,8.7919,8.8449,8.8217,8.8217,8.9244,8.9674,8.984,8.984,8.9873,9.0039,9.0602,9.0701,9.0933,9.1397,9.1562,9.1562,9.1463,9.1562,9.1529,9.1562,9.1629,9.1761,9.1794,9.1894,9.1834,9.1101,9.0026,8.8986,8.4705,8.4771,8.4672,8.4639,8.4639,8.454,8.4506,8.4241,8.1591,8.0465,8.0564,8.0631,8.0664,8.0664,8.0664,8.0664,8.0763,8.2022,8.2585,0.0,8.391,8.4606,8.4805,8.4805,8.4904,8.5136,8.5732,8.603,8.6097,8.666,8.7256,8.7786,8.7852,8.815,8.878,8.9012,8.9376,8.9873,8.9277,8.9012,8.9111,8.9012,8.8979,8.8979,8.8846,8.8813,8.878,8.762,8.6991,8.6958,8.5699,8.497,8.497,8.4871,8.4805,8.4805,8.4805,8.4805,8.4805,8.4805,8.4805,8.4771,8.4805,8.4142,8.2651,8.3016,8.3446,8.3546,8.401,8.4506,8.4639,8.4606,8.4672,8.4805,8.4838,8.4805,8.4871,8.5003,8.5103,8.5136,8.5037,8.5732,8.6759,8.6958,8.7455,8.8581,8.8846,8.9343,8.9939,9.0138,9.0138,9.0403,9.09,9.1231,9.1132,9.1264,9.1297,9.1397,9.1463,9.1562,9.1728,9.1761,9.1761,9.1629,9.1728,9.1695,9.1695,9.2126,9.2457,9.2556,9.2921,9.3063,9.2384,9.1959,9.1305,8.5931,8.6196,8.5865,8.5699,8.5666,8.5268,8.5103,8.5003,8.3678,8.3082,8.3082,8.3082,8.3082,8.3082,8.3082,8.3082,8.3115,8.3811,8.4109,8.4142,8.4805,8.5302,8.5666,8.5666,8.5898,8.6295,8.7024,8.7355,8.7422,8.8084,8.8581,8.8912,8.8912,8.9475,9.0502,9.0602,9.1165,9.2225,9.0801,9.0204,9.0569,9.0204,9.0006,9.0006,8.9641,8.9409,8.9409,8.878,8.8449,8.8449,8.7819,8.7455,8.7455,8.7455,8.7455,8.7455,8.7455,8.7455,8.7455,8.7455,8.7455,8.7455,8.7455,8.719,8.6494,8.5302,8.4606,8.4606,8.4937,8.5434,8.6196,8.6295,8.6593,8.7389,8.7455,8.7455,8.7455,8.7455,8.7455,8.7455,8.7422,8.772,8.8349,8.8415,8.8614,8.9376,8.9707,9.0304,9.1032,9.1463,9.1529,9.1231,9.1364,9.1529,9.1629,9.196,9.2126,9.2192,9.2523,9.2755,9.2788,9.2788,9.2755,9.2788,9.2755,9.2788,9.2755,9.3053,9.3252,9.3318,9.3484,9.3492,9.2974,9.2449,9.1822,8.7223,8.7687,8.7157,8.6892,8.6858,8.6328,8.6097,8.6063,8.5898,8.5931,8.5997,8.5434,8.5103,8.5103,8.5103,8.5103,8.5136,8.5268,8.5335,8.5368,8.5666,8.613,8.6627,8.6825,8.7223,8.7786,8.8482,8.8813,8.8879,8.9542,8.9972,9.0138,9.0171,9.0801,9.2059,9.1927,9.249,9.3616,9.2126,9.1529,9.2026,9.1529,9.1264,9.1231,9.0734,9.0403,9.0403,9.0237,9.0138,9.0138,8.984,8.9674,8.9641,8.9509,8.9409,8.9409,8.9409,8.9409,8.9409,8.9409,8.9409,8.9409,8.9409,8.9409,8.9244,8.7422,8.6063,8.6063,8.6196,8.6627,8.7521,8.7753,8.8217,8.9277,8.9409,8.9244,8.9376,8.9409,8.9409,8.9409,8.9409,8.9409,8.9608,8.9674,8.984,9.0237,9.0668,9.1264,9.1993,9.2589,9.2623,9.2291,9.2093,9.2159,9.2126,9.2556,9.2888,9.2921,9.3351,9.3583,9.3683,9.3749,9.3782,9.3683,9.3716,9.3683,9.3749,9.3948,9.4014,9.4047,9.4279,9.412,9.3467,9.2802,9.2139,8.9111,8.921,8.9078,8.9111,8.9012,8.8979,8.8912,8.8813,8.8283,8.8382,8.8614,8.6295,8.5202,8.5103,8.5202,8.5268,8.5302,8.5798,8.613,8.6328,8.7422,8.8051,8.8217,8.878,8.9144,8.9277,8.9939,9.0237,9.0237,9.0966,9.1695,9.2324,9.2391,9.2722,9.3418,9.2921,9.302,9.3782,9.3616,9.3517,9.3583,9.3517,9.3484,9.3484,9.3418,9.3384,9.3186,9.2722,9.2391,9.2291,9.1132,9.0436,9.0403,8.984,8.9442,8.9475,8.9442,8.9409,8.9442,8.9409,8.9475,8.9409,8.9475,8.9509,8.9509,8.921,8.9012,8.8979,8.8979,8.8912,8.921,8.9177,8.9277,8.9542,8.9575,8.9409,8.9509,8.9409,8.9409,8.9409,8.9707,8.9674,9.0469,9.0602,9.0999,9.2026,9.2225,9.2589,9.3219,9.355,9.3683,9.3583,9.3583,9.355,9.3517,9.3616,9.3683,9.3683,9.3749,9.3948,9.4047,9.4047,9.3848,9.4445,9.4179,9.4246,9.4279,9.4312,9.4875,9.5173,9.5308,9.5508,9.4812,9.4138,9.3404,8.9409,8.9409,8.9409,8.9409,8.9409,8.9409,8.9409,8.9376,8.9111,8.9144,8.9277,8.815,8.7654,8.7654,8.7654,8.7654,8.7687,8.7952,8.8316,8.8747,8.9376,8.984,9.0271,9.0536,9.0502,9.0171,9.0801,9.0933,9.0767,9.1662,9.2391,9.2722,9.3119,9.3716,9.4378,9.4146,9.4345,9.5074,9.5107,9.5107,9.5008,9.4246,9.3815,9.3815,9.3815,9.3815,9.3782,9.3484,9.3351,9.3318,9.2755,9.2457,9.2457,9.2159,9.1794,9.1364,9.0933,9.0701,9.0701,9.0701,9.0701,9.0701,9.0701,9.0701,9.0701,9.1099,9.1364,9.1198,9.0204,8.9575,9.0006,9.0072,9.0237,9.0602,9.0701,9.0701,9.0701,9.1099,9.1364,9.1364,9.1728,9.2059,9.2391,9.2457,9.2689,9.3252,9.3351,9.3517,9.3815,9.4146,9.4411,9.4511,9.4809,9.4643,9.4146,9.4213,9.4411,9.4544,9.4842,9.5074,9.514,9.5538,9.577,9.5703,9.5935,9.6167,9.6532,9.6532,9.683,9.6797,9.6498,9.6456,9.6185,9.5636,9.4895,9.0006,9.0006,9.0006,9.0006,9.0006,9.0006,9.0006,8.9972,8.9807,8.984,8.9972,8.9807,8.984,8.9939,8.9608,8.9409,8.9409,8.9409,8.9707,9.0204,9.0403,9.0767,9.1264,9.1496,9.1297,9.1032,9.1761,9.2126,9.2093,9.302,9.3583,9.3649,9.3948,9.4478,9.5107,9.5041,9.5372,9.62,9.63,9.6399,9.6432,9.5571,9.4809,9.4445,9.4411,9.4378,9.4411,9.4411,9.4411,9.4378,9.4213,9.4113,9.408,9.3914,9.355,9.302,9.249,9.2192,9.2192,9.2192,9.2192,9.2192,9.2192,9.2192,9.2291,9.2689,9.2954,9.2854,9.1529,9.0966,9.1297,9.143,9.1662,9.2126,9.2192,9.2192,9.2225,9.2689,9.2954,9.3053,9.3219,9.3815,9.3782,9.3716,9.3749,9.4014,9.408,9.4345,9.4643,9.524,9.5604,9.577,9.63,9.6068,9.5008,9.5206,9.5505,9.5869,9.6333,9.6598,9.6598,9.7128,9.736,9.7028,9.7823,9.8022,9.7592,9.789,9.8155,9.8021,9.7616,9.7207,9.6873,9.6483,9.6193,9.1496,9.1463,9.1463,9.1397,9.1463,9.143,9.143,9.1297,9.0734,9.0834,9.1264,9.0734,9.0834,9.1297,9.0105,8.9442,8.9475,8.9542,8.9608,8.9807,9.0304,9.0569,9.0635,9.1231,9.1596,9.1761,9.2954,9.4179,9.5339,9.567,9.5869,9.577,9.5206,9.5273,9.5836,9.5438,9.567,9.6929,9.7062,9.736,9.7923,9.7923,9.7128,9.6035,9.5902,9.5902,9.5902,9.5902,9.5902,9.5902,9.524,9.4875,9.4809,9.4213,9.3815,9.3749,9.3683,9.3649,9.3616,9.3583,9.3583,9.3616,9.3517,9.3616,9.3484,9.3649,9.3749,9.3749,9.355,9.3484,9.3616,9.3384,9.3384,9.3517,9.3616,9.3583,9.3616,9.3616,9.3749,9.3749,9.3981,9.4246,9.4014,9.3815,9.4378,9.4842,9.4941,9.5339,9.6432,9.6896,9.7161,9.7592,9.7823,9.779,9.7128,9.6763,9.7161,9.7393,9.7426,9.7923,9.8055,9.8122,9.8122,9.8155,9.8387,9.8453,9.8254,9.8254,9.8387,9.8318,9.7809,9.7535,9.7488,9.6539,9.6452,9.1562,9.1562,9.1562,9.1562,9.1562,9.1562,9.1562,9.1562,9.1331,9.1331,9.1529,9.1297,9.1331,9.1562,9.1032,9.0801,9.0801,9.0801,9.1066,9.1496,9.1794,9.2159,9.2656,9.3351,9.3418,9.3219,9.4014,9.4511,9.4577,9.5041,9.5538,9.6035,9.6233,9.6664,9.7227,9.7128,9.7293,9.7724,9.779,9.7923,9.8188,9.8188,9.789,9.7426,9.7393,9.7393,9.7393,9.7393,9.7194,9.673,9.6432,9.6101,9.5604,9.4908,9.4511,9.4445,9.4047,9.3815,9.3815,9.3815,9.3815,9.3815,9.3815,9.3881,9.3881,9.4213,9.4511,9.4577,9.4975,9.5372,9.5505,9.4676,9.3815,9.3815,9.3815,9.3914,9.3914,9.4213,9.4511,9.4643,9.524,9.6068,9.63,9.6565,9.6697,9.6929,9.6995,9.7227,9.7558,9.779,9.7923,9.8088,9.8188,9.8254,9.8585,9.8022,9.789,9.8022,9.8122,9.8155,9.8221,9.8784,9.895,9.9115,9.9215,9.9546,9.9612,9.9612,9.9546,9.917,9.8723,9.8445,9.8165,9.7742,9.7587,9.1562,9.1562,9.1562,9.1728,9.1927,9.1927,9.2059,9.2258,9.2059,9.2059,9.2225,9.2059,9.2059,9.2258,9.2291,9.2291,9.2258,9.2059,9.2192,9.2689,9.2921,9.3318,9.3782,9.4312,9.4279,9.4014,9.4809,9.5074,9.5008,9.5604,9.62,9.673,9.7227,9.7691,9.8088,9.8188,9.8254,9.8453,9.8552,9.8618,9.8817,9.885,9.885,9.885,9.885,9.8618,9.8221,9.8188,9.7956,9.7525,9.7459,9.7227,9.673,9.6233,9.5968,9.5902,9.5505,9.5206,9.5206,9.5206,9.524,9.5206,9.524,9.5206,9.524,9.567,9.5902,9.6068,9.6366,9.6962,9.7028,9.6101,9.524,9.5206,9.5206,9.5206,9.524,9.567,9.5935,9.6134,9.6797,9.7592,9.8055,9.8122,9.8088,9.8188,9.8188,9.8221,9.8453,9.8519,9.8652,9.8817,9.895,9.9347,9.9745,9.9645,9.9182,9.9215,9.9149,9.895,9.9016,9.9546,9.991,10.0043,10.0374,10.0805,10.1004,10.1004,10.0727,10.0449,10.0202,9.992,9.9493,9.9062,9.8917,9.1629,9.1695,9.1596,9.2126,9.2656,9.2689,9.3119,9.3451,9.2954,9.302,9.3384,9.2987,9.302,9.355,9.355,9.3683,9.3484,9.3053,9.2788,9.2854,9.3418,9.3716,9.3815,9.3948,9.4146,9.4213,9.5372,9.6366,9.6962,9.7525,9.7923,9.8088,9.8122,9.8254,9.8254,9.842,9.8652,9.9149,9.9347,9.9645,10.0242,10.0308,10.0308,10.0341,10.0341,9.9745,9.8486,9.8353,9.832,9.8221,9.8188,9.8188,9.8022,9.7923,9.8055,9.789,9.7989,9.8022,9.7989,9.7857,9.7691,9.7691,9.7956,9.7691,9.7625,9.7757,9.7823,9.779,9.789,9.8088,9.8122,9.7956,9.779,9.8088,9.7658,9.7658,9.7823,9.8055,9.8155,9.8022,9.8155,9.8188,9.8221,9.842,9.8552,9.8618,9.8618,9.8883,9.948,9.9679,9.9745,10.0142,10.0341,10.0606,10.1037,10.1335,10.0904,10.0573,10.0474,10.0341,10.044,10.0838,10.1037,10.1202,10.1401,10.1832,10.1832,10.1832,10.1652,10.1437,10.1352,10.089,10.0294,9.976,9.9922,9.3086,9.3086,9.3119,9.3219,9.3451,9.3451,9.3616,9.3782,9.3517,9.3583,9.3716,9.355,9.3583,9.3749,9.3815,9.3815,9.3815,9.4014,9.3948,9.3583,9.3716,9.3848,9.3914,9.4312,9.5074,9.6001,9.6532,9.7128,9.7757,9.8088,9.8387,9.8817,9.895,9.9182,9.9612,9.9645,9.9811,10.001,10.0507,10.0904,10.1103,10.1567,10.1832,10.1832,10.1832,10.1567,10.1136,10.0209,9.9447,9.8983,9.895,9.8718,9.8287,9.8188,9.8188,9.8188,9.8188,9.8188,9.8188,9.8221,9.8254,9.8188,9.8221,9.8188,9.8188,9.8221,9.8221,9.8221,9.8188,9.832,9.8817,9.8917,9.8817,9.8254,9.8188,9.8287,9.8387,9.832,9.842,9.885,9.895,9.9115,9.9513,9.9645,9.9811,10.0242,10.0308,10.0573,10.1202,10.1269,10.1534,10.1799,10.1865,10.1732,10.2031,10.2196,10.2031,10.1732,10.1633,10.1368,10.1567,10.1865,10.2097,10.2362,10.2561,10.266,10.266,10.2553,10.237,10.1954,10.1603,10.1138,10.0523,10.0506,10.0553,9.3815,9.3815,9.3815,9.3981,9.4179,9.4213,9.4378,9.4544,9.4312,9.4345,9.4544,9.4312,9.4378,9.4577,9.461,9.461,9.4676,9.5107,9.5074,9.4676,9.461,9.461,9.471,9.5372,9.63,9.736,9.779,9.8122,9.8585,9.885,9.9215,9.9612,9.9944,10.0275,10.0739,10.1004,10.1136,10.1202,10.16,10.1832,10.1931,10.2296,10.2527,10.2527,10.2527,10.2527,10.2461,10.16,10.0805,10.0175,9.9844,9.9414,9.8983,9.8983,9.8983,9.8983,9.8983,9.8983,9.895,9.9049,9.8983,9.8983,9.8983,9.8983,9.8983,9.8983,9.8983,9.8983,9.9281,9.9579,10.001,10.0374,10.0209,9.9844,9.9347,9.9149,9.9314,9.9645,9.9977,10.0474,10.054,10.0705,10.1004,10.1136,10.1302,10.1732,10.1832,10.1898,10.2395,10.2461,10.2561,10.2561,10.2362,10.2461,10.2826,10.2958,10.3057,10.2892,10.2726,10.2362,10.2229,10.2627,10.2958,10.3356,10.3654,10.3687,10.3687,10.3337,10.3195,10.2469,10.1904,10.1727,10.1595,10.1382,10.1363,9.3948,9.3914,9.3914,9.4378,9.4941,9.4975,9.5273,9.5736,9.5273,9.5306,9.5637,9.5206,9.5306,9.5836,9.577,9.5803,9.6068,9.6035,9.6134,9.6101,9.6134,9.6134,9.6233,9.673,9.7459,9.8221,9.885,9.9215,9.9347,9.9944,10.0374,10.044,10.1037,10.1434,10.1567,10.2163,10.2362,10.2296,10.2494,10.2594,10.2594,10.2726,10.2759,10.2792,10.2826,10.2826,10.2826,10.2594,10.2163,10.1467,10.0838,10.054,10.044,10.044,10.044,10.044,10.044,10.044,10.044,10.044,10.044,10.044,10.044,10.044,10.044,10.044,10.044,10.0474,10.0937,10.1335,10.1501,10.1865,10.2163,10.2262,10.1103,10.0772,10.1368,10.1931,10.1997,10.2196,10.2461,10.2461,10.2296,10.2329,10.2395,10.2561,10.2594,10.266,10.2859,10.3024,10.2759,10.2826,10.3057,10.3223,10.3621,10.3687,10.3753,10.372,10.3621,10.3356,10.3057,10.3422,10.3687,10.4151,10.4383,10.4482,10.4515,10.3998,10.3678,10.3145,10.2804,10.2719,10.2504,10.2128,10.1881,9.5438,9.5438,9.5438,9.5538,9.5703,9.5703,9.5803,9.5968,9.5803,9.5836,9.5968,9.5836,9.5869,9.6001,9.6068,9.63,9.6697,9.6797,9.7128,9.7558,9.7592,9.7592,9.7592,9.779,9.8287,9.895,9.9281,9.9546,10.0076,10.0772,10.1103,10.1136,10.1865,10.2229,10.2296,10.2494,10.2527,10.2594,10.3091,10.3289,10.3389,10.3819,10.4118,10.4118,10.4084,10.4084,10.4018,10.3588,10.2958,10.2296,10.2064,10.1931,10.1865,10.1832,10.1799,10.1799,10.1865,10.1898,10.1898,10.1865,10.1898,10.1931,10.1799,10.1931,10.1931,10.1931,10.1931,10.1964,10.2163,10.2229,10.2262,10.2461,10.2561,10.2494,10.2163,10.1997,10.2196,10.2395,10.2527,10.2527,10.2594,10.2627,10.266,10.266,10.2826,10.319,10.3356,10.3455,10.3687,10.3886,10.3753,10.4018,10.4217,10.425,10.4349,10.4383,10.4416,10.4449,10.4383,10.4316,10.4118,10.4217,10.4416,10.4614,10.4548,10.4614,10.4505,10.4262,10.3928,10.349,10.3048,10.2784,10.2484,10.2205,10.2205,9.6001,9.6035,9.6333,9.6266,9.6068,9.6333,9.63,9.6134,9.6366,9.6465,9.6532,9.6797,9.6896,9.6929,9.6929,9.7128,9.7525,9.7558,9.7757,9.8122,9.8453,9.8585,9.8618,9.8652,9.9016,9.9712,10.0043,10.0407,10.0871,10.1534,10.1832,10.1997,10.2594,10.2958,10.3024,10.3289,10.3422,10.3521,10.3853,10.4051,10.4084,10.4449,10.4614,10.4681,10.4681,10.4681,10.4614,10.4283,10.372,10.3057,10.2693,10.2527,10.2527,10.2527,10.2527,10.2527,10.2527,10.2494,10.2527,10.2527,10.2527,10.2494,10.2527,10.2527,10.2494,10.2527,10.2527,10.2494,10.2759,10.2958,10.3024,10.3223,10.3422,10.3488,10.3422,10.3289,10.3024,10.3289,10.3389,10.3422,10.3422,10.3422,10.3422,10.3389,10.3621,10.3919,10.4051,10.425,10.4482,10.4648,10.4681,10.4681,10.4681,10.4614,10.4548,10.4581,10.4581,10.4648,10.4681,10.4681,10.4681,10.4681,10.4681,10.4681,10.4681,10.4681,10.4538,10.425,10.3783,10.3344,10.3048,10.2634,10.2517,10.2366,10.2366,9.6134,9.6167,9.6929,9.683,9.6465,9.6929,9.6896,9.6498,9.6962,9.7227,9.7327,9.789,9.7956,9.8188,9.789,9.8188,9.8287,9.8287,9.8387,9.8751,9.9215,9.9612,9.9612,9.9612,9.991,10.0474,10.1169,10.1467,10.1699,10.2262,10.2594,10.2792,10.3356,10.3654,10.3786,10.4283,10.4614,10.4515,10.4515,10.4548,10.4548,10.4648,10.4681,10.4681,10.4681,10.4681,10.4681,10.4581,10.4316,10.372,10.3091,10.2925,10.2859,10.2792,10.2826,10.2892,10.2991,10.2958,10.2826,10.2958,10.2859,10.2925,10.2892,10.2759,10.2925,10.2991,10.2991,10.3024,10.3356,10.3654,10.3753,10.425,10.4449,10.4416,10.4548,10.4316,10.4018,10.4283,10.4681,10.4681,10.4648,10.4681,10.4681,10.4681,10.4648,10.4316,10.4449,10.4515,10.4648,10.4681,10.4681,10.4681,10.4681,10.4681,10.4681,10.4681,10.4681,10.4681,10.4681,10.4681,10.4681,10.4681,10.4681,10.4681,10.4681,10.4681,10.4538,10.4106,10.3637,10.3196,10.29,10.2634,10.2366,10.2366,10.2366,9.6863,9.6929,9.7625,9.7857,9.7757,9.7857,9.7857,9.7691,9.7857,9.7956,9.7989,9.8122,9.8221,9.8254,9.8353,9.8486,9.9016,9.9115,9.9314,9.9944,10.0639,10.0937,10.097,10.0937,10.1037,10.1368,10.1931,10.2262,10.2461,10.2958,10.3356,10.3455,10.3985,10.4449,10.4482,10.4548,10.4681,10.4681,10.4681,10.4681,10.4681,10.4681,10.4681,10.4681,10.4681,10.4681,10.4681,10.4681,10.4614,10.4449,10.4283,10.4051,10.4051,10.4118,10.4084,10.4084,10.4118,10.4151,10.4184,10.4118,10.4184,10.4084,10.4018,10.4217,10.4217,10.4151,10.4151,10.4217,10.4349,10.4383,10.4383,10.4548,10.4681,10.4681,10.4681,10.4648,10.4515,10.4581,10.4681,10.4681,10.4681,10.4681,10.4681,10.4681,10.4681,10.4681,10.4681,10.4681,10.4681,10.4681,10.4681,10.4681,10.4681,10.4681,10.4681,10.4681,10.4681,10.4681,10.4681,10.4681,10.4681,10.4681,10.4681,10.4681,10.4681,10.4538,10.4394,10.3928,10.349,10.3048,10.2784,10.2484,10.2366,10.2366,10.2366,9.7128,9.7227,9.8254,9.8486,9.8254,9.8519,9.8486,9.8287,9.8552,9.8685,9.8751,9.8983,9.9182,9.9182,9.9182,9.9447,9.9778,10.0142,10.0474,10.0937,10.1567,10.1898,10.2064,10.2229,10.2329,10.213,10.2693,10.2991,10.3223,10.3687,10.4118,10.4118,10.4515,10.4614,10.4681,10.4681,10.4681,10.4681,10.4681,10.4681,10.4681,10.4681,10.4681,10.4681,10.4681,10.4681,10.4681,10.4681,10.4681,10.4681,10.4681,10.4681,10.4681,10.4681,10.4681,10.4681,10.4681,10.4681,10.4681,10.4681,10.4648,10.4681,10.4681,10.4681,10.4681,10.4681,10.4681,10.4681,10.4681,10.4681,10.4681,10.4681,10.4681,10.4681,10.4681,10.4681,10.4681,10.4681,10.4681,10.4681,10.4681,10.4681,10.4681,10.4681,10.4681,10.4681,10.4681,10.4681,10.4681,10.4681,10.4681,10.4681,10.4681,10.4681,10.4681,10.4681,10.4681,10.4681,10.4681,10.4681,10.4681,10.4681,10.4681,10.4681,10.4681,10.4538,10.425,10.3783,10.3344,10.3048,10.2784,10.2484,10.2366,10.2334,10.2334,9.7293,9.7393,9.8817,9.9082,9.8652,9.9149,9.9115,9.8718,9.9149,9.9447,9.9513,10.0076,10.0109,10.0275,10.0374,10.0474,10.0805,10.1169,10.1534,10.1666,10.2329,10.2627,10.2826,10.3223,10.3422,10.2958,10.3455,10.3753,10.3919,10.4316,10.4548,10.4648,10.4681,10.4681,10.4681,10.4681,10.4681,10.4681,10.4681,10.4681,10.4681,10.4681,10.4681,10.4681,10.4681,10.4681,10.4681,10.4681,10.4681,10.4681,10.4681,10.4681,10.4681,10.4681,10.4681,10.4681,10.4681,10.4681,10.4681,10.4681,10.4681,10.4681,10.4681,10.4681,10.4681,10.4681,10.4681,10.4681,10.4681,10.4681,10.4681,10.4681,10.4681,10.4681,10.4681,10.4681,10.4681,10.4681,10.4681,10.4681,10.4681,10.4681,10.4681,10.4681,10.4681,10.4681,10.4681,10.4681,10.4681,10.4681,10.4681,10.4681,10.4681,10.4681,10.4681,10.4681,10.4681,10.4681,10.4681,10.4681,10.4681,10.4681,10.4681,10.4681,10.4538,10.4394,10.4073,10.349,10.3196,10.29,10.2634,10.2517,10.2334,10.2269,10.2205,9.7989,9.8122,9.9546,10.0043,9.9977,10.0109,10.0043,9.9977,10.001,10.0142,10.0175,10.0275,10.0374,10.0507,10.1004,10.1534,10.1931,10.2229,10.2329,10.2461,10.3057,10.3389,10.3554,10.4018,10.4316,10.4383,10.4416,10.4416,10.4449,10.4648,10.4681,10.4681,10.4681,10.4681,10.4681,10.4681,10.4681,10.4681,10.4681,10.4681,10.4681,10.4681,10.4681,10.4681,10.4681,10.4681,10.4681,10.4681,10.4681,10.4681,10.4681,10.4681,10.4681,10.4681,10.4681,10.4681,10.4681,10.4681,10.4681,10.4681,10.4681,10.4681,10.4681,10.4681,10.4681,10.4681,10.4681,10.4681,10.4681,10.4681,10.4681,10.4681,10.4681,10.4681,10.4681,10.4681,10.4681,10.4681,10.4681,10.4681,10.4681,10.4681,10.4681,10.4681,10.4681,10.4681,10.4681,10.4681,10.4681,10.4681,10.4681,10.4681,10.4681,10.4681,10.4681,10.4681,10.4681,10.4681,10.4681,10.4681,10.4681,10.4681,10.4681,10.4538,10.4394,10.4073,10.3637,10.3344,10.2933,10.2634,10.2517,10.2366,10.2269,10.214,10.1686,9.8188,9.832,9.9712,10.0308,10.0308,10.0308,10.0308,10.0308,10.0308,10.054,10.0805,10.0904,10.1136,10.1467,10.1799,10.2229,10.2527,10.2958,10.3057,10.3223,10.3786,10.4151,10.4151,10.4548,10.4648,10.4681,10.4681,10.4681,10.4681,10.4681,10.4681,10.4681,10.4681,10.4681,10.4681,10.4681,10.4681,10.4681,10.4681,10.4681,10.4681,10.4681,10.4681,10.4681,10.4681,10.4681,10.4681,10.4681,10.4681,10.4681,10.4681,10.4681,10.4681,10.4681,10.4681,10.4681,10.4681,10.4681,10.4681,10.4681,10.4681,10.4681,10.4681,10.4681,10.4681,10.4681,10.4681,10.4681,10.4681,10.4681,10.4681,10.4681,10.4681,10.4681,10.4681,10.4681,10.4681,10.4681,10.4681,10.4681,10.4681,10.4681,10.4681,10.4681,10.4681,10.4681,10.4681,10.4681,10.4681,10.4681,10.4681,10.4681,10.4681,10.4681,10.4681,10.4681,10.4681,10.4681,10.4681,10.4681,10.4681,10.4681,10.4538,10.4394,10.4073,10.3783,10.3344,10.3048,10.2784,10.2517,10.2517,10.2334,10.2172,10.1913,10.1395,9.8387,9.8486,9.9778,10.0308,10.0308,10.0308,10.0308,10.0341,10.0474,10.0871,10.1368,10.16,10.1964,10.2428,10.266,10.2826,10.2958,10.3621,10.3786,10.3919,10.4316,10.4648,10.4681,10.4681,10.4681,10.4681,10.4681,10.4681,10.4681,10.4681,10.4681,10.4681,10.4681,10.4681,10.4681,10.4681,10.4681,10.4681,10.4681,10.4681,10.4681,10.4681,10.4681,10.4681,10.4681,10.4681,10.4681,10.4681,10.4681,10.4681,10.4681,10.4681,10.4681,10.4681,10.4681,10.4681,10.4681,10.4681,10.4681,10.4681,10.4681,10.4681,10.4681,10.4681,10.4681,10.4681,10.4681,10.4681,10.4681,10.4681,10.4681,10.4681,10.4681,10.4681,10.4681,10.4681,10.4681,10.4681,10.4681,10.4681,10.4681,10.4681,10.4681,10.4681,10.4681,10.4681,10.4681,10.4681,10.4681,10.4681,10.4681,10.4681,10.4681,10.4681,10.4681,10.4681,10.4681,10.4681,10.4681,10.4681,10.4681,10.4538,10.4394,10.4073,10.3783,10.349,10.3048,10.2751,10.2634,10.2517,10.2366,10.2205,10.1881,10.1395,10.0844,9.9149,9.9215,9.9977,10.0308,10.0308,10.0341,10.0341,10.044,10.1037,10.1302,10.1633,10.2097,10.2461,10.2759,10.3256,10.3786,10.4217,10.4349,10.4416,10.4449,10.4614,10.4681,10.4681,10.4681,10.4681,10.4681,10.4681,10.4681,10.4681,10.4681,10.4681,10.4681,10.4681,10.4681,10.4681,10.4681,10.4681,10.4681,10.4681,10.4681,10.4681,10.4681,10.4681,10.4681,10.4681,10.4681,10.4681,10.4681,10.4681,10.4681,10.4681,10.4681,10.4681,10.4681,10.4681,10.4681,10.4681,10.4681,10.4681,10.4681,10.4681,10.4681,10.4681,10.4681,10.4681,10.4681,10.4681,10.4681,10.4681,10.4681,10.4681,10.4681,10.4681,10.4681,10.4681,10.4681,10.4681,10.4681,10.4681,10.4681,10.4681,10.4681,10.4681,10.4681,10.4681,10.4681,10.4681,10.4681,10.4681,10.4681,10.4681,10.4681,10.4681,10.4681,10.4681,10.4681,10.4681,10.4681,10.4681,10.4681,10.4681,10.4538,10.4073,10.3783,10.349,10.3098,10.2672,10.2407,10.242,10.2237,10.2075,10.1784,10.146,10.0877,10.0229,9.9612,9.9347,10.001,10.0308,10.0374,10.0739,10.0937,10.1103,10.1732,10.2296,10.2627,10.2958,10.3322,10.3687,10.4118,10.4349,10.4648,10.4681,10.4681,10.4681,10.4681,10.4681,10.4681,10.4681,10.4681,10.4681,10.4681,10.4681,10.4681,10.4681,10.4681,10.4681,10.4681,10.4681,10.4681,10.4681,10.4681,10.4681,10.4681,10.4681,10.4681,10.4681,10.4681,10.4681,10.4681,10.4681,10.4681,10.4681,10.4681,10.4681,10.4681,10.4681,10.4681,10.4681,10.4681,10.4681,10.4681,10.4681,10.4681,10.4681,10.4681,10.4681,10.4681,10.4681,10.4681,10.4681,10.4681,10.4681,10.4681,10.4681,10.4681,10.4681,10.4681,10.4681,10.4681,10.4681,10.4681,10.4681,10.4681,10.4681,10.4681,10.4681,10.4681,10.4681,10.4681,10.4681,10.4681,10.4681,10.4681,10.4681,10.4681,10.4681,10.4681,10.4681,10.4681,10.4681,10.4681,10.4681,10.4681,10.4681,10.4538,10.4394,10.3928,10.349,10.3163,10.2737,10.2212,10.2095,10.229,10.1978,10.1751,10.1298,10.0812,10.0132,9.9484,10.0547,10.0149,10.0374,10.0573,10.0672,10.1368,10.1699,10.1799,10.2461,10.3091,10.3521,10.3753,10.4184,10.4548,10.4614,10.4648,10.4681,10.4681,10.4681,10.4681,10.4681,10.4681,10.4681,10.4681,10.4681,10.4681,10.4681,10.4681,10.4681,10.4681,10.4681,10.4681,10.4681,10.4681,10.4681,10.4681,10.4681,10.4681,10.4681,10.4681,10.4681,10.4681,10.4681,10.4681,10.4681,10.4681,10.4681,10.4681,10.4681,10.4681,10.4681,10.4681,10.4681,10.4681,10.4681,10.4681,10.4681,10.4681,10.4681,10.4681,10.4681,10.4681,10.4681,10.4681,10.4681,10.4681,10.4681,10.4681,10.4681,10.4681,10.4681,10.4681,10.4681,10.4681,10.4681,10.4681,10.4681,10.4681,10.4681,10.4681,10.4681,10.4681,10.4681,10.4681,10.4681,10.4681,10.4681,10.4681,10.4681,10.4681,10.4681,10.4681,10.4681,10.4681,10.4681,10.4681,10.4681,10.4681,10.4681,10.4538,10.4394,10.4106,10.3637,10.3344,10.2918,10.2361,10.1706,10.1933,10.1913,10.1395,10.0942,10.0618,10.01,9.942,9.8934,10.2257,10.2223,10.161,10.1368,10.1401,10.213,10.2428,10.2494,10.3223,10.3554,10.3786,10.425,10.4581,10.4681,10.4681,10.4681,10.4681,10.4681,10.4681,10.4681,10.4681,10.4681,10.4681,10.4681,10.4681,10.4681,10.4681,10.4681,10.4681,10.4681,10.4681,10.4681,10.4681,10.4681,10.4681,10.4681,10.4681,10.4681,10.4681,10.4681,10.4681,10.4681,10.4681,10.4681,10.4681,10.4681,10.4681,10.4681,10.4681,10.4681,10.4681,10.4681,10.4681,10.4681,10.4681,10.4681,10.4681,10.4681,10.4681,10.4681,10.4681,10.4681,10.4681,10.4681,10.4681,10.4681,10.4681,10.4681,10.4681,10.4681,10.4681,10.4681,10.4681,10.4681,10.4681,10.4681,10.4681,10.4681,10.4681,10.4681,10.4681,10.4681,10.4681,10.4681,10.4681,10.4681,10.4681,10.4681,10.4681,10.4681,10.4681,10.4681,10.4681,10.4681,10.4681,10.4681,10.4681,10.4681,10.4681,10.4538,10.425,10.3928,10.3261,10.2804,10.2166,10.179,10.1201,10.1071,10.0844,10.0488,10.0164,9.9905,9.9484,9.8869,9.8513,10.2759,10.3195,10.3391,10.3049,10.2407,10.2999,10.319,10.3289,10.3952,10.425,10.4283,10.4548,10.4681,10.4681,10.4681,10.4681,10.4681,10.4681,10.4681,10.4681,10.4681,10.4681,10.4681,10.4681,10.4681,10.4681,10.4681,10.4681,10.4681,10.4681,10.4681,10.4681,10.4681,10.4681,10.4681,10.4681,10.4681,10.4681,10.4681,10.4681,10.4681,10.4681,10.4681,10.4681,10.4681,10.4681,10.4681,10.4681,10.4681,10.4681,10.4681,10.4681,10.4681,10.4681,10.4681,10.4681,10.4681,10.4681,10.4681,10.4681,10.4681,10.4681,10.4681,10.4681,10.4681,10.4681,10.4681,10.4681,10.4681,10.4681,10.4681,10.4681,10.4681,10.4681,10.4681,10.4681,10.4681,10.4681,10.4681,10.4681,10.4681,10.4681,10.4681,10.4681,10.4681,10.4681,10.4681,10.4681,10.4681,10.4681,10.4681,10.478,10.4813,10.4846,10.4846,10.478,10.4714,10.4714,10.4747,10.4262,10.3875,10.3224,10.2737,10.2168,10.14,10.0798,10.0294,10.0067,9.9841,9.9646,9.9452,9.929,9.8804,9.8351,9.8221,10.3733,10.427,10.5008,10.4497,10.3549,10.3902,10.406,10.3985,10.4416,10.4681,10.4681,10.4681,10.4681,10.4681,10.4681,10.4681,10.4681,10.4681,10.4681,10.4681,10.4681,10.4681,10.4681,10.4681,10.4681,10.4681,10.4681,10.4681,10.4681,10.4681,10.4681,10.4681,10.4681,10.4681,10.4681,10.4681,10.4681,10.4681,10.4681,10.4681,10.4681,10.4681,10.4681,10.4681,10.4681,10.4681,10.4681,10.4681,10.4681,10.4681,10.4681,10.4681,10.4681,10.4681,10.4681,10.4681,10.4681,10.4681,10.4681,10.4681,10.4681,10.4681,10.4681,10.4681,10.4681,10.4681,10.4681,10.4681,10.4681,10.4681,10.4681,10.4681,10.4681,10.4681,10.4681,10.4681,10.4681,10.4681,10.4681,10.4681,10.4681,10.4681,10.4714,10.4714,10.478,10.4747,10.4681,10.4681,10.4681,10.4681,10.4681,10.4813,10.4979,10.5012,10.5045,10.5178,10.5244,10.4979,10.4703,10.3887,10.3336,10.2685,10.1889,10.1255,10.0571,9.9808,9.9484,9.9322,9.9128,9.8869,9.8772,9.8739,9.8545,9.8189,9.8157,10.575,10.5751,10.619,10.5509,10.4387,10.4948,10.504,10.469,10.4648,10.4681,10.4681,10.4681,10.4681,10.4681,10.4681,10.4681,10.4681,10.4681,10.4681,10.4681,10.4681,10.4681,10.4681,10.4681,10.4681,10.4681,10.4681,10.4681,10.4681,10.4681,10.4681,10.4681,10.4681,10.4681,10.4681,10.4681,10.4681,10.4681,10.4681,10.4681,10.4681,10.4681,10.4681,10.4681,10.4681,10.4681,10.4681,10.4681,10.4681,10.4681,10.4681,10.4681,10.4681,10.4681,10.4681,10.4681,10.4681,10.4681,10.4681,10.4681,10.4681,10.4681,10.4681,10.4681,10.4681,10.4681,10.4681,10.4681,10.4681,10.4681,10.4681,10.4681,10.4681,10.4681,10.4681,10.4681,10.4681,10.4681,10.4681,10.4681,10.4681,10.4714,10.4747,10.478,10.4846,10.4846,10.4747,10.4747,10.4846,10.5111,10.5277,10.5376,10.5575,10.5674,10.5774,10.5774,10.5708,10.5266,10.4758,10.4073,10.3027,10.2035,10.1239,10.0474,9.9711,9.9096,9.8837,9.8642,9.8545,9.848,9.8318,9.8254,9.8124,9.8092,9.8092,10.6088,10.6528,10.6664,10.6392,10.5643,10.5288,10.514,10.4998,10.4856,10.4681,10.4681,10.4681,10.4681,10.4681,10.4681,10.4681,10.4681,10.4681,10.4681,10.4681,10.4681,10.4681,10.4681,10.4681,10.4681,10.4681,10.4681,10.4681,10.4681,10.4681,10.4681,10.4681,10.4681,10.4681,10.4681,10.4681,10.4681,10.4681,10.4681,10.4681,10.4681,10.4681,10.4681,10.4681,10.4681,10.4681,10.4681,10.4681,10.4681,10.4681,10.4681,10.4681,10.4681,10.4681,10.4681,10.4681,10.4681,10.4681,10.4681,10.4681,10.4681,10.4681,10.4681,10.4681,10.4681,10.4681,10.4681,10.4681,10.4681,10.4681,10.4681,10.4681,10.4681,10.4681,10.4681,10.4681,10.4681,10.4681,10.4681,10.4681,10.4681,10.5144,10.531,10.5443,10.5509,10.5674,10.5674,10.5509,10.5542,10.6039,10.637,10.637,10.6436,10.6503,10.6503,10.6403,10.6138,10.5807,10.522,10.4454,10.3342,10.1791,10.0832,10.0247,9.9258,9.8448,9.8416,9.8351,9.8221,9.8124,9.8092,9.8092,9.8092,9.8092,9.8092,10.646,10.6866,10.69,10.6765,10.6527,10.5978,10.5561,10.5281,10.4856,10.4681,10.4681,10.4681,10.4681,10.4681,10.4681,10.4681,10.4681,10.4681,10.4681,10.4681,10.4681,10.4681,10.4681,10.4681,10.4681,10.4681,10.4681,10.4681,10.4681,10.4681,10.4681,10.4681,10.4681,10.4681,10.4681,10.4681,10.4681,10.4681,10.4681,10.4681,10.4681,10.4681,10.4681,10.4681,10.4681,10.4681,10.4681,10.4681,10.4681,10.4681,10.4681,10.4681,10.4681,10.4681,10.4681,10.4681,10.4681,10.4681,10.4681,10.4681,10.4681,10.4681,10.4681,10.4681,10.4681,10.4681,10.4681,10.4681,10.4681,10.4681,10.4681,10.4681,10.4747,10.4747,10.4813,10.4813,10.4879,10.4879,10.5144,10.5111,10.5376,10.5741,10.6039,10.6138,10.6271,10.6503,10.6701,10.6503,10.6304,10.6735,10.7132,10.7099,10.7165,10.7198,10.7099,10.69,10.6602,10.6238,10.5306,10.4341,10.3163,10.1548,10.08,10.0052,9.9258,9.8707,9.8286,9.8092,9.8092,9.8092,9.8092,9.8092,9.8092,9.8092,9.8092,10.69,10.69,10.69,10.69,10.6765,10.6391,10.584,10.5314,10.4856,10.4681,10.4681,10.4681,10.4681,10.4681,10.4681,10.4681,10.4681,10.4681,10.4681,10.4681,10.4681,10.4681,10.4681,10.4681,10.4681,10.4681,10.4681,10.4681,10.4681,10.4681,10.4681,10.4681,10.4681,10.4681,10.4681,10.4681,10.4681,10.4681,10.4681,10.4681,10.4681,10.4681,10.4681,10.4681,10.4681,10.4681,10.4681,10.4681,10.4681,10.4681,10.4681,10.4681,10.4681,10.4681,10.4681,10.4681,10.4681,10.4681,10.4681,10.4681,10.4681,10.4681,10.4681,10.4681,10.4681,10.4681,10.4681,10.4681,10.4681,10.4681,10.4681,10.478,10.4879,10.4946,10.5012,10.5078,10.5144,10.5343,10.5741,10.5973,10.6337,10.6668,10.6834,10.6966,10.7066,10.743,10.7629,10.7596,10.7397,10.7265,10.7596,10.7563,10.7662,10.7861,10.7695,10.7231,10.6556,10.6026,10.4699,10.3604,10.2314,10.1564,10.0913,10.0164,9.9517,9.8934,9.8351,9.8124,9.8092,9.8092,9.8124,9.8092,9.8092,9.8092,9.8092,10.69,10.69,10.69,10.69,10.6765,10.622,10.5667,10.5281,10.4823,10.4681,10.4681,10.4681,10.4681,10.4681,10.4681,10.4681,10.4681,10.4681,10.4681,10.4681,10.4681,10.4681,10.4681,10.4681,10.4681,10.4681,10.4681,10.4681,10.4681,10.4681,10.4681,10.4681,10.4681,10.4681,10.4681,10.4681,10.4681,10.4681,10.4681,10.4681,10.4681,10.4681,10.4681,10.4681,10.4681,10.4681,10.4681,10.4681,10.4681,10.4681,10.4681,10.4681,10.4681,10.4681,10.4681,10.4681,10.4681,10.4681,10.4681,10.4681,10.4681,10.4681,10.4681,10.4681,10.4681,10.4681,10.4681,10.4681,10.4813,10.4913,10.5078,10.5211,10.5343,10.5509,10.5641,10.5873,10.5973,10.6171,10.6536,10.6867,10.7231,10.7397,10.7596,10.7695,10.7828,10.8292,10.8523,10.8457,10.8391,10.8192,10.8126,10.8093,10.7894,10.7993,10.7728,10.7298,10.6556,10.5603,10.4308,10.3245,10.2657,10.1938,10.1155,10.0488,9.9873,9.9096,9.8254,9.8189,9.8318,9.8157,9.8124,9.8124,9.8092,9.8124,9.8124,10.69,10.69,10.69,10.69,10.6765,10.622,10.584,10.5421,10.4965,10.4681,10.4681,10.4681,10.4681,10.4681,10.4681,10.4681,10.4681,10.4681,10.4681,10.4681,10.4681,10.4681,10.4681,10.4681,10.4681,10.4681,10.4681,10.4681,10.4681,10.4681,10.4681,10.4681,10.4681,10.4681,10.4681,10.4681,10.4681,10.4681,10.4681,10.4681,10.4681,10.4681,10.4681,10.4648,10.4648,10.4614,10.4614,10.4614,10.4648,10.4681,10.4681,10.4681,10.4681,10.4681,10.4416,10.4416,10.4581,10.4648,10.4681,10.4681,10.4681,10.4681,10.4681,10.4681,10.4681,10.4681,10.4681,10.4714,10.4979,10.5211,10.5476,10.5708,10.5973,10.6238,10.6536,10.6834,10.7,10.7132,10.743,10.7728,10.796,10.8126,10.8258,10.8358,10.849,10.8755,10.8888,10.8888,10.8855,10.8788,10.8722,10.8722,10.8292,10.7993,10.7662,10.7165,10.6178,10.5405,10.4407,10.3442,10.2867,10.231,10.1706,10.0942,10.0326,9.9517,9.8739,9.861,9.861,9.848,9.8448,9.861,9.8513,9.8254,9.8221,10.69,10.69,10.69,10.69,10.69,10.6527,10.6116,10.5806,10.5107,10.4681,10.4681,10.4681,10.4681,10.4681,10.4681,10.4681,10.4681,10.4681,10.4681,10.4681,10.4681,10.4681,10.4681,10.4681,10.4681,10.4681,10.4681,10.4681,10.4681,10.4681,10.4681,10.4681,10.4681,10.4681,10.4681,10.4681,10.4681,10.4681,10.4581,10.4482,10.4614,10.4648,10.4614,10.4515,10.4449,10.4383,10.4416,10.4449,10.4515,10.4515,10.4449,10.4383,10.4316,10.4449,10.4084,10.4151,10.4383,10.4614,10.4681,10.4681,10.4681,10.4681,10.4681,10.4681,10.4681,10.4681,10.4681,10.5012,10.5343,10.5674,10.5973,10.6503,10.6867,10.7099,10.7364,10.7596,10.7728,10.7927,10.8192,10.8424,10.8557,10.8689,10.8722,10.8788,10.8755,10.9053,10.912,10.912,10.8987,10.8987,10.8954,10.8954,10.8457,10.7861,10.7397,10.6867,10.5782,10.4897,10.4063,10.3425,10.2784,10.2504,10.2107,10.1395,10.0682,10.01,9.9517,9.9355,9.916,9.8966,9.8999,9.9193,9.9063,9.8804,9.8772,10.69,10.69,10.69,10.69,10.69,10.6527,10.6424,10.6254,10.5421,10.4998,10.4681,10.4681,10.4681,10.4681,10.4681,10.4681,10.4681,10.4681,10.4681,10.4681,10.4681,10.4681,10.4681,10.4681,10.4681,10.4681,10.4681,10.4681,10.4681,10.4681,10.4681,10.4681,10.4681,10.4681,10.4681,10.4681,10.4581,10.4515,10.4084,10.4118,10.4383,10.4084,10.3853,10.3687,10.3554,10.3256,10.319,10.3157,10.3091,10.3024,10.3024,10.3024,10.3024,10.3588,10.3753,10.3753,10.425,10.4581,10.4681,10.4681,10.4681,10.4681,10.4681,10.4681,10.4681,10.4681,10.4913,10.5343,10.5807,10.6205,10.6635,10.7231,10.7761,10.796,10.8126,10.8292,10.8457,10.8656,10.8888,10.8987,10.9087,10.912,10.912,10.912,10.912,10.912,10.912,10.9053,10.8755,10.8656,10.8557,10.849,10.8258,10.7761,10.7165,10.6324,10.5207,10.4487,10.3687,10.3114,10.2634,10.242,10.2172,10.1622,10.1006,10.0585,10.0294,10.0035,9.9841,9.9549,9.9679,9.9938,10.0035,9.9841,9.9776,10.69,10.69,10.69,10.69,10.69,10.6663,10.6527,10.6254,10.5978,10.5421,10.4965,10.4823,10.4681,10.4681,10.4681,10.4681,10.4681,10.4681,10.4681,10.4681,10.4681,10.4681,10.4681,10.4681,10.4681,10.4681,10.4681,10.4681,10.4681,10.4681,10.4681,10.4681,10.4681,10.4648,10.4614,10.4449,10.4217,10.4151,10.3488,10.3422,10.3753,10.3356,10.3124,10.2925,10.2759,10.2494,10.2527,10.2527,10.2527,10.2693,10.2925,10.2792,10.3057,10.3654,10.3853,10.3886,10.4217,10.4681,10.4681,10.4681,10.4681,10.4681,10.4681,10.4681,10.5277,10.531,10.531,10.5774,10.6768,10.7231,10.7496,10.8027,10.8358,10.8623,10.8689,10.8788,10.8855,10.8921,10.902,10.9053,10.912,10.912,10.912,10.912,10.9087,10.8987,10.902,10.8656,10.8424,10.8027,10.7993,10.7828,10.7496,10.7132,10.647,10.5551,10.46,10.3947,10.3344,10.2933,10.2634,10.2517,10.2205,10.1848,10.1589,10.1363,10.1071,10.078,10.0359,10.0002,10.0294,10.0682,10.0747,10.0844,10.0909,10.69,10.69,10.69,10.69,10.69,10.69,10.6765,10.6527,10.6391,10.6012,10.5421,10.4998,10.4823,10.4681,10.4681,10.4681,10.4681,10.4681,10.4681,10.4681,10.4681,10.4681,10.4681,10.4681,10.4681,10.4681,10.4681,10.4681,10.4681,10.4681,10.4681,10.4681,10.4581,10.4515,10.4316,10.3886,10.3455,10.3289,10.2859,10.2461,10.2395,10.2362,10.2362,10.2362,10.2296,10.2262,10.2229,10.2229,10.2196,10.2395,10.2594,10.2693,10.2991,10.3554,10.3753,10.3919,10.4283,10.4614,10.4681,10.4681,10.4681,10.4681,10.4681,10.4946,10.5476,10.584,10.584,10.637,10.7331,10.7993,10.8258,10.8523,10.8855,10.9053,10.9087,10.912,10.912,10.912,10.912,10.912,10.912,10.912,10.912,10.912,10.8987,10.8888,10.8557,10.8192,10.7761,10.7265,10.6966,10.6701,10.637,10.5973,10.5774,10.522,10.4323,10.3735,10.3196,10.2784,10.2484,10.2517,10.2366,10.2334,10.2075,10.1848,10.1719,10.146,10.1006,10.0618,10.1039,10.1427,10.1492,10.1622,10.1978,10.69,10.69,10.69,10.69,10.69,10.69,10.69,10.6765,10.6527,10.6287,10.6012,10.5421,10.4998,10.4681,10.4681,10.4681,10.4681,10.4681,10.4681,10.4681,10.4681,10.4681,10.4681,10.4681,10.4681,10.4614,10.4548,10.4648,10.4283,10.4449,10.4648,10.4515,10.3919,10.3786,10.3654,10.319,10.2693,10.2494,10.2097,10.1633,10.1633,10.1633,10.1633,10.1434,10.1037,10.0838,10.0739,10.0739,10.0739,10.097,10.1633,10.2229,10.2859,10.3488,10.3786,10.4018,10.4383,10.4581,10.4681,10.4681,10.4681,10.4681,10.4714,10.478,10.5409,10.6105,10.6271,10.6635,10.7496,10.8192,10.8557,10.8822,10.9087,10.9087,10.912,10.912,10.912,10.912,10.912,10.912,10.912,10.912,10.912,10.8987,10.8689,10.849,10.806,10.7629,10.7099,10.6569,10.6006,10.5741,10.5409,10.5542,10.5641,10.5174,10.452,10.3752,10.3196,10.2784,10.2484,10.2366,10.2366,10.2366,10.2366,10.2205,10.2075,10.1945,10.1913,10.1654,10.1913,10.2172,10.2172,10.214,10.2302]},{"header":{"parameterUnit":"m.s-1","parameterCategory":1,"la1":31.0,"la2":29.5877,"lo1":-88.7671,"lo2":-86.6584,"dx":0.0162,"dy":0.0185,"nx":115,"ny":88,"refTime":"2023-02-07T06:00:00:Z","depth":0,"parameterNumber":3,"parameterNumberName":"V-component_of_WINDS"},"data":[0.0,0.0,0.0,0.0,0.0,0.0,0.0,0.0,0.0,0.0,0.0,0.0,0.0,0.0,0.0,0.0,0.0,0.0,0.0,0.0,0.0,0.0,0.0,0.0,0.0,0.0,0.0,0.0,0.0,0.0,0.0,0.0,0.0,0.0,0.0,0.0,0.0,0.0,0.0,0.0,0.0,0.0,0.0,0.0,0.0,0.0,0.0,0.0,0.0,0.0,0.0,0.0,0.0,0.0,0.0,0.0,0.0,0.0,0.0,0.0,0.0,0.0,0.0,0.0,0.0,0.0,0.0,0.0,0.0,0.0,0.0,0.0,0.0,0.0,0.0,0.0,0.0,0.0,0.0,0.0,0.0,0.0,0.0,0.0,0.0,0.0,0.0,0.0,0.0,0.0,0.0,0.0,0.0,0.0,0.0,0.0,0.0,0.0,0.0,0.0,0.0,0.0,0.0,0.0,0.0,0.0,0.0,0.0,0.0,0.0,0.0,0.0,0.0,0.0,0.0,0.0,0.0,0.0,0.0,0.0,0.0,0.0,0.0,0.0,0.0,0.0,0.0,0.0,0.0,0.0,0.0,0.0,0.0,0.0,0.0,0.0,0.0,0.0,0.0,0.0,0.0,0.0,0.0,0.0,0.0,0.0,0.0,0.0,0.0,0.0,0.0,0.0,0.0,0.0,0.0,0.0,0.0,0.0,0.0,0.0,0.0,0.0,0.0,0.0,0.0,0.0,0.0,0.0,0.0,0.0,0.0,0.0,0.0,0.0,0.0,0.0,0.0,0.0,0.0,0.0,0.0,0.0,0.0,0.0,0.0,0.0,0.0,0.0,0.0,0.0,0.0,0.0,0.0,0.0,0.0,0.0,0.0,0.0,0.0,0.0,0.0,0.0,0.0,0.0,0.0,0.0,0.0,0.0,0.0,0.0,0.0,0.0,0.0,0.0,0.0,0.0,0.0,0.0,0.0,0.0,0.0,0.0,0.0,0.0,0.0,0.0,0.0,0.0,0.0,0.0,0.0,0.0,0.0,0.0,0.0,0.0,0.0,0.0,0.0,0.0,0.0,0.0,0.0,0.0,0.0,0.0,0.0,0.0,0.0,0.0,0.0,0.0,0.0,0.0,0.0,0.0,0.0,0.0,0.0,0.0,0.0,0.0,0.0,0.0,0.0,0.0,0.0,0.0,0.0,0.0,0.0,0.0,0.0,0.0,0.0,0.0,0.0,0.0,0.0,0.0,0.0,0.0,0.0,0.0,0.0,0.0,0.0,0.0,0.0,0.0,0.0,0.0,0.0,0.0,0.0,0.0,0.0,0.0,0.0,0.0,0.0,0.0,0.0,0.0,0.0,0.0,0.0,0.0,0.0,0.0,0.0,0.0,0.0,0.0,0.0,0.0,0.0,0.0,0.0,0.0,0.0,0.0,0.0,0.0,0.0,0.0,0.0,0.0,0.0,0.0,0.0,0.0,0.0,0.0,0.0,0.0,0.0,0.0,0.0,0.0,0.0,0.0,0.0,0.0,0.0,0.0,0.0,0.0,0.0,0.0,0.0,0.0,0.0,0.0,0.0,0.0,0.0,0.0,0.0,0.0,0.0,0.0,0.0,0.0,0.0,0.0,0.0,0.0,0.0,0.0,0.0,0.0,0.0,0.0,0.0,0.0,0.0,0.0,0.0,0.0,0.0,0.0,0.0,0.0,0.0,0.0,0.0,0.0,0.0,0.0,0.0,0.0,0.0,0.0,0.0,0.0,0.0,0.0,0.0,0.0,0.0,0.0,0.0,0.0,0.0,0.0,0.0,0.0,0.0,0.0,0.0,0.0,0.0,0.0,0.0,0.0,0.0,0.0,0.0,0.0,0.0,0.0,0.0,0.0,0.0,0.0,0.0,0.0,0.0,0.0,0.0,0.0,0.0,0.0,0.0,0.0,0.0,0.0,0.0,0.0,0.0,0.0,0.0,0.0,0.0,0.0,0.0,0.0,0.0,0.0,0.0,0.0,0.0,0.0,0.0,0.0,0.0,0.0,0.0,0.0,0.0,0.0,0.0,0.0,0.0,0.0,0.0,0.0,0.0,0.0,0.0,0.0,0.0,0.0,0.0,0.0,0.0,0.0,0.0,0.0,0.0,0.0,0.0,0.0,0.0,0.0,0.0,0.0,0.0,0.0,0.0,0.0,0.0,0.0,0.0,0.0,0.0,0.0,0.0,0.0,0.0,0.0,0.0,0.0,0.0,0.0,0.0,0.0,0.0,0.0,0.0,0.0,0.0,0.0,0.0,0.0,0.0,0.0,0.0,0.0,0.0,0.0,0.0,0.0,0.0,0.0,0.0,0.0,0.0,0.0,0.0,0.0,0.0,0.0,0.0,0.0,0.0,0.0,0.0,0.0,0.0,0.0,0.0,0.0,0.0,0.0,0.0,0.0,0.0,0.0,0.0,0.0,0.0,0.0,0.0,0.0,0.0,0.0,0.0,0.0,0.0,0.0,0.0,0.0,0.0,0.0,0.0,0.0,0.0,0.0,0.0,0.0,0.0,0.0,0.0,0.0,0.0,0.0,0.0,0.0,0.0,0.0,0.0,0.0,0.0,0.0,0.0,0.0,0.0,0.0,0.0,0.0,0.0,0.0,0.0,0.0,0.0,0.0,0.0,0.0,0.0,0.0,0.0,0.0,0.0,0.0,0.0,0.0,0.0,0.0,0.0,0.0,0.0,0.0,0.0,0.0,0.0,0.0,0.0,0.0,0.0,0.0,0.0,0.0,0.0,0.0,0.0,0.0,0.0,0.0,0.0,0.0,0.0,0.0,0.0,0.0,0.0,0.0,0.0,0.0,0.0,0.0,0.0,0.0,0.0,0.0,0.0,0.0,0.0,0.0,0.0,0.0,0.0,0.0,0.0,0.0,0.0,0.0,0.0,0.0,0.0,0.0,0.0,0.0,0.0,0.0,0.0,0.0,0.0,0.0,0.0,0.0,0.0,0.0,0.0,0.0,0.0,0.0,0.0,0.0,0.0,0.0,0.0,0.0,0.0,0.0,0.0,0.0,0.0,0.0,0.0,0.0,0.0,0.0,0.0,0.0,0.0,0.0,0.0,0.0,0.0,0.0,0.0,0.0,0.0,0.0,0.0,0.0,0.0,0.0,0.0,0.0,0.0,0.0,0.0,0.0,0.0,0.0,0.0,0.0,0.0,0.0,0.0,0.0,0.0,0.0,0.0,0.0,0.0,0.0,0.0,0.0,0.0,0.0,0.0,0.0,0.0,0.0,0.0,0.0,0.0,0.0,0.0,0.0,0.0,0.0,0.0,0.0,0.0,0.0,0.0,0.0,0.0,0.0,0.0,0.0,0.0,0.0,0.0,0.0,0.0,0.0,0.0,0.0,0.0,0.0,0.0,0.0,0.0,0.0,0.0,0.0,0.0,0.0,0.0,0.0,0.0,0.0,0.0,0.0,0.0,0.0,0.0,0.0,0.0,0.0,0.0,0.0,0.0,0.0,0.0,0.0,0.0,0.0,0.0,0.0,0.0,0.0,0.0,0.0,0.0,0.0,0.0,0.0,0.0,0.0,0.0,0.0,0.0,0.0,0.0,0.0,0.0,0.0,0.0,0.0,0.0,0.0,0.0,0.0,0.0,0.0,0.0,0.0,0.0,0.0,0.0,0.0,0.0,0.0,0.0,0.0,0.0,0.0,0.0,0.0,0.0,0.0,0.0,0.0,0.0,0.0,0.0,0.0,0.0,0.0,0.0,0.0,0.0,0.0,0.0,0.0,0.0,0.0,0.0,0.0,0.0,0.0,0.0,0.0,0.0,0.0,0.0,0.0,0.0,0.0,0.0,0.0,0.0,0.0,0.0,0.0,0.0,0.0,0.0,0.0,0.0,0.0,0.0,0.0,0.0,0.0,0.0,0.0,0.0,0.0,0.0,0.0,0.0,0.0,0.0,0.0,0.0,0.0,0.0,0.0,0.0,0.0,0.0,0.0,0.0,0.0,0.0,0.0,0.0,0.0,0.0,0.0,0.0,0.0,0.0,0.0,0.0,0.0,0.0,0.0,0.0,0.0,0.0,0.0,0.0,0.0,0.0,0.0,0.0,0.0,0.0,0.0,0.0,0.0,0.0,0.0,0.0,0.0,0.0,0.0,0.0,0.0,0.0,0.0,0.0,0.0,0.0,0.0,0.0,0.0,0.0,0.0,0.0,0.0,0.0,0.0,0.0,0.0,0.0,0.0,0.0,0.0,0.0,0.0,0.0,0.0,0.0,0.0,0.0,0.0,-3.4534,0.0,0.0,0.0,0.0,0.0,0.0,0.0,0.0,0.0,0.0,0.0,0.0,0.0,0.0,0.0,0.0,0.0,0.0,0.0,0.0,0.0,0.0,0.0,0.0,0.0,0.0,0.0,0.0,0.0,0.0,0.0,0.0,0.0,0.0,0.0,0.0,0.0,0.0,0.0,0.0,0.0,0.0,0.0,0.0,0.0,0.0,0.0,0.0,0.0,0.0,0.0,0.0,0.0,0.0,0.0,0.0,0.0,0.0,0.0,0.0,0.0,0.0,0.0,0.0,0.0,0.0,0.0,0.0,0.0,0.0,0.0,0.0,0.0,0.0,0.0,0.0,0.0,0.0,0.0,0.0,0.0,0.0,0.0,0.0,0.0,0.0,0.0,0.0,0.0,0.0,0.0,0.0,0.0,0.0,0.0,0.0,0.0,0.0,0.0,0.0,0.0,0.0,0.0,0.0,0.0,0.0,0.0,0.0,0.0,0.0,-3.3861,-3.3636,-3.3749,-3.3749,-3.3861,0.0,0.0,0.0,0.0,0.0,0.0,0.0,0.0,0.0,0.0,0.0,0.0,0.0,0.0,0.0,0.0,0.0,0.0,0.0,0.0,0.0,0.0,0.0,0.0,0.0,0.0,0.0,0.0,0.0,0.0,0.0,0.0,0.0,0.0,0.0,0.0,0.0,0.0,0.0,0.0,0.0,0.0,0.0,0.0,0.0,0.0,0.0,0.0,0.0,0.0,0.0,0.0,0.0,0.0,0.0,0.0,0.0,0.0,0.0,0.0,0.0,0.0,0.0,0.0,0.0,0.0,0.0,0.0,0.0,0.0,0.0,0.0,0.0,0.0,0.0,0.0,0.0,0.0,0.0,0.0,0.0,0.0,0.0,0.0,0.0,0.0,0.0,0.0,0.0,0.0,0.0,0.0,0.0,0.0,0.0,0.0,0.0,0.0,0.0,0.0,0.0,0.0,0.0,0.0,0.0,0.0,0.0,0.0,0.0,0.0,0.0,0.0,-3.3203,-3.3182,-3.3296,0.0,0.0,0.0,0.0,0.0,0.0,0.0,0.0,0.0,0.0,0.0,0.0,0.0,0.0,0.0,0.0,0.0,0.0,0.0,0.0,0.0,0.0,0.0,0.0,0.0,0.0,0.0,0.0,0.0,0.0,0.0,0.0,0.0,0.0,0.0,0.0,0.0,0.0,0.0,0.0,0.0,0.0,0.0,0.0,0.0,0.0,0.0,0.0,0.0,0.0,0.0,0.0,0.0,0.0,0.0,0.0,0.0,0.0,0.0,0.0,0.0,0.0,0.0,0.0,0.0,0.0,0.0,0.0,0.0,0.0,0.0,0.0,0.0,0.0,0.0,0.0,0.0,0.0,0.0,0.0,0.0,0.0,0.0,0.0,0.0,0.0,0.0,0.0,0.0,0.0,0.0,0.0,0.0,0.0,0.0,0.0,0.0,0.0,0.0,0.0,0.0,0.0,0.0,0.0,0.0,0.0,0.0,0.0,0.0,0.0,-3.3296,-3.2727,-3.309,0.0,-3.3523,0.0,0.0,0.0,0.0,0.0,0.0,0.0,0.0,0.0,0.0,0.0,0.0,0.0,0.0,0.0,0.0,0.0,0.0,0.0,0.0,0.0,0.0,0.0,0.0,0.0,0.0,0.0,0.0,0.0,0.0,0.0,0.0,0.0,0.0,0.0,0.0,0.0,0.0,0.0,0.0,0.0,0.0,0.0,0.0,0.0,0.0,0.0,0.0,0.0,0.0,0.0,0.0,0.0,0.0,0.0,0.0,0.0,0.0,0.0,0.0,0.0,0.0,0.0,0.0,0.0,0.0,0.0,0.0,0.0,0.0,0.0,0.0,0.0,0.0,0.0,0.0,0.0,0.0,0.0,0.0,0.0,0.0,0.0,0.0,0.0,0.0,0.0,0.0,0.0,0.0,0.0,0.0,0.0,0.0,0.0,0.0,0.0,0.0,0.0,0.0,0.0,0.0,0.0,0.0,0.0,0.0,0.0,0.0,0.0,0.0,-3.3296,-3.2727,-3.2841,-3.2955,0.0,0.0,0.0,0.0,0.0,0.0,0.0,0.0,0.0,0.0,0.0,0.0,0.0,0.0,0.0,0.0,0.0,0.0,0.0,0.0,0.0,0.0,0.0,0.0,0.0,0.0,0.0,0.0,0.0,0.0,0.0,0.0,0.0,0.0,0.0,0.0,0.0,0.0,0.0,0.0,0.0,0.0,0.0,0.0,0.0,0.0,0.0,0.0,0.0,0.0,0.0,0.0,0.0,0.0,0.0,0.0,0.0,0.0,0.0,0.0,0.0,0.0,0.0,0.0,0.0,0.0,0.0,0.0,0.0,0.0,0.0,0.0,0.0,0.0,0.0,0.0,0.0,0.0,0.0,0.0,0.0,0.0,0.0,0.0,0.0,0.0,0.0,0.0,0.0,0.0,0.0,0.0,0.0,0.0,0.0,0.0,0.0,0.0,0.0,0.0,0.0,0.0,0.0,0.0,0.0,0.0,0.0,0.0,0.0,0.0,-3.3636,-3.3245,-3.2892,-3.2913,-3.2975,-3.3099,0.0,0.0,0.0,0.0,0.0,0.0,0.0,0.0,0.0,0.0,0.0,0.0,0.0,0.0,0.0,0.0,0.0,0.0,0.0,0.0,0.0,0.0,0.0,0.0,0.0,0.0,0.0,0.0,0.0,0.0,0.0,0.0,0.0,0.0,0.0,0.0,0.0,0.0,0.0,0.0,0.0,0.0,0.0,0.0,0.0,0.0,0.0,0.0,0.0,0.0,0.0,0.0,0.0,0.0,0.0,0.0,0.0,0.0,0.0,0.0,0.0,0.0,0.0,0.0,0.0,0.0,0.0,0.0,0.0,0.0,0.0,0.0,0.0,0.0,0.0,0.0,0.0,0.0,0.0,0.0,0.0,0.0,0.0,0.0,0.0,0.0,0.0,0.0,0.0,0.0,0.0,0.0,0.0,0.0,0.0,0.0,0.0,0.0,0.0,0.0,0.0,0.0,0.0,0.0,0.0,0.0,0.0,0.0,-3.3636,-3.343,-3.3278,-3.3327,-3.3348,-3.3555,0.0,0.0,0.0,0.0,0.0,0.0,0.0,0.0,0.0,0.0,0.0,0.0,0.0,0.0,0.0,0.0,0.0,0.0,0.0,0.0,0.0,0.0,0.0,0.0,0.0,0.0,0.0,0.0,0.0,0.0,0.0,0.0,0.0,0.0,0.0,0.0,0.0,0.0,0.0,0.0,0.0,0.0,0.0,0.0,0.0,0.0,0.0,0.0,0.0,0.0,0.0,0.0,0.0,0.0,0.0,0.0,0.0,0.0,0.0,0.0,0.0,0.0,0.0,0.0,0.0,0.0,0.0,0.0,0.0,0.0,0.0,0.0,0.0,0.0,0.0,0.0,0.0,0.0,0.0,0.0,0.0,0.0,0.0,0.0,0.0,0.0,0.0,0.0,0.0,0.0,0.0,0.0,0.0,0.0,0.0,0.0,0.0,0.0,0.0,0.0,0.0,0.0,0.0,0.0,0.0,0.0,0.0,0.0,0.0,-3.4104,-3.3917,-3.3776,-3.3803,-3.3824,-3.3906,0.0,0.0,0.0,0.0,0.0,0.0,0.0,0.0,0.0,0.0,0.0,0.0,0.0,0.0,0.0,0.0,0.0,0.0,0.0,0.0,0.0,0.0,0.0,0.0,0.0,0.0,0.0,0.0,0.0,0.0,0.0,0.0,0.0,0.0,0.0,0.0,0.0,0.0,0.0,0.0,0.0,0.0,0.0,0.0,0.0,0.0,0.0,0.0,0.0,0.0,0.0,0.0,0.0,0.0,0.0,0.0,0.0,0.0,0.0,0.0,0.0,0.0,0.0,0.0,0.0,0.0,0.0,0.0,0.0,0.0,0.0,0.0,0.0,0.0,0.0,0.0,0.0,0.0,0.0,0.0,0.0,0.0,0.0,0.0,0.0,0.0,0.0,0.0,0.0,0.0,0.0,0.0,0.0,0.0,0.0,0.0,0.0,0.0,0.0,0.0,0.0,0.0,0.0,0.0,0.0,0.0,0.0,0.0,0.0,-3.4223,0.0,-3.4134,-3.4279,-3.43,-3.4362,0.0,0.0,0.0,0.0,0.0,0.0,0.0,0.0,0.0,0.0,0.0,0.0,0.0,0.0,0.0,0.0,0.0,0.0,0.0,0.0,0.0,0.0,0.0,0.0,0.0,0.0,0.0,0.0,0.0,0.0,0.0,0.0,0.0,0.0,0.0,0.0,0.0,0.0,0.0,0.0,0.0,0.0,0.0,0.0,0.0,0.0,0.0,0.0,0.0,0.0,0.0,0.0,0.0,0.0,0.0,0.0,0.0,0.0,0.0,0.0,0.0,0.0,0.0,0.0,0.0,0.0,0.0,0.0,0.0,0.0,0.0,0.0,0.0,0.0,0.0,0.0,0.0,0.0,0.0,0.0,0.0,0.0,0.0,0.0,0.0,0.0,0.0,0.0,0.0,0.0,0.0,0.0,0.0,0.0,0.0,0.0,0.0,0.0,0.0,0.0,0.0,0.0,0.0,0.0,0.0,0.0,0.0,0.0,-3.504,-3.4212,-3.4113,-3.4341,-3.4734,-3.4755,-3.4962,0.0,0.0,0.0,0.0,0.0,0.0,0.0,0.0,0.0,0.0,0.0,0.0,0.0,0.0,0.0,0.0,0.0,0.0,0.0,0.0,0.0,0.0,0.0,0.0,0.0,0.0,0.0,0.0,0.0,0.0,0.0,0.0,0.0,0.0,0.0,0.0,0.0,0.0,0.0,0.0,0.0,0.0,0.0,0.0,0.0,0.0,0.0,0.0,0.0,0.0,0.0,0.0,0.0,0.0,0.0,0.0,0.0,0.0,0.0,0.0,0.0,0.0,0.0,0.0,0.0,0.0,0.0,0.0,0.0,0.0,0.0,0.0,0.0,0.0,0.0,0.0,0.0,0.0,0.0,0.0,0.0,0.0,0.0,0.0,0.0,0.0,0.0,0.0,0.0,0.0,0.0,0.0,0.0,0.0,0.0,0.0,0.0,0.0,0.0,0.0,0.0,0.0,0.0,0.0,0.0,0.0,0.0,0.0,0.0,-3.5004,-3.5004,-3.5066,-3.5211,-3.5211,-3.5293,0.0,0.0,0.0,0.0,0.0,0.0,0.0,0.0,0.0,0.0,0.0,0.0,0.0,0.0,0.0,0.0,0.0,0.0,0.0,0.0,0.0,0.0,0.0,0.0,0.0,0.0,0.0,0.0,0.0,0.0,0.0,0.0,0.0,0.0,0.0,0.0,0.0,0.0,0.0,0.0,0.0,0.0,0.0,0.0,0.0,0.0,0.0,0.0,0.0,0.0,0.0,0.0,0.0,0.0,0.0,0.0,0.0,0.0,0.0,0.0,0.0,0.0,0.0,0.0,0.0,0.0,0.0,0.0,0.0,0.0,0.0,0.0,0.0,0.0,0.0,0.0,0.0,0.0,0.0,0.0,0.0,0.0,0.0,0.0,0.0,0.0,0.0,0.0,0.0,0.0,0.0,0.0,0.0,0.0,0.0,0.0,0.0,0.0,0.0,0.0,0.0,0.0,0.0,0.0,0.0,0.0,0.0,0.0,0.0,-3.5914,-3.5769,-3.5769,-3.5935,-3.5769,-3.5666,-3.5687,0.0,0.0,0.0,0.0,0.0,0.0,0.0,0.0,0.0,0.0,0.0,0.0,0.0,0.0,0.0,0.0,0.0,0.0,0.0,0.0,0.0,0.0,0.0,0.0,0.0,0.0,0.0,0.0,0.0,0.0,0.0,0.0,0.0,0.0,0.0,0.0,0.0,0.0,0.0,0.0,0.0,0.0,0.0,0.0,0.0,0.0,0.0,0.0,0.0,0.0,0.0,0.0,0.0,0.0,0.0,0.0,0.0,0.0,0.0,0.0,0.0,0.0,0.0,0.0,0.0,0.0,0.0,0.0,0.0,0.0,0.0,0.0,0.0,0.0,0.0,0.0,0.0,0.0,0.0,0.0,0.0,0.0,0.0,0.0,0.0,0.0,0.0,0.0,0.0,0.0,0.0,0.0,0.0,0.0,0.0,0.0,0.0,0.0,0.0,0.0,0.0,0.0,0.0,0.0,0.0,0.0,0.0,0.0,-3.6825,-3.6411,-3.639,-3.6763,-3.637,-3.6142,0.0,0.0,0.0,0.0,0.0,0.0,0.0,0.0,0.0,0.0,0.0,0.0,0.0,0.0,0.0,0.0,0.0,0.0,0.0,0.0,0.0,0.0,0.0,0.0,0.0,0.0,0.0,0.0,0.0,0.0,0.0,0.0,0.0,0.0,0.0,0.0,0.0,0.0,0.0,0.0,0.0,0.0,0.0,0.0,0.0,0.0,0.0,0.0,0.0,0.0,0.0,0.0,0.0,0.0,0.0,0.0,0.0,0.0,0.0,0.0,0.0,0.0,0.0,0.0,0.0,0.0,0.0,0.0,0.0,0.0,0.0,0.0,0.0,0.0,0.0,0.0,0.0,0.0,0.0,0.0,0.0,0.0,0.0,0.0,0.0,0.0,0.0,0.0,0.0,0.0,0.0,0.0,0.0,0.0,0.0,0.0,0.0,0.0,0.0,0.0,0.0,0.0,0.0,0.0,0.0,0.0,0.0,0.0,0.0,-3.7281,-3.7198,-3.7032,-3.6804,-3.668,-3.6453,0.0,0.0,0.0,0.0,0.0,0.0,0.0,0.0,0.0,0.0,0.0,0.0,0.0,0.0,0.0,0.0,0.0,0.0,0.0,0.0,0.0,0.0,0.0,0.0,0.0,0.0,0.0,0.0,0.0,0.0,0.0,0.0,0.0,0.0,0.0,0.0,0.0,0.0,0.0,0.0,0.0,0.0,0.0,0.0,0.0,0.0,0.0,0.0,0.0,0.0,0.0,0.0,0.0,0.0,0.0,0.0,0.0,0.0,0.0,0.0,0.0,0.0,0.0,0.0,0.0,0.0,0.0,0.0,0.0,0.0,0.0,0.0,0.0,0.0,0.0,0.0,0.0,0.0,0.0,0.0,0.0,0.0,0.0,0.0,0.0,0.0,0.0,0.0,0.0,0.0,0.0,0.0,0.0,0.0,0.0,0.0,0.0,0.0,0.0,0.0,0.0,0.0,0.0,0.0,0.0,0.0,0.0,0.0,-3.7405,-3.8046,-3.8067,-3.7943,-3.7674,-3.7301,-3.697,0.0,0.0,0.0,0.0,0.0,0.0,0.0,0.0,0.0,0.0,0.0,0.0,0.0,0.0,0.0,0.0,0.0,0.0,0.0,0.0,0.0,0.0,0.0,0.0,0.0,0.0,0.0,0.0,0.0,0.0,0.0,0.0,0.0,0.0,0.0,0.0,0.0,0.0,0.0,0.0,0.0,0.0,0.0,0.0,0.0,0.0,0.0,0.0,0.0,0.0,0.0,0.0,0.0,0.0,0.0,0.0,0.0,0.0,0.0,0.0,0.0,0.0,0.0,0.0,0.0,0.0,0.0,0.0,0.0,0.0,0.0,0.0,0.0,0.0,0.0,0.0,0.0,0.0,0.0,0.0,0.0,0.0,0.0,0.0,0.0,0.0,0.0,0.0,0.0,0.0,0.0,0.0,0.0,0.0,0.0,0.0,0.0,0.0,0.0,0.0,0.0,0.0,0.0,0.0,0.0,0.0,0.0,0.0,-3.8046,-3.8895,-3.8916,-3.8916,-3.8895,-3.8088,-3.7591,0.0,0.0,0.0,0.0,0.0,0.0,0.0,0.0,0.0,0.0,0.0,0.0,0.0,0.0,0.0,0.0,0.0,0.0,0.0,0.0,0.0,0.0,0.0,0.0,0.0,0.0,0.0,0.0,0.0,0.0,0.0,0.0,0.0,0.0,0.0,0.0,0.0,0.0,0.0,0.0,0.0,0.0,0.0,0.0,0.0,0.0,0.0,0.0,0.0,0.0,0.0,0.0,0.0,0.0,0.0,0.0,0.0,0.0,0.0,0.0,0.0,0.0,0.0,0.0,0.0,0.0,0.0,0.0,0.0,0.0,0.0,0.0,0.0,0.0,0.0,0.0,0.0,0.0,0.0,0.0,0.0,0.0,0.0,0.0,0.0,0.0,0.0,0.0,0.0,0.0,0.0,0.0,0.0,0.0,0.0,0.0,0.0,0.0,0.0,0.0,0.0,0.0,0.0,0.0,0.0,0.0,0.0,0.0,-3.8833,-3.9371,-3.9392,-3.9392,-3.9392,-3.8854,-3.8233,0.0,0.0,0.0,0.0,0.0,0.0,0.0,0.0,0.0,0.0,0.0,0.0,0.0,0.0,0.0,0.0,0.0,0.0,0.0,0.0,0.0,0.0,0.0,0.0,0.0,0.0,0.0,0.0,0.0,0.0,0.0,0.0,0.0,0.0,0.0,0.0,0.0,0.0,0.0,0.0,0.0,0.0,0.0,0.0,0.0,0.0,0.0,0.0,-4.7272,0.0,0.0,0.0,0.0,0.0,0.0,0.0,0.0,0.0,0.0,0.0,0.0,0.0,0.0,0.0,0.0,0.0,0.0,0.0,0.0,0.0,0.0,0.0,0.0,0.0,0.0,0.0,0.0,0.0,0.0,0.0,0.0,0.0,0.0,0.0,0.0,0.0,0.0,0.0,0.0,0.0,0.0,0.0,0.0,0.0,0.0,0.0,0.0,0.0,0.0,0.0,0.0,0.0,0.0,0.0,0.0,0.0,0.0,0.0,-3.9413,-3.9847,-3.9868,-3.9868,-3.9847,-3.962,-3.9081,0.0,0.0,0.0,0.0,0.0,0.0,0.0,0.0,0.0,0.0,0.0,0.0,0.0,0.0,0.0,0.0,0.0,0.0,0.0,0.0,0.0,0.0,0.0,0.0,0.0,0.0,0.0,0.0,0.0,0.0,0.0,0.0,0.0,0.0,0.0,0.0,0.0,0.0,0.0,0.0,0.0,0.0,0.0,0.0,0.0,0.0,0.0,0.0,0.0,0.0,0.0,0.0,0.0,0.0,0.0,0.0,0.0,0.0,0.0,0.0,0.0,0.0,0.0,0.0,0.0,0.0,0.0,0.0,0.0,0.0,0.0,0.0,0.0,0.0,0.0,0.0,0.0,0.0,0.0,0.0,0.0,0.0,0.0,0.0,0.0,0.0,0.0,0.0,0.0,0.0,0.0,0.0,0.0,0.0,0.0,0.0,0.0,0.0,0.0,0.0,0.0,0.0,0.0,0.0,0.0,0.0,0.0,-3.9516,-3.9972,-4.0406,-4.051,-4.051,-4.0427,-4.0427,-4.0013,-3.9102,0.0,0.0,0.0,0.0,0.0,0.0,0.0,0.0,0.0,0.0,0.0,0.0,0.0,0.0,0.0,0.0,0.0,0.0,0.0,0.0,0.0,0.0,0.0,0.0,0.0,0.0,0.0,0.0,0.0,0.0,0.0,0.0,0.0,0.0,0.0,0.0,0.0,0.0,-4.5331,-4.5551,0.0,0.0,0.0,0.0,0.0,0.0,0.0,0.0,-4.6459,0.0,0.0,0.0,0.0,0.0,0.0,0.0,0.0,0.0,0.0,0.0,0.0,0.0,0.0,0.0,0.0,0.0,0.0,0.0,0.0,0.0,0.0,0.0,0.0,0.0,0.0,0.0,0.0,0.0,0.0,0.0,0.0,0.0,0.0,0.0,0.0,0.0,0.0,0.0,0.0,0.0,0.0,0.0,0.0,0.0,0.0,0.0,0.0,0.0,0.0,0.0,0.0,0.0,0.0,0.0,0.0,-3.9992,-4.0427,-4.0882,-4.1338,-4.1731,-4.1752,-4.1358,-4.1338,-4.0924,-4.0034,0.0,0.0,0.0,0.0,0.0,0.0,0.0,0.0,0.0,0.0,0.0,0.0,0.0,0.0,0.0,0.0,0.0,0.0,0.0,0.0,0.0,0.0,0.0,0.0,0.0,0.0,0.0,0.0,0.0,0.0,0.0,0.0,0.0,0.0,0.0,0.0,0.0,0.0,0.0,-4.5622,-4.5521,0.0,0.0,0.0,0.0,0.0,0.0,0.0,0.0,-4.6682,0.0,0.0,0.0,0.0,0.0,0.0,0.0,0.0,0.0,0.0,0.0,0.0,0.0,0.0,0.0,0.0,0.0,0.0,0.0,0.0,0.0,0.0,0.0,0.0,0.0,0.0,0.0,0.0,0.0,0.0,0.0,0.0,0.0,0.0,0.0,0.0,0.0,0.0,0.0,0.0,0.0,0.0,0.0,0.0,0.0,0.0,0.0,0.0,0.0,0.0,0.0,0.0,0.0,0.0,0.0,-4.0551,-4.1007,-4.1462,-4.1917,-4.2145,-4.2166,-4.1938,-4.169,-4.1358,0.0,0.0,0.0,0.0,0.0,0.0,0.0,0.0,0.0,0.0,0.0,0.0,0.0,0.0,0.0,0.0,0.0,0.0,0.0,0.0,0.0,0.0,0.0,0.0,0.0,0.0,0.0,0.0,0.0,0.0,0.0,0.0,0.0,0.0,0.0,0.0,0.0,0.0,0.0,0.0,-4.5548,-4.5514,-4.5539,0.0,0.0,0.0,0.0,0.0,0.0,-4.6083,-4.5802,0.0,0.0,0.0,0.0,0.0,0.0,0.0,0.0,0.0,0.0,0.0,0.0,0.0,0.0,0.0,0.0,0.0,0.0,0.0,0.0,0.0,0.0,0.0,0.0,0.0,0.0,0.0,0.0,0.0,0.0,0.0,0.0,0.0,0.0,0.0,0.0,0.0,0.0,0.0,0.0,0.0,0.0,0.0,0.0,0.0,0.0,0.0,0.0,0.0,0.0,0.0,0.0,0.0,0.0,0.0,-4.1027,-4.1565,-4.2021,-4.2373,-4.2476,-4.2497,-4.2393,-4.2042,-4.1752,0.0,0.0,0.0,0.0,0.0,0.0,0.0,0.0,0.0,0.0,0.0,0.0,0.0,0.0,0.0,0.0,0.0,0.0,0.0,0.0,0.0,0.0,0.0,0.0,0.0,0.0,0.0,0.0,0.0,0.0,0.0,0.0,0.0,0.0,0.0,0.0,0.0,0.0,0.0,0.0,0.0,-4.5552,-4.5526,-4.5526,0.0,0.0,0.0,0.0,-4.4936,-4.5004,0.0,0.0,0.0,0.0,0.0,0.0,0.0,0.0,0.0,0.0,0.0,0.0,0.0,0.0,0.0,0.0,0.0,0.0,0.0,0.0,0.0,0.0,0.0,0.0,0.0,0.0,0.0,0.0,0.0,0.0,0.0,0.0,0.0,0.0,0.0,0.0,0.0,0.0,0.0,0.0,0.0,0.0,0.0,0.0,0.0,0.0,0.0,0.0,0.0,0.0,0.0,0.0,0.0,0.0,0.0,0.0,-4.1503,-4.2331,-4.2787,-4.287,-4.3242,-4.3263,-4.287,-4.2787,-4.2393,0.0,0.0,0.0,0.0,0.0,0.0,0.0,0.0,0.0,0.0,0.0,0.0,0.0,0.0,0.0,0.0,0.0,0.0,0.0,0.0,0.0,0.0,0.0,0.0,0.0,0.0,0.0,0.0,0.0,0.0,0.0,0.0,0.0,0.0,0.0,0.0,0.0,0.0,0.0,0.0,0.0,-4.5041,-4.4436,-4.3984,-4.3576,0.0,0.0,-4.4035,-4.3894,-4.4244,0.0,0.0,0.0,0.0,0.0,0.0,0.0,0.0,0.0,0.0,0.0,0.0,0.0,0.0,0.0,0.0,0.0,0.0,0.0,0.0,0.0,0.0,0.0,0.0,0.0,0.0,0.0,0.0,0.0,0.0,0.0,0.0,0.0,0.0,0.0,0.0,0.0,0.0,0.0,0.0,0.0,0.0,0.0,0.0,0.0,0.0,0.0,0.0,0.0,0.0,0.0,0.0,0.0,0.0,0.0,-4.1503,-4.1959,-4.26,-4.3056,-4.3304,-4.3511,-4.3511,-4.3325,-4.3056,-4.2621,0.0,0.0,0.0,0.0,0.0,0.0,0.0,0.0,0.0,0.0,0.0,0.0,0.0,0.0,0.0,0.0,0.0,0.0,0.0,0.0,0.0,0.0,0.0,0.0,0.0,0.0,0.0,0.0,0.0,0.0,0.0,0.0,0.0,0.0,0.0,0.0,0.0,0.0,0.0,0.0,0.0,0.0,-4.4405,-4.3815,0.0,0.0,0.0,-4.4031,-4.4289,0.0,0.0,0.0,0.0,0.0,0.0,0.0,0.0,0.0,0.0,0.0,0.0,0.0,0.0,0.0,0.0,0.0,0.0,0.0,0.0,0.0,0.0,0.0,0.0,0.0,0.0,0.0,0.0,0.0,0.0,0.0,0.0,0.0,0.0,0.0,0.0,0.0,0.0,0.0,0.0,0.0,0.0,0.0,0.0,0.0,0.0,0.0,0.0,0.0,0.0,0.0,0.0,0.0,0.0,0.0,0.0,0.0,-4.2414,-4.287,-4.3263,-4.3594,-4.3615,-4.3615,-4.3615,-4.3284,0.0,0.0,0.0,0.0,0.0,0.0,0.0,0.0,0.0,0.0,0.0,0.0,0.0,0.0,0.0,0.0,0.0,0.0,0.0,0.0,0.0,0.0,0.0,0.0,0.0,0.0,0.0,-3.9553,0.0,0.0,0.0,0.0,0.0,0.0,0.0,0.0,0.0,0.0,0.0,0.0,0.0,0.0,-4.3806,-4.4171,-4.3622,-4.3333,0.0,0.0,-4.3954,-4.4292,-4.4144,-4.3827,0.0,0.0,0.0,0.0,0.0,0.0,0.0,0.0,0.0,0.0,0.0,0.0,0.0,0.0,0.0,0.0,0.0,0.0,0.0,0.0,0.0,0.0,0.0,0.0,0.0,0.0,0.0,0.0,0.0,0.0,0.0,0.0,0.0,0.0,0.0,0.0,0.0,0.0,0.0,0.0,0.0,0.0,0.0,0.0,0.0,0.0,0.0,0.0,0.0,0.0,0.0,0.0,0.0,0.0,0.0,-4.287,-4.3325,-4.3573,-4.3615,-4.3615,-4.3615,-4.3615,-4.3573,-4.3346,0.0,0.0,0.0,0.0,0.0,0.0,0.0,0.0,0.0,0.0,0.0,0.0,0.0,0.0,0.0,0.0,0.0,0.0,0.0,0.0,0.0,0.0,0.0,0.0,0.0,0.0,0.0,0.0,0.0,0.0,0.0,0.0,0.0,0.0,0.0,0.0,0.0,0.0,0.0,0.0,0.0,-4.3451,-4.3489,-4.3089,-4.2837,0.0,0.0,-4.2932,-4.2973,-4.3304,-4.3408,-4.2952,0.0,0.0,0.0,0.0,0.0,0.0,0.0,0.0,0.0,0.0,0.0,0.0,0.0,0.0,0.0,0.0,0.0,0.0,0.0,0.0,0.0,0.0,0.0,0.0,0.0,0.0,0.0,0.0,0.0,0.0,0.0,0.0,0.0,0.0,0.0,0.0,0.0,0.0,0.0,0.0,0.0,0.0,0.0,0.0,0.0,0.0,0.0,0.0,0.0,0.0,0.0,0.0,0.0,-4.2476,-4.2911,-4.3656,-4.4029,-4.4049,-4.4319,-4.4339,-4.4049,-4.4049,-4.3677,0.0,0.0,0.0,0.0,0.0,0.0,0.0,0.0,0.0,0.0,0.0,0.0,0.0,0.0,0.0,0.0,0.0,0.0,0.0,0.0,0.0,0.0,0.0,0.0,0.0,0.0,0.0,0.0,-4.053,-4.0634,-4.0634,0.0,0.0,0.0,0.0,0.0,0.0,0.0,0.0,0.0,0.0,-4.3214,-4.3802,-4.3252,0.0,0.0,-4.3346,-4.3346,-4.3346,-4.3263,-4.3118,-4.2952,-4.2538,0.0,0.0,0.0,0.0,0.0,0.0,0.0,0.0,0.0,0.0,0.0,0.0,0.0,0.0,0.0,0.0,0.0,0.0,0.0,0.0,0.0,0.0,0.0,0.0,0.0,0.0,0.0,0.0,0.0,0.0,0.0,0.0,0.0,0.0,0.0,0.0,0.0,0.0,0.0,0.0,0.0,0.0,0.0,0.0,0.0,0.0,0.0,0.0,0.0,0.0,0.0,0.0,-4.2745,-4.3325,-4.3987,-4.436,-4.4505,-4.4815,-4.4836,-4.4526,-4.4505,-4.4132,0.0,0.0,0.0,0.0,0.0,0.0,0.0,0.0,0.0,0.0,0.0,0.0,0.0,0.0,0.0,0.0,0.0,0.0,0.0,0.0,0.0,0.0,0.0,0.0,0.0,0.0,0.0,0.0,-4.0882,-4.0882,-4.0882,0.0,0.0,0.0,0.0,0.0,0.0,0.0,0.0,0.0,0.0,-4.3192,-4.3945,-4.3476,-4.3242,-4.3573,-4.3615,-4.3615,-4.3615,-4.3346,-4.3118,-4.3139,0.0,0.0,0.0,0.0,0.0,0.0,0.0,0.0,0.0,0.0,0.0,0.0,0.0,0.0,0.0,0.0,0.0,0.0,0.0,0.0,0.0,0.0,0.0,0.0,0.0,0.0,0.0,0.0,0.0,0.0,0.0,0.0,0.0,0.0,0.0,0.0,0.0,0.0,0.0,0.0,0.0,0.0,0.0,0.0,0.0,0.0,0.0,0.0,0.0,0.0,0.0,0.0,0.0,-4.3346,-4.4236,-4.4298,-4.4526,-4.496,-4.5002,-4.5022,-4.4981,-4.4981,-4.4753,-4.4277,0.0,0.0,0.0,0.0,0.0,0.0,0.0,0.0,0.0,0.0,0.0,0.0,0.0,0.0,0.0,0.0,0.0,0.0,0.0,0.0,0.0,0.0,0.0,0.0,0.0,0.0,-4.0903,-4.0882,-4.0882,0.0,0.0,0.0,0.0,0.0,0.0,0.0,0.0,0.0,0.0,-4.2621,-4.3077,-4.3532,-4.3594,-4.3594,-4.3615,-4.3615,-4.3615,-4.3635,-4.3615,-4.3594,0.0,0.0,0.0,0.0,0.0,0.0,0.0,0.0,0.0,0.0,0.0,0.0,0.0,0.0,0.0,0.0,0.0,0.0,0.0,0.0,0.0,0.0,0.0,0.0,0.0,0.0,0.0,-3.9392,-3.9537,0.0,0.0,0.0,0.0,0.0,0.0,0.0,0.0,0.0,0.0,0.0,-4.2249,-4.2249,0.0,0.0,0.0,0.0,0.0,0.0,0.0,0.0,0.0,0.0,0.0,0.0,-4.3387,-4.4277,-4.4608,-4.4981,-4.5436,-4.5747,-4.5747,-4.5457,-4.5457,-4.5229,-4.4774,0.0,0.0,0.0,0.0,0.0,0.0,0.0,0.0,0.0,0.0,0.0,0.0,0.0,0.0,0.0,0.0,0.0,0.0,0.0,0.0,0.0,0.0,0.0,0.0,0.0,-4.1669,0.0,0.0,0.0,0.0,0.0,0.0,0.0,0.0,0.0,0.0,0.0,-4.2021,-4.2621,-4.3097,-4.3428,-4.3594,-4.3615,-4.3615,0.0,0.0,0.0,0.0,0.0,0.0,0.0,0.0,0.0,0.0,0.0,0.0,0.0,0.0,-4.5234,-4.5194,-4.6056,-4.6864,-4.7182,0.0,0.0,0.0,0.0,0.0,0.0,0.0,0.0,0.0,0.0,0.0,0.0,0.0,0.0,0.0,0.0,-4.0489,0.0,0.0,0.0,0.0,0.0,0.0,0.0,0.0,-4.2725,-4.289,-4.3201,-4.3201,-4.3201,0.0,-4.3201,-4.3221,0.0,0.0,0.0,0.0,0.0,0.0,0.0,0.0,-4.3863,-4.4753,-4.5229,-4.5685,-4.6161,-4.6575,-4.6678,-4.6389,-4.6078,-4.5768,-4.5478,-4.4588,-4.4091,0.0,0.0,0.0,0.0,0.0,0.0,0.0,0.0,0.0,0.0,0.0,0.0,0.0,0.0,0.0,0.0,0.0,0.0,0.0,0.0,0.0,0.0,0.0,-4.2124,0.0,0.0,0.0,0.0,0.0,0.0,0.0,0.0,0.0,-4.1814,-4.2207,-4.26,-4.289,-4.3325,-4.3677,-4.3822,0.0,0.0,0.0,0.0,0.0,0.0,0.0,-4.4691,-4.5167,-4.5229,-4.5291,-4.5436,-4.5457,-4.5457,-4.5774,0.0,0.0,-4.5812,-4.6485,-4.7308,-4.7746,-4.8434,-4.9091,-4.9559,-5.0149,-5.0613,0.0,0.0,0.0,0.0,0.0,0.0,0.0,0.0,-4.2042,-4.2207,0.0,-4.2186,0.0,0.0,0.0,0.0,0.0,0.0,0.0,0.0,-4.3656,-4.4112,-4.494,-4.494,-4.4981,-4.5002,-4.494,-4.494,-4.4877,-4.3201,0.0,0.0,0.0,0.0,0.0,0.0,-4.4774,-4.5664,-4.6119,-4.6575,-4.703,-4.7465,-4.7672,-4.7631,-4.6844,-4.6409,-4.6368,-4.554,-4.5064,-4.5022,-4.4174,0.0,0.0,0.0,0.0,0.0,0.0,0.0,0.0,0.0,0.0,0.0,0.0,0.0,0.0,0.0,0.0,0.0,0.0,0.0,0.0,-4.229,0.0,0.0,0.0,0.0,0.0,0.0,0.0,0.0,0.0,0.0,-4.2393,-4.2704,-4.2952,-4.2973,0.0,0.0,0.0,0.0,-4.4484,-4.494,-4.5022,-4.5022,-4.5064,-4.5084,-4.5229,-4.5685,0.0,0.0,-4.6368,-4.643,-4.6471,-4.6451,-4.6823,-4.6841,-4.6499,-4.7097,-4.7648,-4.8139,-4.896,-4.9875,-5.1012,-5.1322,-5.1631,-4.3242,0.0,0.0,0.0,0.0,-4.2,-4.2062,-4.2062,-4.2207,-4.2249,-4.2249,-4.2249,0.0,0.0,0.0,0.0,0.0,0.0,-4.3718,-4.4588,-4.4608,-4.4733,-4.5002,-4.5002,-4.5002,-4.5002,-4.5002,-4.5002,-4.496,-4.4463,-4.4215,-4.4215,0.0,0.0,0.0,0.0,-4.525,-4.6099,-4.6285,-4.672,-4.7486,-4.761,-4.7672,-4.7672,-4.7424,-4.7299,-4.7299,-4.6761,-4.6306,-4.5975,-4.5416,0.0,0.0,0.0,0.0,0.0,0.0,0.0,0.0,0.0,0.0,0.0,0.0,0.0,0.0,0.0,0.0,0.0,0.0,0.0,-4.3201,-4.2932,-4.2725,0.0,0.0,0.0,0.0,0.0,0.0,0.0,0.0,0.0,-4.4112,-4.3739,-4.3532,0.0,0.0,-4.465,-4.4774,-4.4795,-4.496,-4.5416,0.0,0.0,0.0,-4.6451,-4.6596,-4.7051,-4.7382,-4.7755,-4.821,-4.8293,-4.8293,-4.8293,-4.8396,-4.8524,-4.8338,-4.8378,-4.8768,-4.9261,-5.0283,-5.1246,-5.1923,-5.2249,-5.2574,-4.4339,-4.3346,-4.3346,-4.3346,-4.3346,-4.3346,-4.3346,-4.3346,-4.3346,-4.3346,-4.3346,-4.3346,-4.3346,-4.3346,-4.3346,0.0,0.0,0.0,-4.4567,-4.5271,-4.5271,-4.5457,-4.5788,-4.5809,-4.5892,-4.6057,-4.6057,-4.6057,-4.6057,-4.6057,-4.6057,-4.6016,0.0,0.0,-4.5271,-4.5436,-4.5892,-4.6596,-4.6968,-4.7424,-4.7941,-4.8148,-4.8314,-4.85,-4.8148,-4.7962,-4.7962,-4.7527,-4.7175,-4.6885,-4.6285,-4.5685,0.0,0.0,0.0,0.0,0.0,0.0,0.0,0.0,0.0,0.0,0.0,-4.1545,0.0,0.0,0.0,0.0,-4.3097,-4.3656,-4.4112,-4.3905,0.0,0.0,0.0,0.0,0.0,0.0,0.0,-4.4091,-4.4153,-4.436,-4.4919,-4.4815,-4.467,-4.4588,-4.496,-4.5333,-4.5498,0.0,-4.6037,-4.6658,-4.674,-4.701,-4.7713,-4.7838,-4.7982,-4.8438,-4.8893,-4.9349,-4.9783,-4.9866,-4.9949,-5.0094,-5.0135,-5.0135,-5.0135,-5.0227,-5.0241,-5.0103,-5.0995,-5.1976,-5.2506,-5.3012,-5.3348,-4.5147,-4.5105,-4.5126,-4.5084,-4.5002,-4.5002,-4.4981,-4.5002,-4.4981,-4.5002,-4.5002,-4.5002,-4.5002,-4.5002,-4.5022,0.0,0.0,-4.5147,-4.5416,-4.585,-4.583,-4.6285,-4.7072,-4.7092,-4.7299,-4.7672,-4.7672,-4.7672,-4.7651,-4.7713,-4.7734,-4.7693,-4.6119,-4.5498,-4.585,-4.6244,-4.6678,-4.7134,-4.7982,-4.8459,-4.8541,-4.8955,-4.9369,-4.9783,-4.8976,-4.8521,-4.8479,-4.8086,-4.7817,-4.7713,-4.6947,-4.6471,-4.6368,0.0,0.0,0.0,0.0,0.0,0.0,0.0,0.0,0.0,0.0,0.0,0.0,0.0,0.0,0.0,-4.3863,0.0,-4.496,-4.5002,0.0,0.0,0.0,-4.5043,-4.5043,-4.5084,-4.5105,-4.5147,0.0,0.0,-4.5209,0.0,-4.6202,-4.5374,-4.5602,-4.5995,-4.643,-4.6865,-4.7465,-4.8293,-4.85,-4.8686,-4.9142,-4.9266,-4.9473,-4.9949,-5.0322,-5.0736,-5.117,-5.1274,-5.146,-5.1771,-5.1895,-5.1874,-5.1895,-5.2143,-5.22,-5.091,-5.1435,-5.2409,-5.317,-5.3862,-5.4229,-4.6347,-4.6057,-4.6409,-4.5954,-4.5002,-4.5002,-4.5002,-4.5002,-4.5002,-4.5002,-4.5002,-4.5002,-4.5002,-4.5002,-4.5374,-4.5705,-4.6037,-4.6389,-4.6782,-4.7196,-4.7217,-4.732,-4.7527,-4.7527,-4.7589,-4.7672,-4.7672,-4.7672,-4.7693,-4.8045,-4.821,-4.821,-4.8127,-4.7796,-4.7237,-4.732,-4.7589,-4.8065,-4.8624,-4.9224,-4.9908,-5.0032,-5.0156,-5.0259,-5.0052,-4.9763,-4.9431,-4.9328,-4.8935,-4.8252,-4.8003,-4.7589,-4.6906,-4.6223,0.0,0.0,0.0,0.0,0.0,0.0,0.0,0.0,0.0,-4.2911,-4.3263,0.0,-4.4132,0.0,-4.4691,-4.4877,-4.4981,-4.5002,0.0,0.0,-4.5312,-4.5519,-4.5519,-4.5809,-4.6161,-4.6513,-4.6554,-4.6678,-4.701,-4.7527,-4.7817,-4.7589,-4.7361,-4.7382,-4.7817,-4.7982,-4.8376,-4.9266,-4.9742,-5.0094,-5.0549,-5.0943,-5.1294,-5.1771,-5.1936,-5.2164,-5.2599,-5.2702,-5.2723,-5.2826,-5.2847,-5.2847,-5.2868,-5.295,-5.2909,-5.2657,-5.3345,-5.4134,-5.4698,-5.5216,-5.5574,-4.7175,-4.6968,-4.7217,-4.6885,-4.6161,-4.5768,-4.5602,-4.5602,-4.5602,-4.5705,-4.5912,-4.6099,-4.6202,-4.6202,-4.6451,-4.672,-4.6947,-4.7217,-4.7444,-4.7672,-4.7672,-4.79,-4.8293,-4.8293,-4.8521,-4.8893,-4.8893,-4.8914,-4.8914,-4.9162,-4.9287,-4.9287,-4.9535,-4.9411,-4.8914,-4.8707,-4.8748,-4.8997,-4.9431,-5.0011,-5.0673,-5.0529,-5.0508,-5.0715,-5.0529,-5.0301,-5.0052,-5.0052,-4.9804,-4.9307,-4.8914,-4.8459,-4.7962,-4.7113,-4.6533,0.0,0.0,0.0,0.0,0.0,0.0,0.0,0.0,0.0,0.0,0.0,-4.5188,-4.585,-4.5892,-4.5975,-4.6161,-4.6182,-4.6202,-4.6202,-4.643,-4.6575,-4.6575,-4.6989,-4.7361,-4.761,-4.7817,-4.8024,-4.8272,-4.8707,-4.9059,-4.9266,-4.9245,-4.9224,-4.9287,-4.9452,-4.9928,-5.0818,-5.1191,-5.1501,-5.1957,-5.2247,-5.2578,-5.2992,-5.3095,-5.3302,-5.3944,-5.4068,-5.413,-5.4337,-5.4379,-5.4379,-5.4379,-5.4379,-5.4379,-5.4568,-5.4926,-5.5362,-5.4988,-5.5366,-5.5731,-4.792,-4.7858,-4.792,-4.792,-4.7796,-4.701,-4.6637,-4.6513,-4.6513,-4.674,-4.7134,-4.7527,-4.7672,-4.7672,-4.7755,-4.7775,-4.7775,-4.79,-4.7941,-4.7962,-4.8003,-4.8459,-4.9224,-4.9245,-4.9659,-5.0404,-5.0487,-5.0508,-5.0508,-5.0632,-5.0673,-5.0694,-5.0736,-5.0777,-5.0756,-5.0384,-5.0135,-5.0032,-5.0446,-5.0901,-5.1357,-5.0984,-5.0963,-5.1336,-5.0984,-5.0736,-5.0694,-5.0632,-5.057,-5.0487,-4.9701,-4.9245,-4.9204,-4.8065,-4.7382,0.0,-4.6947,0.0,0.0,0.0,0.0,0.0,0.0,0.0,0.0,-4.5726,-4.6368,-4.7134,-4.7258,-4.7444,-4.7817,-4.7858,-4.7858,-4.7858,-4.792,-4.7941,-4.7962,-4.8355,-4.8624,-4.8645,-4.8976,-4.9245,-4.9349,-4.9721,-5.0177,-5.0632,-5.1046,-5.1212,-5.0984,-5.1087,-5.1543,-5.2536,-5.2764,-5.3054,-5.3447,-5.3551,-5.3696,-5.4048,-5.413,-5.4379,-5.5082,-5.5227,-5.5372,-5.5724,-5.5745,-5.5786,-5.5869,-5.5828,-5.5828,-5.5745,-5.6092,-5.6018,-5.5341,-5.5515,-5.5916,-4.9142,-4.8852,-4.9204,-4.9142,-4.879,-4.8624,-4.8127,-4.7444,-4.7424,-4.7486,-4.7568,-4.7651,-4.7672,-4.7713,-4.8065,-4.8231,-4.8293,-4.9017,-4.9369,-4.9369,-4.9742,-4.999,-5.0156,-5.0156,-5.0259,-5.0425,-5.0798,-5.0984,-5.1005,-5.1729,-5.2102,-5.2122,-5.2474,-5.2661,-5.2661,0.0,0.0,0.0,-5.1874,-5.2329,-5.2764,-5.2702,-5.2702,-5.2785,-5.2702,0.0,-5.2122,-5.1729,-5.1357,-5.0984,-5.0446,0.0,0.0,0.0,0.0,0.0,0.0,0.0,0.0,0.0,0.0,0.0,-4.8396,-4.7838,-4.6782,-4.7403,-4.7941,-4.8107,-4.8459,-4.8707,-4.879,-4.881,-4.881,-4.881,-4.9142,-4.9369,-4.9369,-4.9763,-5.0032,-5.0032,-5.0115,-5.0301,-5.0694,-5.1129,-5.1584,-5.2019,-5.2495,-5.2888,-5.3137,-5.2619,-5.2599,-5.3427,-5.4151,-5.4793,-5.5289,-5.5289,-5.5227,-5.5476,-5.5496,-5.5538,-5.5724,-5.5766,-5.5745,-5.591,-5.5869,-5.589,-5.589,-5.5869,-5.5931,-5.589,-5.6085,-5.6154,-5.6761,-5.7249,-5.7841,-5.0425,0.0,-5.0425,-5.0301,0.0,-4.9825,-4.9473,-4.8997,-4.8562,-4.85,-4.8728,-4.8935,-4.9038,-4.9038,-4.9287,-4.939,-4.9411,-4.9866,-5.0073,-5.0094,-5.0322,-5.0673,-5.1108,-5.1108,-5.1336,-5.1791,-5.2019,-5.2122,-5.2164,-5.2599,-5.2826,-5.2826,-5.3054,-5.3178,-5.3199,-5.3613,-5.3509,-5.2826,-5.3033,-5.3385,-5.382,-5.3633,-5.3509,-5.3509,0.0,0.0,0.0,0.0,0.0,0.0,0.0,0.0,0.0,0.0,0.0,-5.0756,-5.0549,-5.0425,-5.0425,-5.0425,-5.0404,-5.0425,-5.0404,-4.9845,-4.8479,-4.881,-4.9142,-4.9369,-4.9597,-4.9825,-5.0052,-5.0073,-5.0177,-5.0404,-5.0632,-5.0756,-5.0798,-5.117,-5.1439,-5.1481,-5.1646,-5.1895,-5.2102,-5.2329,-5.2661,-5.3095,-5.3551,-5.4006,-5.4358,-5.3944,-5.384,-5.4689,-5.5186,-5.5579,-5.5807,-5.5869,-5.5973,-5.6138,-5.6221,-5.6304,-5.6511,-5.6552,-5.6552,-5.6552,-5.6531,-5.6531,-5.6531,-5.6552,-5.6531,-5.6531,-5.6552,-5.6926,-5.7885,-5.7934,-5.7998,-5.1708,-5.2019,-5.1626,-5.1481,-5.1439,-5.1067,-5.0901,-5.0839,0.0,0.0,0.0,-5.0259,-5.0404,-5.0404,-5.0404,-5.0404,-5.0425,-5.0591,-5.0673,-5.0673,-5.0839,-5.1315,-5.2019,-5.204,-5.2454,-5.3157,-5.3261,-5.3302,-5.3302,-5.3385,-5.3468,-5.353,-5.353,-5.3571,-5.3696,-5.4399,-5.4627,-5.4337,-5.4255,-5.4399,-5.4751,-5.4399,-5.4213,-5.4192,-5.3861,-5.3654,-5.3654,-5.3509,-5.3427,-5.3406,-5.2909,-5.2619,-5.2599,-5.2247,-5.206,-5.204,-5.204,-5.204,-5.206,-5.204,-5.204,-5.204,-5.204,-5.1501,-5.0218,-5.0197,-5.0384,-5.0756,-5.086,-5.1067,-5.1439,-5.1481,-5.1626,-5.1998,-5.204,-5.204,-5.206,-5.2371,-5.2578,-5.2661,-5.2888,-5.324,-5.3364,-5.3406,-5.3633,-5.413,-5.4544,-5.4938,-5.5269,-5.5124,-5.5124,-5.5766,-5.6035,-5.6138,-5.6138,-5.6159,-5.6262,-5.6614,-5.6676,-5.6821,-5.7111,-5.7215,-5.7215,-5.7152,-5.7215,-5.7194,-5.7215,-5.7256,-5.7339,-5.7359,-5.7422,-5.7663,-5.8598,-5.8463,-5.8342,-5.293,-5.2971,-5.2909,-5.2888,-5.2888,-5.2826,-5.2806,-5.264,-5.0984,-5.028,-5.0342,-5.0384,-5.0404,-5.0404,-5.0404,-5.0404,-5.0466,-5.1253,-5.1605,0.0,-5.2433,-5.2868,-5.2992,-5.2992,-5.3054,-5.3199,-5.3571,-5.3758,-5.3799,-5.4151,-5.4524,-5.4855,-5.4896,-5.5082,-5.5476,-5.5621,-5.5848,-5.6159,-5.5786,-5.5621,-5.5683,-5.5621,-5.56,-5.56,-5.5517,-5.5496,-5.5476,-5.4751,-5.4358,-5.4337,-5.3551,-5.3095,-5.3095,-5.3033,-5.2992,-5.2992,-5.2992,-5.2992,-5.2992,-5.2992,-5.2992,-5.2971,-5.2992,-5.2578,-5.1646,-5.1874,-5.2143,-5.2205,-5.2495,-5.2806,-5.2888,-5.2868,-5.2909,-5.2992,-5.3013,-5.2992,-5.3033,-5.3116,-5.3178,-5.3199,-5.3137,-5.3571,-5.4213,-5.4337,-5.4648,-5.5352,-5.5517,-5.5828,-5.62,-5.6324,-5.6324,-5.649,-5.6801,-5.7008,-5.6945,-5.7028,-5.7049,-5.7111,-5.7152,-5.7215,-5.7318,-5.7339,-5.7339,-5.7256,-5.7318,-5.7297,-5.7297,-5.7566,-5.7773,-5.7836,-5.8063,-5.8718,-5.9709,-5.9719,-5.9862,-5.3696,-5.3861,-5.3654,-5.3551,-5.353,-5.3282,-5.3178,-5.3116,-5.2288,-5.1915,-5.1915,-5.1915,-5.1915,-5.1915,-5.1915,-5.1915,-5.1936,-5.2371,-5.2557,-5.2578,-5.2992,-5.3302,-5.353,-5.353,-5.3675,-5.3923,-5.4379,-5.4586,-5.4627,-5.5041,-5.5352,-5.5559,-5.5559,-5.591,-5.6552,-5.6614,-5.6966,-5.7629,-5.6738,-5.6366,-5.6594,-5.6366,-5.6242,-5.6242,-5.6014,-5.5869,-5.5869,-5.5476,-5.5269,-5.5269,-5.4875,-5.4648,-5.4648,-5.4648,-5.4648,-5.4648,-5.4648,-5.4648,-5.4648,-5.4648,-5.4648,-5.4648,-5.4648,-5.4482,-5.4048,-5.3302,-5.2868,-5.2868,-5.3075,-5.3385,-5.3861,-5.3923,-5.411,-5.4606,-5.4648,-5.4648,-5.4648,-5.4648,-5.4648,-5.4648,-5.4627,-5.4813,-5.5207,-5.5248,-5.5372,-5.5848,-5.6055,-5.6428,-5.6883,-5.7152,-5.7194,-5.7008,-5.709,-5.7194,-5.7256,-5.7463,-5.7566,-5.7608,-5.7815,-5.796,-5.798,-5.798,-5.796,-5.798,-5.796,-5.798,-5.796,-5.8146,-5.827,-5.8312,-5.8415,-5.8989,-5.9803,-6.0612,-6.1064,-5.4503,-5.4793,-5.4461,-5.4296,-5.4275,-5.3944,-5.3799,-5.3778,-5.3675,-5.3696,-5.3737,-5.3385,-5.3178,-5.3178,-5.3178,-5.3178,-5.3199,-5.3282,-5.3323,-5.3344,-5.353,-5.382,-5.413,-5.4255,-5.4503,-5.4855,-5.5289,-5.5496,-5.5538,-5.5952,-5.6221,-5.6324,-5.6345,-5.6738,-5.7525,-5.7442,-5.7794,-5.8498,-5.7566,-5.7194,-5.7504,-5.7194,-5.7028,-5.7008,-5.6697,-5.649,-5.649,-5.6387,-5.6324,-5.6324,-5.6138,-5.6035,-5.6014,-5.5931,-5.5869,-5.5869,-5.5869,-5.5869,-5.5869,-5.5869,-5.5869,-5.5869,-5.5869,-5.5869,-5.5766,-5.4627,-5.3778,-5.3778,-5.3861,-5.413,-5.4689,-5.4834,-5.5124,-5.5786,-5.5869,-5.5766,-5.5848,-5.5869,-5.5869,-5.5869,-5.5869,-5.5869,-5.5993,-5.6035,-5.6138,-5.6387,-5.6656,-5.7028,-5.7484,-5.7856,-5.7877,-5.767,-5.7546,-5.7587,-5.7566,-5.7836,-5.8043,-5.8063,-5.8332,-5.8477,-5.8539,-5.8581,-5.8601,-5.8539,-5.856,-5.8539,-5.8581,-5.8705,-5.8746,-5.8767,-5.8912,-5.9385,-6.0408,-6.1424,-6.1856,-5.5683,-5.5745,-5.5662,-5.5683,-5.5621,-5.56,-5.5559,-5.5496,-5.5165,-5.5227,-5.5372,-5.3923,-5.324,-5.3178,-5.324,-5.3282,-5.3302,-5.3613,-5.382,-5.3944,-5.4627,-5.502,-5.5124,-5.5476,-5.5703,-5.5786,-5.62,-5.6387,-5.6387,-5.6842,-5.7297,-5.7691,-5.7732,-5.7939,-5.8374,-5.8063,-5.8125,-5.8601,-5.8498,-5.8436,-5.8477,-5.8436,-5.8415,-5.8415,-5.8374,-5.8353,-5.8229,-5.7939,-5.7732,-5.767,-5.6945,-5.6511,-5.649,-5.6138,-5.589,-5.591,-5.589,-5.5869,-5.589,-5.5869,-5.591,-5.5869,-5.591,-5.5931,-5.5931,-5.5745,-5.5621,-5.56,-5.56,-5.5559,-5.5745,-5.5724,-5.5786,-5.5952,-5.5973,-5.5869,-5.5931,-5.5869,-5.5869,-5.5869,-5.6055,-5.6035,-5.6531,-5.6614,-5.6863,-5.7504,-5.7629,-5.7856,-5.825,-5.8457,-5.8539,-5.8477,-5.8477,-5.8457,-5.8436,-5.8498,-5.8539,-5.8539,-5.8581,-5.8705,-5.8767,-5.8767,-5.8643,-5.9015,-5.885,-5.8891,-5.8912,-5.8933,-5.9285,-5.9471,-5.9845,-6.0261,-6.1278,-6.2308,-6.2705,-5.5869,-5.5869,-5.5869,-5.5869,-5.5869,-5.5869,-5.5869,-5.5848,-5.5683,-5.5703,-5.5786,-5.5082,-5.4772,-5.4772,-5.4772,-5.4772,-5.4793,-5.4958,-5.5186,-5.5455,-5.5848,-5.6138,-5.6407,-5.6573,-5.6552,-5.6345,-5.6738,-5.6821,-5.6718,-5.7277,-5.7732,-5.7939,-5.8187,-5.856,-5.8974,-5.8829,-5.8953,-5.9409,-5.9429,-5.9429,-5.9367,-5.8891,-5.8622,-5.8622,-5.8622,-5.8622,-5.8601,-5.8415,-5.8332,-5.8312,-5.796,-5.7773,-5.7773,-5.7587,-5.7359,-5.709,-5.6821,-5.6676,-5.6676,-5.6676,-5.6676,-5.6676,-5.6676,-5.6676,-5.6676,-5.6925,-5.709,-5.6987,-5.6366,-5.5973,-5.6242,-5.6283,-5.6387,-5.6614,-5.6676,-5.6676,-5.6676,-5.6925,-5.709,-5.709,-5.7318,-5.7525,-5.7732,-5.7773,-5.7918,-5.827,-5.8332,-5.8436,-5.8622,-5.8829,-5.8995,-5.9057,-5.9243,-5.914,-5.8829,-5.8871,-5.8995,-5.9078,-5.9264,-5.9409,-5.945,-5.9699,-5.9843,-5.9802,-5.9947,-6.0092,-6.032,-6.032,-6.0506,-6.0485,-6.118,-6.2043,-6.2463,-6.33,-6.3707,-5.6242,-5.6242,-5.6242,-5.6242,-5.6242,-5.6242,-5.6242,-5.6221,-5.6117,-5.6138,-5.6221,-5.6117,-5.6138,-5.62,-5.5993,-5.5869,-5.5869,-5.5869,-5.6055,-5.6366,-5.649,-5.6718,-5.7028,-5.7173,-5.7049,-5.6883,-5.7339,-5.7566,-5.7546,-5.8125,-5.8477,-5.8519,-5.8705,-5.9036,-5.9429,-5.9388,-5.9595,-6.0113,-6.0175,-6.0237,-6.0257,-5.9719,-5.9243,-5.9015,-5.8995,-5.8974,-5.8995,-5.8995,-5.8995,-5.8974,-5.8871,-5.8808,-5.8788,-5.8684,-5.8457,-5.8125,-5.7794,-5.7608,-5.7608,-5.7608,-5.7608,-5.7608,-5.7608,-5.7608,-5.767,-5.7918,-5.8084,-5.8022,-5.7194,-5.6842,-5.7049,-5.7132,-5.7277,-5.7566,-5.7608,-5.7608,-5.7629,-5.7918,-5.8084,-5.8146,-5.825,-5.8622,-5.8601,-5.856,-5.8581,-5.8746,-5.8788,-5.8953,-5.914,-5.9512,-5.974,-5.9843,-6.0175,-6.003,-5.9367,-5.9492,-5.9678,-5.9906,-6.0195,-6.0361,-6.0361,-6.0692,-6.0837,-6.063,-6.1127,-6.1251,-6.0982,-6.1168,-6.1334,-6.1548,-6.2188,-6.2826,-6.291,-6.3861,-6.4578,-5.7173,-5.7152,-5.7152,-5.7111,-5.7152,-5.7132,-5.7132,-5.7049,-5.6697,-5.6759,-5.7028,-5.6697,-5.6759,-5.7049,-5.6304,-5.589,-5.591,-5.5952,-5.5993,-5.6117,-5.6428,-5.6594,-5.6635,-5.7008,-5.7235,-5.7339,-5.8084,-5.885,-5.9574,-5.9781,-5.9906,-5.9843,-5.9492,-5.9533,-5.9885,-5.9636,-5.9781,-6.0568,-6.0651,-6.0837,-6.1189,-6.1189,-6.0692,-6.0009,-5.9926,-5.9926,-5.9926,-5.9926,-5.9926,-5.9926,-5.9512,-5.9285,-5.9243,-5.8871,-5.8622,-5.8581,-5.8539,-5.8519,-5.8498,-5.8477,-5.8477,-5.8498,-5.8436,-5.8498,-5.8415,-5.8519,-5.8581,-5.8581,-5.8457,-5.8415,-5.8498,-5.8353,-5.8353,-5.8436,-5.8498,-5.8477,-5.8498,-5.8498,-5.8581,-5.8581,-5.8726,-5.8891,-5.8746,-5.8622,-5.8974,-5.9264,-5.9326,-5.9574,-6.0257,-6.0547,-6.0713,-6.0982,-6.1127,-6.1106,-6.0692,-6.0464,-6.0713,-6.0858,-6.0878,-6.1189,-6.1272,-6.1313,-6.1313,-6.1334,-6.1479,-6.152,-6.1396,-6.1396,-6.1479,-6.1735,-6.2611,-6.3038,-6.3612,-6.4201,-6.4752,-5.7215,-5.7215,-5.7215,-5.7215,-5.7215,-5.7215,-5.7215,-5.7215,-5.707,-5.707,-5.7194,-5.7049,-5.707,-5.7215,-5.6883,-5.6738,-5.6738,-5.6738,-5.6904,-5.7173,-5.7359,-5.7587,-5.7898,-5.8332,-5.8374,-5.825,-5.8746,-5.9057,-5.9098,-5.9388,-5.9699,-6.0009,-6.0133,-6.0402,-6.0754,-6.0692,-6.0796,-6.1065,-6.1106,-6.1189,-6.1355,-6.1355,-6.1168,-6.0878,-6.0858,-6.0858,-6.0858,-6.0858,-6.0734,-6.0444,-6.0257,-6.005,-5.974,-5.9305,-5.9057,-5.9015,-5.8767,-5.8622,-5.8622,-5.8622,-5.8622,-5.8622,-5.8622,-5.8664,-5.8664,-5.8871,-5.9057,-5.9098,-5.9347,-5.9595,-5.9678,-5.916,-5.8622,-5.8622,-5.8622,-5.8684,-5.8684,-5.8871,-5.9057,-5.914,-5.9512,-6.003,-6.0175,-6.034,-6.0423,-6.0568,-6.0609,-6.0754,-6.0961,-6.1106,-6.1189,-6.1292,-6.1355,-6.1396,-6.1603,-6.1251,-6.1168,-6.1251,-6.1313,-6.1334,-6.1375,-6.1727,-6.1831,-6.1934,-6.1996,-6.2203,-6.2245,-6.2245,-6.2203,-6.2874,-6.3501,-6.3931,-6.436,-6.5001,-6.5514,-5.7215,-5.7215,-5.7215,-5.7318,-5.7442,-5.7442,-5.7525,-5.7649,-5.7525,-5.7525,-5.7629,-5.7525,-5.7525,-5.7649,-5.767,-5.767,-5.7649,-5.7525,-5.7608,-5.7918,-5.8063,-5.8312,-5.8601,-5.8933,-5.8912,-5.8746,-5.9243,-5.9409,-5.9367,-5.974,-6.0113,-6.0444,-6.0754,-6.1044,-6.1292,-6.1355,-6.1396,-6.152,-6.1582,-6.1624,-6.1748,-6.1769,-6.1769,-6.1769,-6.1769,-6.1624,-6.1375,-6.1355,-6.121,-6.0941,-6.0899,-6.0754,-6.0444,-6.0133,-5.9968,-5.9926,-5.9678,-5.9492,-5.9492,-5.9492,-5.9512,-5.9492,-5.9512,-5.9492,-5.9512,-5.9781,-5.9926,-6.003,-6.0216,-6.0589,-6.063,-6.005,-5.9512,-5.9492,-5.9492,-5.9492,-5.9512,-5.9781,-5.9947,-6.0071,-6.0485,-6.0982,-6.1272,-6.1313,-6.1292,-6.1355,-6.1355,-6.1375,-6.152,-6.1562,-6.1644,-6.1748,-6.1831,-6.2079,-6.2327,-6.2265,-6.1976,-6.1996,-6.1955,-6.1831,-6.1872,-6.2203,-6.2431,-6.2514,-6.2721,-6.299,-6.3114,-6.3114,-6.3554,-6.3993,-6.4452,-6.4888,-6.5541,-6.6191,-6.6407,-5.7256,-5.7297,-5.7235,-5.7566,-5.7898,-5.7918,-5.8187,-5.8394,-5.8084,-5.8125,-5.8353,-5.8105,-5.8125,-5.8457,-5.8457,-5.8539,-5.8415,-5.8146,-5.798,-5.8022,-5.8374,-5.856,-5.8622,-5.8705,-5.8829,-5.8871,-5.9595,-6.0216,-6.0589,-6.0941,-6.1189,-6.1292,-6.1313,-6.1396,-6.1396,-6.1499,-6.1644,-6.1955,-6.2079,-6.2265,-6.2638,-6.2679,-6.2679,-6.27,-6.27,-6.2327,-6.1541,-6.1458,-6.1437,-6.1375,-6.1355,-6.1355,-6.1251,-6.1189,-6.1272,-6.1168,-6.123,-6.1251,-6.123,-6.1148,-6.1044,-6.1044,-6.121,-6.1044,-6.1003,-6.1085,-6.1127,-6.1106,-6.1168,-6.1292,-6.1313,-6.121,-6.1106,-6.1292,-6.1023,-6.1023,-6.1127,-6.1272,-6.1334,-6.1251,-6.1334,-6.1355,-6.1375,-6.1499,-6.1582,-6.1624,-6.1624,-6.1789,-6.2162,-6.2286,-6.2327,-6.2576,-6.27,-6.2866,-6.3135,-6.3321,-6.3052,-6.2845,-6.2783,-6.27,-6.2762,-6.3011,-6.3135,-6.3238,-6.3362,-6.3632,-6.3632,-6.3632,-6.4138,-6.4623,-6.5192,-6.5832,-6.6383,-6.6973,-6.7082,-5.8167,-5.8167,-5.8187,-5.825,-5.8394,-5.8394,-5.8498,-5.8601,-5.8436,-5.8477,-5.856,-5.8457,-5.8477,-5.8581,-5.8622,-5.8622,-5.8622,-5.8746,-5.8705,-5.8477,-5.856,-5.8643,-5.8684,-5.8933,-5.9409,-5.9988,-6.032,-6.0692,-6.1085,-6.1292,-6.1479,-6.1748,-6.1831,-6.1976,-6.2245,-6.2265,-6.2369,-6.2493,-6.2804,-6.3052,-6.3176,-6.3466,-6.3632,-6.3632,-6.3632,-6.3466,-6.3197,-6.2617,-6.2141,-6.1851,-6.1831,-6.1686,-6.1417,-6.1355,-6.1355,-6.1355,-6.1355,-6.1355,-6.1355,-6.1375,-6.1396,-6.1355,-6.1375,-6.1355,-6.1355,-6.1375,-6.1375,-6.1375,-6.1355,-6.1437,-6.1748,-6.181,-6.1748,-6.1396,-6.1355,-6.1417,-6.1479,-6.1437,-6.1499,-6.1769,-6.1831,-6.1934,-6.2183,-6.2265,-6.2369,-6.2638,-6.2679,-6.2845,-6.3238,-6.328,-6.3445,-6.3611,-6.3652,-6.3569,-6.3756,-6.3859,-6.3756,-6.3569,-6.3507,-6.3342,-6.3466,-6.3652,-6.3797,-6.3963,-6.4087,-6.4149,-6.4149,-6.4394,-6.4903,-6.5265,-6.5667,-6.6309,-6.7167,-6.7474,-6.7824,-5.8622,-5.8622,-5.8622,-5.8726,-5.885,-5.8871,-5.8974,-5.9078,-5.8933,-5.8953,-5.9078,-5.8933,-5.8974,-5.9098,-5.9119,-5.9119,-5.916,-5.9429,-5.9409,-5.916,-5.9119,-5.9119,-5.9181,-5.9595,-6.0175,-6.0837,-6.1106,-6.1313,-6.1603,-6.1769,-6.1996,-6.2245,-6.2452,-6.2659,-6.2948,-6.3114,-6.3197,-6.3238,-6.3487,-6.3632,-6.3694,-6.3921,-6.4066,-6.4066,-6.4066,-6.4066,-6.4025,-6.3487,-6.299,-6.2597,-6.239,-6.212,-6.1851,-6.1851,-6.1851,-6.1851,-6.1851,-6.1851,-6.1831,-6.1893,-6.1851,-6.1851,-6.1851,-6.1851,-6.1851,-6.1851,-6.1851,-6.1851,-6.2038,-6.2224,-6.2493,-6.2721,-6.2617,-6.239,-6.2079,-6.1955,-6.2058,-6.2265,-6.2472,-6.2783,-6.2824,-6.2928,-6.3114,-6.3197,-6.33,-6.3569,-6.3632,-6.3673,-6.3983,-6.4025,-6.4087,-6.4087,-6.3963,-6.4025,-6.4253,-6.4335,-6.4397,-6.4294,-6.419,-6.3963,-6.388,-6.4128,-6.4335,-6.4584,-6.477,-6.4791,-6.4791,-6.5201,-6.5426,-6.591,-6.6494,-6.7332,-6.7884,-6.8062,-6.837,-5.8705,-5.8684,-5.8684,-5.8974,-5.9326,-5.9347,-5.9533,-5.9823,-5.9533,-5.9554,-5.9761,-5.9492,-5.9554,-5.9885,-5.9843,-5.9864,-6.003,-6.0009,-6.0071,-6.005,-6.0071,-6.0071,-6.0133,-6.0444,-6.0899,-6.1375,-6.1769,-6.1996,-6.2079,-6.2452,-6.2721,-6.2762,-6.3135,-6.3383,-6.3466,-6.3839,-6.3963,-6.3921,-6.4046,-6.4108,-6.4108,-6.419,-6.4211,-6.4232,-6.4253,-6.4253,-6.4253,-6.4108,-6.3839,-6.3404,-6.3011,-6.2824,-6.2762,-6.2762,-6.2762,-6.2762,-6.2762,-6.2762,-6.2762,-6.2762,-6.2762,-6.2762,-6.2762,-6.2762,-6.2762,-6.2762,-6.2762,-6.2783,-6.3073,-6.3321,-6.3425,-6.3652,-6.3839,-6.3901,-6.3176,-6.2969,-6.3342,-6.3694,-6.3735,-6.3859,-6.4025,-6.4025,-6.3921,-6.3942,-6.3983,-6.4087,-6.4108,-6.4149,-6.4273,-6.4377,-6.4211,-6.4253,-6.4397,-6.4501,-6.4749,-6.4791,-6.4832,-6.4811,-6.4749,-6.4584,-6.4397,-6.4625,-6.4791,-6.5081,-6.5225,-6.5288,-6.5308,-6.5618,-6.605,-6.6663,-6.7401,-6.8311,-6.8491,-6.8562,-6.8719,-5.9636,-5.9636,-5.9636,-5.9699,-5.9802,-5.9802,-5.9864,-5.9968,-5.9864,-5.9885,-5.9968,-5.9885,-5.9906,-5.9988,-6.003,-6.0175,-6.0423,-6.0485,-6.0692,-6.0961,-6.0982,-6.0982,-6.0982,-6.1106,-6.1417,-6.1831,-6.2038,-6.2203,-6.2534,-6.2969,-6.3176,-6.3197,-6.3652,-6.388,-6.3921,-6.4046,-6.4066,-6.4108,-6.4418,-6.4542,-6.4604,-6.4874,-6.506,-6.506,-6.5039,-6.5039,-6.4998,-6.4729,-6.4335,-6.3921,-6.3776,-6.3694,-6.3652,-6.3632,-6.3611,-6.3611,-6.3652,-6.3673,-6.3673,-6.3652,-6.3673,-6.3694,-6.3611,-6.3694,-6.3694,-6.3694,-6.3694,-6.3714,-6.3839,-6.388,-6.3901,-6.4025,-6.4087,-6.4046,-6.3839,-6.3735,-6.3859,-6.3983,-6.4066,-6.4066,-6.4108,-6.4128,-6.4149,-6.4149,-6.4253,-6.448,-6.4584,-6.4646,-6.4791,-6.4915,-6.4832,-6.4998,-6.5122,-6.5143,-6.5205,-6.5225,-6.5246,-6.5267,-6.5225,-6.5184,-6.506,-6.5122,-6.5246,-6.537,-6.5329,-6.537,-6.5619,-6.5785,-6.6529,-6.7207,-6.7883,-6.8354,-6.8802,-6.8938,-6.8938,-5.9988,-6.0009,-6.0195,-6.0154,-6.003,-6.0195,-6.0175,-6.0071,-6.0216,-6.0278,-6.032,-6.0485,-6.0547,-6.0568,-6.0568,-6.0692,-6.0941,-6.0961,-6.1085,-6.1313,-6.152,-6.1603,-6.1624,-6.1644,-6.1872,-6.2307,-6.2514,-6.2741,-6.3031,-6.3445,-6.3632,-6.3735,-6.4108,-6.4335,-6.4377,-6.4542,-6.4625,-6.4687,-6.4894,-6.5018,-6.5039,-6.5267,-6.537,-6.5412,-6.5412,-6.5412,-6.537,-6.5163,-6.4811,-6.4397,-6.417,-6.4066,-6.4066,-6.4066,-6.4066,-6.4066,-6.4066,-6.4046,-6.4066,-6.4066,-6.4066,-6.4046,-6.4066,-6.4066,-6.4046,-6.4066,-6.4066,-6.4046,-6.4211,-6.4335,-6.4377,-6.4501,-6.4625,-6.4667,-6.4625,-6.4542,-6.4377,-6.4542,-6.4604,-6.4625,-6.4625,-6.4625,-6.4625,-6.4604,-6.4749,-6.4936,-6.5018,-6.5143,-6.5288,-6.5391,-6.5412,-6.5412,-6.5412,-6.537,-6.5329,-6.535,-6.535,-6.5391,-6.5412,-6.5412,-6.5412,-6.5412,-6.5412,-6.5412,-6.5412,-6.5412,-6.564,-6.6095,-6.6755,-6.7433,-6.7883,-6.8578,-6.8824,-6.9047,-6.9047,-6.0071,-6.0092,-6.0568,-6.0506,-6.0278,-6.0568,-6.0547,-6.0299,-6.0589,-6.0754,-6.0816,-6.1168,-6.121,-6.1355,-6.1168,-6.1355,-6.1417,-6.1417,-6.1479,-6.1706,-6.1996,-6.2245,-6.2245,-6.2245,-6.2431,-6.2783,-6.3218,-6.3404,-6.3549,-6.3901,-6.4108,-6.4232,-6.4584,-6.477,-6.4853,-6.5163,-6.537,-6.5308,-6.5308,-6.5329,-6.5329,-6.5391,-6.5412,-6.5412,-6.5412,-6.5412,-6.5412,-6.535,-6.5184,-6.4811,-6.4418,-6.4315,-6.4273,-6.4232,-6.4253,-6.4294,-6.4356,-6.4335,-6.4253,-6.4335,-6.4273,-6.4315,-6.4294,-6.4211,-6.4315,-6.4356,-6.4356,-6.4377,-6.4584,-6.477,-6.4832,-6.5143,-6.5267,-6.5246,-6.5329,-6.5184,-6.4998,-6.5163,-6.5412,-6.5412,-6.5391,-6.5412,-6.5412,-6.5412,-6.5391,-6.5184,-6.5267,-6.5308,-6.5391,-6.5412,-6.5412,-6.5412,-6.5412,-6.5412,-6.5412,-6.5412,-6.5412,-6.5412,-6.5412,-6.5412,-6.5412,-6.5412,-6.5412,-6.5412,-6.5412,-6.5412,-6.564,-6.6323,-6.6982,-6.7658,-6.8108,-6.8578,-6.9047,-6.9047,-6.9047,-6.0527,-6.0568,-6.1003,-6.1148,-6.1085,-6.1148,-6.1148,-6.1044,-6.1148,-6.121,-6.123,-6.1313,-6.1375,-6.1396,-6.1458,-6.1541,-6.1872,-6.1934,-6.2058,-6.2452,-6.2886,-6.3073,-6.3093,-6.3073,-6.3135,-6.3342,-6.3694,-6.3901,-6.4025,-6.4335,-6.4584,-6.4646,-6.4977,-6.5267,-6.5288,-6.5329,-6.5412,-6.5412,-6.5412,-6.5412,-6.5412,-6.5412,-6.5412,-6.5412,-6.5412,-6.5412,-6.5412,-6.5412,-6.537,-6.5267,-6.5163,-6.5018,-6.5018,-6.506,-6.5039,-6.5039,-6.506,-6.5081,-6.5101,-6.506,-6.5101,-6.5039,-6.4998,-6.5122,-6.5122,-6.5081,-6.5081,-6.5122,-6.5205,-6.5225,-6.5225,-6.5329,-6.5412,-6.5412,-6.5412,-6.5391,-6.5308,-6.535,-6.5412,-6.5412,-6.5412,-6.5412,-6.5412,-6.5412,-6.5412,-6.5412,-6.5412,-6.5412,-6.5412,-6.5412,-6.5412,-6.5412,-6.5412,-6.5412,-6.5412,-6.5412,-6.5412,-6.5412,-6.5412,-6.5412,-6.5412,-6.5412,-6.5412,-6.5412,-6.5412,-6.564,-6.5868,-6.6529,-6.7207,-6.7883,-6.8354,-6.8802,-6.9047,-6.9047,-6.9047,-6.0692,-6.0754,-6.1396,-6.1541,-6.1396,-6.1562,-6.1541,-6.1417,-6.1582,-6.1665,-6.1706,-6.1851,-6.1976,-6.1976,-6.1976,-6.2141,-6.2348,-6.2576,-6.2783,-6.3073,-6.3466,-6.3673,-6.3776,-6.388,-6.3942,-6.3818,-6.417,-6.4356,-6.4501,-6.4791,-6.506,-6.506,-6.5308,-6.537,-6.5412,-6.5412,-6.5412,-6.5412,-6.5412,-6.5412,-6.5412,-6.5412,-6.5412,-6.5412,-6.5412,-6.5412,-6.5412,-6.5412,-6.5412,-6.5412,-6.5412,-6.5412,-6.5412,-6.5412,-6.5412,-6.5412,-6.5412,-6.5412,-6.5412,-6.5412,-6.5391,-6.5412,-6.5412,-6.5412,-6.5412,-6.5412,-6.5412,-6.5412,-6.5412,-6.5412,-6.5412,-6.5412,-6.5412,-6.5412,-6.5412,-6.5412,-6.5412,-6.5412,-6.5412,-6.5412,-6.5412,-6.5412,-6.5412,-6.5412,-6.5412,-6.5412,-6.5412,-6.5412,-6.5412,-6.5412,-6.5412,-6.5412,-6.5412,-6.5412,-6.5412,-6.5412,-6.5412,-6.5412,-6.5412,-6.5412,-6.5412,-6.5412,-6.5412,-6.5412,-6.5412,-6.564,-6.6095,-6.6755,-6.7433,-6.7883,-6.8354,-6.8802,-6.9047,-6.9025,-6.9025,-6.0796,-6.0858,-6.1748,-6.1913,-6.1644,-6.1955,-6.1934,-6.1686,-6.1955,-6.2141,-6.2183,-6.2534,-6.2555,-6.2659,-6.2721,-6.2783,-6.299,-6.3218,-6.3445,-6.3528,-6.3942,-6.4128,-6.4253,-6.4501,-6.4625,-6.4335,-6.4646,-6.4832,-6.4936,-6.5184,-6.5329,-6.5391,-6.5412,-6.5412,-6.5412,-6.5412,-6.5412,-6.5412,-6.5412,-6.5412,-6.5412,-6.5412,-6.5412,-6.5412,-6.5412,-6.5412,-6.5412,-6.5412,-6.5412,-6.5412,-6.5412,-6.5412,-6.5412,-6.5412,-6.5412,-6.5412,-6.5412,-6.5412,-6.5412,-6.5412,-6.5412,-6.5412,-6.5412,-6.5412,-6.5412,-6.5412,-6.5412,-6.5412,-6.5412,-6.5412,-6.5412,-6.5412,-6.5412,-6.5412,-6.5412,-6.5412,-6.5412,-6.5412,-6.5412,-6.5412,-6.5412,-6.5412,-6.5412,-6.5412,-6.5412,-6.5412,-6.5412,-6.5412,-6.5412,-6.5412,-6.5412,-6.5412,-6.5412,-6.5412,-6.5412,-6.5412,-6.5412,-6.5412,-6.5412,-6.5412,-6.5412,-6.5412,-6.5412,-6.5412,-6.564,-6.5868,-6.6302,-6.7207,-6.7658,-6.8108,-6.8578,-6.8824,-6.9025,-6.8982,-6.8938,-6.123,-6.1313,-6.2203,-6.2514,-6.2472,-6.2555,-6.2514,-6.2472,-6.2493,-6.2576,-6.2597,-6.2659,-6.2721,-6.2804,-6.3114,-6.3445,-6.3694,-6.388,-6.3942,-6.4025,-6.4397,-6.4604,-6.4708,-6.4998,-6.5184,-6.5225,-6.5246,-6.5246,-6.5267,-6.5391,-6.5412,-6.5412,-6.5412,-6.5412,-6.5412,-6.5412,-6.5412,-6.5412,-6.5412,-6.5412,-6.5412,-6.5412,-6.5412,-6.5412,-6.5412,-6.5412,-6.5412,-6.5412,-6.5412,-6.5412,-6.5412,-6.5412,-6.5412,-6.5412,-6.5412,-6.5412,-6.5412,-6.5412,-6.5412,-6.5412,-6.5412,-6.5412,-6.5412,-6.5412,-6.5412,-6.5412,-6.5412,-6.5412,-6.5412,-6.5412,-6.5412,-6.5412,-6.5412,-6.5412,-6.5412,-6.5412,-6.5412,-6.5412,-6.5412,-6.5412,-6.5412,-6.5412,-6.5412,-6.5412,-6.5412,-6.5412,-6.5412,-6.5412,-6.5412,-6.5412,-6.5412,-6.5412,-6.5412,-6.5412,-6.5412,-6.5412,-6.5412,-6.5412,-6.5412,-6.5412,-6.5412,-6.5412,-6.5412,-6.564,-6.5868,-6.6302,-6.6982,-6.7433,-6.813,-6.8578,-6.8824,-6.9047,-6.8982,-6.8894,-6.8588,-6.1355,-6.1437,-6.2307,-6.2679,-6.2679,-6.2679,-6.2679,-6.2679,-6.2679,-6.2824,-6.299,-6.3052,-6.3197,-6.3404,-6.3611,-6.388,-6.4066,-6.4335,-6.4397,-6.4501,-6.4853,-6.5081,-6.5081,-6.5329,-6.5391,-6.5412,-6.5412,-6.5412,-6.5412,-6.5412,-6.5412,-6.5412,-6.5412,-6.5412,-6.5412,-6.5412,-6.5412,-6.5412,-6.5412,-6.5412,-6.5412,-6.5412,-6.5412,-6.5412,-6.5412,-6.5412,-6.5412,-6.5412,-6.5412,-6.5412,-6.5412,-6.5412,-6.5412,-6.5412,-6.5412,-6.5412,-6.5412,-6.5412,-6.5412,-6.5412,-6.5412,-6.5412,-6.5412,-6.5412,-6.5412,-6.5412,-6.5412,-6.5412,-6.5412,-6.5412,-6.5412,-6.5412,-6.5412,-6.5412,-6.5412,-6.5412,-6.5412,-6.5412,-6.5412,-6.5412,-6.5412,-6.5412,-6.5412,-6.5412,-6.5412,-6.5412,-6.5412,-6.5412,-6.5412,-6.5412,-6.5412,-6.5412,-6.5412,-6.5412,-6.5412,-6.5412,-6.5412,-6.5412,-6.5412,-6.5412,-6.5412,-6.5412,-6.564,-6.5868,-6.6302,-6.6755,-6.7433,-6.7883,-6.8354,-6.8824,-6.8824,-6.9025,-6.8916,-6.8741,-6.8392,-6.1479,-6.1541,-6.2348,-6.2679,-6.2679,-6.2679,-6.2679,-6.27,-6.2783,-6.3031,-6.3342,-6.3487,-6.3714,-6.4004,-6.4149,-6.4253,-6.4335,-6.4749,-6.4853,-6.4936,-6.5184,-6.5391,-6.5412,-6.5412,-6.5412,-6.5412,-6.5412,-6.5412,-6.5412,-6.5412,-6.5412,-6.5412,-6.5412,-6.5412,-6.5412,-6.5412,-6.5412,-6.5412,-6.5412,-6.5412,-6.5412,-6.5412,-6.5412,-6.5412,-6.5412,-6.5412,-6.5412,-6.5412,-6.5412,-6.5412,-6.5412,-6.5412,-6.5412,-6.5412,-6.5412,-6.5412,-6.5412,-6.5412,-6.5412,-6.5412,-6.5412,-6.5412,-6.5412,-6.5412,-6.5412,-6.5412,-6.5412,-6.5412,-6.5412,-6.5412,-6.5412,-6.5412,-6.5412,-6.5412,-6.5412,-6.5412,-6.5412,-6.5412,-6.5412,-6.5412,-6.5412,-6.5412,-6.5412,-6.5412,-6.5412,-6.5412,-6.5412,-6.5412,-6.5412,-6.5412,-6.5412,-6.5412,-6.5412,-6.5412,-6.5412,-6.5412,-6.5412,-6.5412,-6.5412,-6.5412,-6.5412,-6.564,-6.5868,-6.6302,-6.6755,-6.7207,-6.7883,-6.8332,-6.8578,-6.8824,-6.9047,-6.8938,-6.8719,-6.8392,-6.802,-6.1955,-6.1996,-6.2472,-6.2679,-6.2679,-6.27,-6.27,-6.2762,-6.3135,-6.33,-6.3507,-6.3797,-6.4025,-6.4211,-6.4522,-6.4853,-6.5122,-6.5205,-6.5246,-6.5267,-6.537,-6.5412,-6.5412,-6.5412,-6.5412,-6.5412,-6.5412,-6.5412,-6.5412,-6.5412,-6.5412,-6.5412,-6.5412,-6.5412,-6.5412,-6.5412,-6.5412,-6.5412,-6.5412,-6.5412,-6.5412,-6.5412,-6.5412,-6.5412,-6.5412,-6.5412,-6.5412,-6.5412,-6.5412,-6.5412,-6.5412,-6.5412,-6.5412,-6.5412,-6.5412,-6.5412,-6.5412,-6.5412,-6.5412,-6.5412,-6.5412,-6.5412,-6.5412,-6.5412,-6.5412,-6.5412,-6.5412,-6.5412,-6.5412,-6.5412,-6.5412,-6.5412,-6.5412,-6.5412,-6.5412,-6.5412,-6.5412,-6.5412,-6.5412,-6.5412,-6.5412,-6.5412,-6.5412,-6.5412,-6.5412,-6.5412,-6.5412,-6.5412,-6.5412,-6.5412,-6.5412,-6.5412,-6.5412,-6.5412,-6.5412,-6.5412,-6.5412,-6.5412,-6.5412,-6.5412,-6.5412,-6.564,-6.6302,-6.6755,-6.7207,-6.7594,-6.7957,-6.8426,-6.8758,-6.896,-6.885,-6.8654,-6.8435,-6.8042,-6.7605,-6.2245,-6.2079,-6.2493,-6.2679,-6.2721,-6.2948,-6.3073,-6.3176,-6.3569,-6.3921,-6.4128,-6.4335,-6.4563,-6.4791,-6.506,-6.5205,-6.5391,-6.5412,-6.5412,-6.5412,-6.5412,-6.5412,-6.5412,-6.5412,-6.5412,-6.5412,-6.5412,-6.5412,-6.5412,-6.5412,-6.5412,-6.5412,-6.5412,-6.5412,-6.5412,-6.5412,-6.5412,-6.5412,-6.5412,-6.5412,-6.5412,-6.5412,-6.5412,-6.5412,-6.5412,-6.5412,-6.5412,-6.5412,-6.5412,-6.5412,-6.5412,-6.5412,-6.5412,-6.5412,-6.5412,-6.5412,-6.5412,-6.5412,-6.5412,-6.5412,-6.5412,-6.5412,-6.5412,-6.5412,-6.5412,-6.5412,-6.5412,-6.5412,-6.5412,-6.5412,-6.5412,-6.5412,-6.5412,-6.5412,-6.5412,-6.5412,-6.5412,-6.5412,-6.5412,-6.5412,-6.5412,-6.5412,-6.5412,-6.5412,-6.5412,-6.5412,-6.5412,-6.5412,-6.5412,-6.5412,-6.5412,-6.5412,-6.5412,-6.5412,-6.5412,-6.5412,-6.5412,-6.5412,-6.5412,-6.5412,-6.564,-6.5868,-6.6529,-6.7207,-6.7637,-6.8,-6.8296,-6.8541,-6.8671,-6.8785,-6.8632,-6.8326,-6.7999,-6.754,-6.7103,-6.2221,-6.1974,-6.2721,-6.2845,-6.2907,-6.3342,-6.3549,-6.3611,-6.4025,-6.4418,-6.4687,-6.4832,-6.5101,-6.5329,-6.537,-6.5391,-6.5412,-6.5412,-6.5412,-6.5412,-6.5412,-6.5412,-6.5412,-6.5412,-6.5412,-6.5412,-6.5412,-6.5412,-6.5412,-6.5412,-6.5412,-6.5412,-6.5412,-6.5412,-6.5412,-6.5412,-6.5412,-6.5412,-6.5412,-6.5412,-6.5412,-6.5412,-6.5412,-6.5412,-6.5412,-6.5412,-6.5412,-6.5412,-6.5412,-6.5412,-6.5412,-6.5412,-6.5412,-6.5412,-6.5412,-6.5412,-6.5412,-6.5412,-6.5412,-6.5412,-6.5412,-6.5412,-6.5412,-6.5412,-6.5412,-6.5412,-6.5412,-6.5412,-6.5412,-6.5412,-6.5412,-6.5412,-6.5412,-6.5412,-6.5412,-6.5412,-6.5412,-6.5412,-6.5412,-6.5412,-6.5412,-6.5412,-6.5412,-6.5412,-6.5412,-6.5412,-6.5412,-6.5412,-6.5412,-6.5412,-6.5412,-6.5412,-6.5412,-6.5412,-6.5412,-6.5412,-6.5412,-6.5412,-6.5412,-6.564,-6.5868,-6.6323,-6.6982,-6.7433,-6.7797,-6.8073,-6.8279,-6.8432,-6.8741,-6.8392,-6.8086,-6.7868,-6.7518,-6.7059,-6.6732,-6.1746,-6.1726,-6.2878,-6.3342,-6.3362,-6.3818,-6.4004,-6.4046,-6.4501,-6.4708,-6.4853,-6.5143,-6.535,-6.5412,-6.5412,-6.5412,-6.5412,-6.5412,-6.5412,-6.5412,-6.5412,-6.5412,-6.5412,-6.5412,-6.5412,-6.5412,-6.5412,-6.5412,-6.5412,-6.5412,-6.5412,-6.5412,-6.5412,-6.5412,-6.5412,-6.5412,-6.5412,-6.5412,-6.5412,-6.5412,-6.5412,-6.5412,-6.5412,-6.5412,-6.5412,-6.5412,-6.5412,-6.5412,-6.5412,-6.5412,-6.5412,-6.5412,-6.5412,-6.5412,-6.5412,-6.5412,-6.5412,-6.5412,-6.5412,-6.5412,-6.5412,-6.5412,-6.5412,-6.5412,-6.5412,-6.5412,-6.5412,-6.5412,-6.5412,-6.5412,-6.5412,-6.5412,-6.5412,-6.5412,-6.5412,-6.5412,-6.5412,-6.5412,-6.5412,-6.5412,-6.5412,-6.5412,-6.5412,-6.5412,-6.5412,-6.5412,-6.5412,-6.5412,-6.5412,-6.5412,-6.5412,-6.5412,-6.5412,-6.5412,-6.5412,-6.5412,-6.5412,-6.5412,-6.5412,-6.564,-6.6095,-6.6529,-6.7059,-6.7401,-6.7943,-6.8014,-6.8261,-6.8173,-6.802,-6.778,-6.7562,-6.7387,-6.7103,-6.6688,-6.6448,-6.1744,-6.2006,-6.2739,-6.3149,-6.3372,-6.4049,-6.448,-6.4542,-6.4956,-6.5143,-6.5163,-6.5329,-6.5412,-6.5412,-6.5412,-6.5412,-6.5412,-6.5412,-6.5412,-6.5412,-6.5412,-6.5412,-6.5412,-6.5412,-6.5412,-6.5412,-6.5412,-6.5412,-6.5412,-6.5412,-6.5412,-6.5412,-6.5412,-6.5412,-6.5412,-6.5412,-6.5412,-6.5412,-6.5412,-6.5412,-6.5412,-6.5412,-6.5412,-6.5412,-6.5412,-6.5412,-6.5412,-6.5412,-6.5412,-6.5412,-6.5412,-6.5412,-6.5412,-6.5412,-6.5412,-6.5412,-6.5412,-6.5412,-6.5412,-6.5412,-6.5412,-6.5412,-6.5412,-6.5412,-6.5412,-6.5412,-6.5412,-6.5412,-6.5412,-6.5412,-6.5412,-6.5412,-6.5412,-6.5412,-6.5412,-6.5412,-6.5412,-6.5412,-6.5412,-6.5412,-6.5412,-6.5412,-6.5412,-6.5412,-6.5412,-6.5412,-6.5412,-6.5412,-6.5412,-6.5412,-6.5412,-6.5474,-6.5495,-6.5515,-6.5515,-6.5474,-6.5432,-6.5432,-6.5453,-6.5785,-6.6176,-6.6396,-6.6718,-6.7303,-6.7753,-6.767,-6.7649,-6.7496,-6.7343,-6.7212,-6.7081,-6.6972,-6.6644,-6.6338,-6.6251,-6.1715,-6.2034,-6.2473,-6.3099,-6.3455,-6.4297,-6.4709,-6.4977,-6.5246,-6.5412,-6.5412,-6.5412,-6.5412,-6.5412,-6.5412,-6.5412,-6.5412,-6.5412,-6.5412,-6.5412,-6.5412,-6.5412,-6.5412,-6.5412,-6.5412,-6.5412,-6.5412,-6.5412,-6.5412,-6.5412,-6.5412,-6.5412,-6.5412,-6.5412,-6.5412,-6.5412,-6.5412,-6.5412,-6.5412,-6.5412,-6.5412,-6.5412,-6.5412,-6.5412,-6.5412,-6.5412,-6.5412,-6.5412,-6.5412,-6.5412,-6.5412,-6.5412,-6.5412,-6.5412,-6.5412,-6.5412,-6.5412,-6.5412,-6.5412,-6.5412,-6.5412,-6.5412,-6.5412,-6.5412,-6.5412,-6.5412,-6.5412,-6.5412,-6.5412,-6.5412,-6.5412,-6.5412,-6.5412,-6.5412,-6.5412,-6.5412,-6.5412,-6.5412,-6.5412,-6.5412,-6.5412,-6.5412,-6.5432,-6.5432,-6.5474,-6.5453,-6.5412,-6.5412,-6.5412,-6.5412,-6.5412,-6.5495,-6.5598,-6.5619,-6.5639,-6.5722,-6.5764,-6.5598,-6.5744,-6.5865,-6.615,-6.6367,-6.6802,-6.7337,-6.7517,-6.7321,-6.7103,-6.6994,-6.6863,-6.6688,-6.6622,-6.6601,-6.647,-6.6229,-6.6207,-6.1055,-6.1364,-6.2239,-6.3083,-6.3656,-6.4312,-6.4684,-6.5101,-6.5391,-6.5412,-6.5412,-6.5412,-6.5412,-6.5412,-6.5412,-6.5412,-6.5412,-6.5412,-6.5412,-6.5412,-6.5412,-6.5412,-6.5412,-6.5412,-6.5412,-6.5412,-6.5412,-6.5412,-6.5412,-6.5412,-6.5412,-6.5412,-6.5412,-6.5412,-6.5412,-6.5412,-6.5412,-6.5412,-6.5412,-6.5412,-6.5412,-6.5412,-6.5412,-6.5412,-6.5412,-6.5412,-6.5412,-6.5412,-6.5412,-6.5412,-6.5412,-6.5412,-6.5412,-6.5412,-6.5412,-6.5412,-6.5412,-6.5412,-6.5412,-6.5412,-6.5412,-6.5412,-6.5412,-6.5412,-6.5412,-6.5412,-6.5412,-6.5412,-6.5412,-6.5412,-6.5412,-6.5412,-6.5412,-6.5412,-6.5412,-6.5412,-6.5412,-6.5412,-6.5412,-6.5412,-6.5412,-6.5432,-6.5453,-6.5474,-6.5515,-6.5515,-6.5453,-6.5453,-6.5515,-6.5681,-6.5784,-6.5846,-6.5971,-6.6033,-6.6095,-6.6095,-6.6053,-6.6097,-6.6097,-6.6302,-6.6269,-6.6579,-6.7008,-6.7452,-6.7256,-6.6841,-6.6666,-6.6535,-6.647,-6.6426,-6.6317,-6.6273,-6.6186,-6.6164,-6.6164,-6.125,-6.1504,-6.1893,-6.2358,-6.3163,-6.4205,-6.4746,-6.4975,-6.5204,-6.5412,-6.5412,-6.5412,-6.5412,-6.5412,-6.5412,-6.5412,-6.5412,-6.5412,-6.5412,-6.5412,-6.5412,-6.5412,-6.5412,-6.5412,-6.5412,-6.5412,-6.5412,-6.5412,-6.5412,-6.5412,-6.5412,-6.5412,-6.5412,-6.5412,-6.5412,-6.5412,-6.5412,-6.5412,-6.5412,-6.5412,-6.5412,-6.5412,-6.5412,-6.5412,-6.5412,-6.5412,-6.5412,-6.5412,-6.5412,-6.5412,-6.5412,-6.5412,-6.5412,-6.5412,-6.5412,-6.5412,-6.5412,-6.5412,-6.5412,-6.5412,-6.5412,-6.5412,-6.5412,-6.5412,-6.5412,-6.5412,-6.5412,-6.5412,-6.5412,-6.5412,-6.5412,-6.5412,-6.5412,-6.5412,-6.5412,-6.5412,-6.5412,-6.5412,-6.5412,-6.5412,-6.5412,-6.5702,-6.5805,-6.5888,-6.5929,-6.6033,-6.6033,-6.5929,-6.595,-6.626,-6.6467,-6.6467,-6.6509,-6.655,-6.655,-6.6488,-6.6323,-6.6116,-6.6389,-6.6866,-6.6791,-6.6737,-6.7056,-6.7299,-6.695,-6.6404,-6.6382,-6.6338,-6.6251,-6.6186,-6.6164,-6.6164,-6.6164,-6.6164,-6.6164,-6.1465,-6.1699,-6.1719,-6.1952,-6.2437,-6.3364,-6.4056,-6.4516,-6.5204,-6.5412,-6.5412,-6.5412,-6.5412,-6.5412,-6.5412,-6.5412,-6.5412,-6.5412,-6.5412,-6.5412,-6.5412,-6.5412,-6.5412,-6.5412,-6.5412,-6.5412,-6.5412,-6.5412,-6.5412,-6.5412,-6.5412,-6.5412,-6.5412,-6.5412,-6.5412,-6.5412,-6.5412,-6.5412,-6.5412,-6.5412,-6.5412,-6.5412,-6.5412,-6.5412,-6.5412,-6.5412,-6.5412,-6.5412,-6.5412,-6.5412,-6.5412,-6.5412,-6.5412,-6.5412,-6.5412,-6.5412,-6.5412,-6.5412,-6.5412,-6.5412,-6.5412,-6.5412,-6.5412,-6.5412,-6.5412,-6.5412,-6.5412,-6.5412,-6.5412,-6.5412,-6.5412,-6.5412,-6.5453,-6.5453,-6.5495,-6.5495,-6.5536,-6.5536,-6.5702,-6.5681,-6.5846,-6.6074,-6.626,-6.6323,-6.6405,-6.655,-6.6674,-6.655,-6.6426,-6.6695,-6.6944,-6.6923,-6.6964,-6.6985,-6.6923,-6.6799,-6.6612,-6.6385,-6.6765,-6.7114,-6.6995,-6.6895,-6.7034,-6.7169,-6.695,-6.6579,-6.6295,-6.6164,-6.6164,-6.6164,-6.6164,-6.6164,-6.6164,-6.6164,-6.6164,-6.1719,-6.1719,-6.1719,-6.1719,-6.1952,-6.2669,-6.3595,-6.4537,-6.5204,-6.5412,-6.5412,-6.5412,-6.5412,-6.5412,-6.5412,-6.5412,-6.5412,-6.5412,-6.5412,-6.5412,-6.5412,-6.5412,-6.5412,-6.5412,-6.5412,-6.5412,-6.5412,-6.5412,-6.5412,-6.5412,-6.5412,-6.5412,-6.5412,-6.5412,-6.5412,-6.5412,-6.5412,-6.5412,-6.5412,-6.5412,-6.5412,-6.5412,-6.5412,-6.5412,-6.5412,-6.5412,-6.5412,-6.5412,-6.5412,-6.5412,-6.5412,-6.5412,-6.5412,-6.5412,-6.5412,-6.5412,-6.5412,-6.5412,-6.5412,-6.5412,-6.5412,-6.5412,-6.5412,-6.5412,-6.5412,-6.5412,-6.5412,-6.5412,-6.5412,-6.5412,-6.5412,-6.5474,-6.5536,-6.5577,-6.5619,-6.566,-6.5702,-6.5826,-6.6074,-6.6219,-6.6447,-6.6654,-6.6757,-6.684,-6.6902,-6.713,-6.7254,-6.7233,-6.7109,-6.7026,-6.7233,-6.7213,-6.7275,-6.7399,-6.7295,-6.7006,-6.6907,-6.6575,-6.6701,-6.696,-6.708,-6.7224,-6.7428,-6.7562,-6.7125,-6.6732,-6.6338,-6.6186,-6.6164,-6.6164,-6.6186,-6.6164,-6.6164,-6.6164,-6.6164,-6.1719,-6.1719,-6.1719,-6.1719,-6.1952,-6.2881,-6.3806,-6.4516,-6.5183,-6.5412,-6.5412,-6.5412,-6.5412,-6.5412,-6.5412,-6.5412,-6.5412,-6.5412,-6.5412,-6.5412,-6.5412,-6.5412,-6.5412,-6.5412,-6.5412,-6.5412,-6.5412,-6.5412,-6.5412,-6.5412,-6.5412,-6.5412,-6.5412,-6.5412,-6.5412,-6.5412,-6.5412,-6.5412,-6.5412,-6.5412,-6.5412,-6.5412,-6.5412,-6.5412,-6.5412,-6.5412,-6.5412,-6.5412,-6.5412,-6.5412,-6.5412,-6.5412,-6.5412,-6.5412,-6.5412,-6.5412,-6.5412,-6.5412,-6.5412,-6.5412,-6.5412,-6.5412,-6.5412,-6.5412,-6.5412,-6.5412,-6.5412,-6.5412,-6.5495,-6.5557,-6.566,-6.5743,-6.5826,-6.5929,-6.6012,-6.6157,-6.6219,-6.6343,-6.6571,-6.6778,-6.7006,-6.7109,-6.7233,-6.7295,-6.7378,-6.7668,-6.7813,-6.7772,-6.773,-6.7606,-6.7565,-6.7544,-6.742,-6.7482,-6.7316,-6.7047,-6.6907,-6.6953,-6.7093,-6.7369,-6.7625,-6.7792,-6.7909,-6.778,-6.7365,-6.6841,-6.6273,-6.6229,-6.6317,-6.6207,-6.6186,-6.6186,-6.6164,-6.6186,-6.6186,-6.1719,-6.1719,-6.1719,-6.1719,-6.1952,-6.2881,-6.3595,-6.4286,-6.4954,-6.5412,-6.5412,-6.5412,-6.5412,-6.5412,-6.5412,-6.5412,-6.5412,-6.5412,-6.5412,-6.5412,-6.5412,-6.5412,-6.5412,-6.5412,-6.5412,-6.5412,-6.5412,-6.5412,-6.5412,-6.5412,-6.5412,-6.5412,-6.5412,-6.5412,-6.5412,-6.5412,-6.5412,-6.5412,-6.5412,-6.5412,-6.5412,-6.5412,-6.5412,-6.5391,-6.5391,-6.537,-6.537,-6.537,-6.5391,-6.5412,-6.5412,-6.5412,-6.5412,-6.5412,-6.5246,-6.5246,-6.535,-6.5391,-6.5412,-6.5412,-6.5412,-6.5412,-6.5412,-6.5412,-6.5412,-6.5412,-6.5412,-6.5432,-6.5598,-6.5743,-6.5909,-6.6053,-6.6219,-6.6385,-6.6571,-6.6757,-6.6861,-6.6944,-6.713,-6.7316,-6.7461,-6.7565,-6.7647,-6.7709,-6.7792,-6.7958,-6.8041,-6.8041,-6.802,-6.7979,-6.7937,-6.7937,-6.7668,-6.7482,-6.7275,-6.6964,-6.6993,-6.6828,-6.7157,-6.7497,-6.8086,-6.8361,-6.8279,-6.8086,-6.7671,-6.7125,-6.6601,-6.6513,-6.6513,-6.6426,-6.6404,-6.6513,-6.6448,-6.6273,-6.6251,-6.1719,-6.1719,-6.1719,-6.1719,-6.1719,-6.2437,-6.3133,-6.3575,-6.4725,-6.5412,-6.5412,-6.5412,-6.5412,-6.5412,-6.5412,-6.5412,-6.5412,-6.5412,-6.5412,-6.5412,-6.5412,-6.5412,-6.5412,-6.5412,-6.5412,-6.5412,-6.5412,-6.5412,-6.5412,-6.5412,-6.5412,-6.5412,-6.5412,-6.5412,-6.5412,-6.5412,-6.5412,-6.5412,-6.535,-6.5288,-6.537,-6.5391,-6.537,-6.5308,-6.5267,-6.5225,-6.5246,-6.5267,-6.5308,-6.5308,-6.5267,-6.5225,-6.5184,-6.5267,-6.5039,-6.5081,-6.5225,-6.537,-6.5412,-6.5412,-6.5412,-6.5412,-6.5412,-6.5412,-6.5412,-6.5412,-6.5412,-6.5619,-6.5826,-6.6033,-6.6219,-6.655,-6.6778,-6.6923,-6.7088,-6.7233,-6.7316,-6.744,-6.7606,-6.7751,-6.7834,-6.7916,-6.7937,-6.7979,-6.7958,-6.8144,-6.8186,-6.8186,-6.8103,-6.8103,-6.8082,-6.8082,-6.7772,-6.7399,-6.7109,-6.6778,-6.6743,-6.6826,-6.7257,-6.7808,-6.8354,-6.8491,-6.8872,-6.8392,-6.7911,-6.7518,-6.7125,-6.7016,-6.6885,-6.6753,-6.6775,-6.6906,-6.6819,-6.6644,-6.6622,-6.1719,-6.1719,-6.1719,-6.1719,-6.1719,-6.2437,-6.2689,-6.2901,-6.4286,-6.4975,-6.5412,-6.5412,-6.5412,-6.5412,-6.5412,-6.5412,-6.5412,-6.5412,-6.5412,-6.5412,-6.5412,-6.5412,-6.5412,-6.5412,-6.5412,-6.5412,-6.5412,-6.5412,-6.5412,-6.5412,-6.5412,-6.5412,-6.5412,-6.5412,-6.5412,-6.5412,-6.535,-6.5308,-6.5039,-6.506,-6.5225,-6.5039,-6.4894,-6.4791,-6.4708,-6.4522,-6.448,-6.446,-6.4418,-6.4377,-6.4377,-6.4377,-6.4377,-6.4729,-6.4832,-6.4832,-6.5143,-6.535,-6.5412,-6.5412,-6.5412,-6.5412,-6.5412,-6.5412,-6.5412,-6.5412,-6.5557,-6.5826,-6.6116,-6.6364,-6.6633,-6.7006,-6.7337,-6.7461,-6.7565,-6.7668,-6.7772,-6.7896,-6.8041,-6.8103,-6.8165,-6.8186,-6.8186,-6.8186,-6.8186,-6.8186,-6.8186,-6.8144,-6.7958,-6.7896,-6.7834,-6.7792,-6.7647,-6.7337,-6.6964,-6.6762,-6.6702,-6.6887,-6.7335,-6.7926,-6.8578,-6.8758,-6.8916,-6.8545,-6.813,-6.7846,-6.7649,-6.7474,-6.7343,-6.7147,-6.7234,-6.7409,-6.7474,-6.7343,-6.73,-6.1719,-6.1719,-6.1719,-6.1719,-6.1719,-6.2204,-6.2437,-6.2901,-6.3364,-6.4286,-6.4954,-6.5183,-6.5412,-6.5412,-6.5412,-6.5412,-6.5412,-6.5412,-6.5412,-6.5412,-6.5412,-6.5412,-6.5412,-6.5412,-6.5412,-6.5412,-6.5412,-6.5412,-6.5412,-6.5412,-6.5412,-6.5412,-6.5412,-6.5391,-6.537,-6.5267,-6.5122,-6.5081,-6.4667,-6.4625,-6.4832,-6.4584,-6.4439,-6.4315,-6.4211,-6.4046,-6.4066,-6.4066,-6.4066,-6.417,-6.4315,-6.4232,-6.4397,-6.477,-6.4894,-6.4915,-6.5122,-6.5412,-6.5412,-6.5412,-6.5412,-6.5412,-6.5412,-6.5412,-6.5784,-6.5805,-6.5805,-6.6095,-6.6716,-6.7006,-6.7171,-6.7502,-6.7709,-6.7875,-6.7916,-6.7979,-6.802,-6.8061,-6.8123,-6.8144,-6.8186,-6.8186,-6.8186,-6.8186,-6.8165,-6.8103,-6.8123,-6.7896,-6.7751,-6.7502,-6.7482,-6.7378,-6.7171,-6.6944,-6.653,-6.6597,-6.6638,-6.6861,-6.7433,-6.813,-6.8578,-6.8824,-6.8938,-6.8698,-6.8523,-6.837,-6.8173,-6.7977,-6.7693,-6.7452,-6.7649,-6.7911,-6.7955,-6.802,-6.8064,-6.1719,-6.1719,-6.1719,-6.1719,-6.1719,-6.1719,-6.1952,-6.2437,-6.2669,-6.3384,-6.4286,-6.4975,-6.5183,-6.5412,-6.5412,-6.5412,-6.5412,-6.5412,-6.5412,-6.5412,-6.5412,-6.5412,-6.5412,-6.5412,-6.5412,-6.5412,-6.5412,-6.5412,-6.5412,-6.5412,-6.5412,-6.5412,-6.535,-6.5308,-6.5184,-6.4915,-6.4646,-6.4542,-6.4273,-6.4025,-6.3983,-6.3963,-6.3963,-6.3963,-6.3921,-6.3901,-6.388,-6.388,-6.3859,-6.3983,-6.4108,-6.417,-6.4356,-6.4708,-6.4832,-6.4936,-6.5163,-6.537,-6.5412,-6.5412,-6.5412,-6.5412,-6.5412,-6.5577,-6.5909,-6.6136,-6.6136,-6.6467,-6.7068,-6.7482,-6.7647,-6.7813,-6.802,-6.8144,-6.8165,-6.8186,-6.8186,-6.8186,-6.8186,-6.8186,-6.8186,-6.8186,-6.8186,-6.8186,-6.8103,-6.8041,-6.7834,-6.7606,-6.7337,-6.7026,-6.684,-6.6674,-6.6467,-6.6219,-6.6095,-6.6389,-6.6781,-6.7045,-6.7658,-6.8354,-6.8802,-6.8824,-6.9047,-6.9025,-6.885,-6.8698,-6.861,-6.8435,-6.813,-6.7868,-6.8151,-6.8414,-6.8457,-6.8545,-6.8785,-6.1719,-6.1719,-6.1719,-6.1719,-6.1719,-6.1719,-6.1719,-6.1952,-6.2437,-6.2921,-6.3384,-6.4286,-6.4975,-6.5412,-6.5412,-6.5412,-6.5412,-6.5412,-6.5412,-6.5412,-6.5412,-6.5412,-6.5412,-6.5412,-6.5412,-6.537,-6.5329,-6.5391,-6.5163,-6.5267,-6.5391,-6.5308,-6.4936,-6.4853,-6.477,-6.448,-6.417,-6.4046,-6.3797,-6.3507,-6.3507,-6.3507,-6.3507,-6.3383,-6.3135,-6.3011,-6.2948,-6.2948,-6.2948,-6.3093,-6.3507,-6.388,-6.4273,-6.4667,-6.4853,-6.4998,-6.5225,-6.535,-6.5412,-6.5412,-6.5412,-6.5412,-6.5432,-6.5474,-6.5867,-6.6302,-6.6405,-6.6633,-6.7171,-6.7606,-6.7834,-6.7999,-6.8165,-6.8165,-6.8186,-6.8186,-6.8186,-6.8186,-6.8186,-6.8186,-6.8186,-6.8186,-6.8186,-6.8103,-6.7916,-6.7792,-6.7523,-6.7254,-6.6923,-6.6592,-6.624,-6.6074,-6.5867,-6.595,-6.6012,-6.6681,-6.6908,-6.7378,-6.7658,-6.8354,-6.8802,-6.9047,-6.9047,-6.9047,-6.9047,-6.8938,-6.885,-6.8763,-6.8741,-6.8567,-6.8741,-6.8916,-6.8916,-6.8894,-6.9003]}]]